GFSSGP_925_spd_000.txt.gz
Wind_Speed
14 13 8 9 6 4 12 8 8 8 8 10 7 5 10 9 3 7 17 17 19 14 15 15 15 14 18 18 18 18 21 19 17 17 14 13 13 13 13 12 10 11 11 11 10 10 12 11 10
14 11 7 6 3 5 8 8 10 10 13 13 12 7 6 5 8 17 19 19 17 18 17 15 12 13 16 16 17 18 19 15 15 14 13 11 9 9 10 10 9 9 10 8 9 10 10 9 9
13 10 6 4 4 8 10 8 11 12 11 4 5 10 5 9 14 19 23 21 18 16 15 11 12 13 15 15 15 16 16 15 14 13 11 8 6 7 7 8 8 8 8 7 8 8 7 8 8
10 7 5 2 12 7 10 10 12 11 8 3 9 12 11 15 13 15 22 20 18 16 12 11 12 13 14 14 15 16 15 14 13 13 10 8 6 6 6 6 7 6 5 5 6 6 6 6 7
8 4 3 9 11 9 9 11 9 6 6 8 10 11 13 8 12 21 20 18 17 17 13 12 14 14 15 16 17 17 16 13 13 12 11 9 7 5 4 5 5 4 4 4 5 5 6 7 7
7 4 3 10 11 8 8 10 7 4 8 7 13 16 11 13 19 19 19 17 17 18 15 13 13 14 15 16 18 18 14 12 11 11 10 7 5 2 3 3 3 3 2 3 6 7 6 7 6
8 6 5 9 10 8 9 9 5 7 10 9 17 14 12 16 19 19 19 18 18 17 14 14 13 12 14 15 17 16 13 10 10 9 8 6 4 1 1 0 2 2 3 5 6 5 6 7 6
5 6 4 2 6 12 11 11 7 8 8 14 10 6 14 21 22 21 20 18 17 16 15 14 13 14 14 12 13 12 11 11 9 8 7 6 4 2 2 1 2 4 3 4 5 4 4 5 6
4 6 4 5 4 11 14 10 7 7 12 8 10 7 22 26 24 23 21 18 16 16 15 14 14 14 14 13 12 11 10 9 9 8 7 4 3 2 2 5 5 6 2 3 4 4 5 5 7
8 7 5 4 1 12 15 11 13 9 13 10 11 8 27 26 25 24 23 21 20 18 16 16 15 14 13 13 11 11 10 10 10 9 6 4 4 3 3 4 5 3 2 2 3 5 6 6 5
8 11 6 1 2 12 17 12 12 10 12 12 16 16 25 27 25 24 22 21 21 19 18 16 15 13 14 12 12 11 11 11 11 10 8 6 5 3 3 2 1 0 2 1 2 3 3 4 5
10 10 9 4 7 11 17 15 12 10 4 13 14 19 25 23 23 24 22 21 20 20 18 17 16 15 14 11 12 11 12 11 11 10 10 9 7 5 3 2 1 1 2 2 3 3 4 5 7
12 11 8 8 8 12 14 14 10 12 9 11 15 20 24 22 25 24 23 21 20 20 19 18 17 16 15 14 12 12 12 12 11 10 10 10 9 6 4 3 3 3 4 3 5 5 6 7 8
4 8 8 9 11 12 14 10 11 12 13 12 18 22 23 23 26 24 23 22 21 21 20 19 19 18 16 16 14 14 13 12 12 12 11 12 10 8 7 6 6 6 5 4 4 6 7 9 9
8 11 5 9 13 10 13 11 14 12 13 13 18 19 21 21 26 26 25 24 23 22 21 21 19 19 18 17 16 15 13 13 13 13 12 12 11 9 8 8 7 7 5 5 5 6 7 9 10
14 14 12 11 15 9 15 12 17 15 16 15 17 18 20 22 25 26 26 26 25 23 23 22 21 20 19 18 17 16 15 15 14 13 12 12 10 10 10 8 9 8 8 9 8 8 8 9 10
15 14 13 12 14 7 16 7 16 15 16 15 15 18 19 19 23 26 26 26 25 24 23 23 23 21 21 20 18 17 15 15 11 13 14 14 13 12 11 10 10 9 9 8 8 8 8 9 9
18 17 11 14 15 13 17 10 5 13 17 16 17 17 19 20 23 26 26 25 25 24 22 23 23 22 20 19 18 17 16 14 14 14 12 12 11 12 10 10 9 8 8 7 6 7 8 8 8
17 15 13 16 14 17 15 13 10 11 14 16 17 18 19 20 22 25 26 26 25 24 23 22 23 22 21 18 18 18 18 15 15 15 11 10 10 9 8 9 9 7 7 5 6 9 7 8 4
20 18 17 14 8 15 12 14 12 13 16 17 19 19 19 19 19 23 26 27 28 26 24 23 23 24 23 20 18 16 14 15 14 14 12 12 13 12 10 10 8 5 5 5 6 5 7 4 3
22 21 18 16 11 15 10 14 14 16 15 16 17 20 21 21 21 21 26 29 28 27 27 26 25 24 23 24 18 14 13 12 10 13 11 10 11 10 9 7 5 4 5 5 3 3 4 6 0
23 22 19 16 12 13 16 12 14 15 16 17 20 21 21 22 21 20 24 28 29 29 27 26 25 24 24 22 22 20 16 15 14 11 10 9 8 9 8 8 6 4 5 4 3 3 4 4 3
24 21 20 20 15 18 15 10 13 5 14 19 23 24 24 24 23 22 23 29 30 28 27 27 25 24 23 23 23 20 19 16 14 12 9 9 9 10 11 11 8 5 6 5 3 3 3 3 5
19 16 12 17 15 18 24 15 15 13 15 16 16 23 25 24 23 22 27 29 31 30 29 27 26 26 24 24 23 23 19 18 15 14 11 12 12 12 13 12 10 7 6 6 4 4 4 4 4
23 17 11 15 15 15 18 20 16 12 12 16 16 18 23 24 23 23 23 26 30 32 31 29 27 27 25 25 25 24 24 22 20 17 15 13 12 12 13 14 11 8 7 6 5 5 4 4 5
26 25 16 23 15 14 21 16 18 19 18 21 14 13 20 24 24 25 25 29 32 33 33 31 29 28 27 27 27 26 25 24 22 19 17 15 13 11 10 12 10 10 9 9 9 8 8 6 7
28 25 26 25 20 16 17 14 22 17 15 16 14 13 17 23 26 27 26 32 33 33 33 33 31 29 29 27 26 26 25 25 21 18 17 14 12 10 11 12 11 10 11 11 11 10 9 8 9
29 21 24 20 26 23 20 18 11 18 19 17 14 16 18 20 24 26 26 33 36 35 35 34 33 31 28 28 27 27 26 24 22 20 20 19 13 10 10 11 11 12 10 11 13 12 11 11 10
20 23 21 23 21 19 18 19 16 16 15 15 12 14 15 18 22 24 26 34 35 35 35 34 31 31 30 29 30 28 26 24 23 22 20 14 14 13 11 10 11 13 12 13 16 15 12 11 11
26 25 26 17 27 20 22 18 12 13 17 21 21 15 10 13 18 22 23 28 33 37 35 34 33 31 31 33 31 28 25 25 25 23 20 19 16 17 17 7 10 14 13 14 18 17 14 13 13

GFSSGP_925_spd_003.txt.gz
Wind_Speed
18 18 18 9 2 4 2 6 7 6 12 13 5 15 11 12 6 11 19 21 19 19 19 17 17 18 21 21 21 20 20 20 19 17 17 17 17 16 16 14 14 13 13 12 12 12 12 12 12
18 17 20 8 2 4 4 10 9 13 16 11 9 12 13 6 6 19 23 19 18 23 19 15 17 19 19 20 20 19 18 17 16 15 14 14 13 13 13 12 12 12 11 10 9 10 10 11 10
16 15 8 6 11 6 9 11 17 14 8 6 8 10 11 8 21 25 26 22 22 19 18 13 14 17 18 18 20 20 16 15 13 12 12 11 10 11 11 10 10 10 9 8 8 8 8 8 8
14 10 10 5 9 10 14 14 12 10 9 8 19 14 22 28 23 28 27 24 20 17 15 15 15 17 17 18 19 18 14 13 11 10 9 8 8 9 9 9 9 8 7 6 7 7 7 6 6
18 10 14 9 11 8 11 10 10 9 11 9 21 22 21 15 29 28 24 22 20 16 16 15 17 16 17 17 17 16 13 11 10 9 7 7 7 7 7 7 7 7 7 6 6 6 6 5 4
7 4 10 12 11 8 9 7 6 12 10 6 20 20 14 19 27 25 23 19 19 18 17 15 16 15 16 16 15 15 12 10 9 8 8 7 5 4 5 5 5 5 4 4 5 5 5 6 4
15 13 7 14 9 8 9 7 6 10 10 13 19 17 15 20 24 23 22 18 18 17 17 16 15 15 15 15 15 12 10 9 8 9 8 6 4 2 3 2 3 2 3 4 4 4 5 6 5
12 6 5 12 9 12 11 7 9 10 11 17 15 12 19 22 24 24 20 18 14 19 13 17 17 15 14 13 13 11 8 9 8 7 7 6 4 1 1 1 1 2 1 2 2 3 4 5 6
14 9 1 6 18 15 11 11 7 11 13 11 4 18 23 26 26 27 25 18 14 17 16 13 14 14 14 14 12 11 9 8 7 6 6 3 5 4 1 4 5 6 3 1 2 4 5 2 3
8 8 8 8 17 17 10 12 12 12 14 13 8 24 27 26 25 26 22 20 18 19 19 17 18 15 14 14 12 10 9 9 8 7 7 4 2 3 4 4 3 1 1 2 2 6 3 6 4
13 12 20 10 8 12 13 11 12 12 12 16 15 21 23 25 23 23 23 23 22 20 18 17 16 14 14 16 12 12 11 12 10 8 7 6 3 6 7 6 7 5 1 7 1 3 4 8 7
14 16 13 6 7 5 13 13 12 8 13 15 16 20 23 22 19 22 23 22 22 21 18 16 18 16 13 13 12 11 11 11 10 11 10 7 5 6 4 2 3 4 5 3 1 4 5 5 7
12 10 4 4 8 9 13 11 11 9 8 15 18 20 22 21 23 23 21 21 20 21 20 19 17 16 13 12 12 11 10 10 10 8 9 10 9 3 4 3 5 5 6 4 5 5 6 7 9
12 12 9 4 10 10 10 12 9 13 11 16 19 20 21 22 24 24 23 22 21 21 21 20 18 17 14 13 10 9 11 10 11 10 9 9 9 3 4 6 6 7 4 7 5 5 7 8 7
13 10 13 10 9 11 12 14 13 18 14 17 18 18 20 21 26 25 26 24 23 22 21 20 19 18 17 16 14 13 14 13 12 12 9 10 10 8 7 8 7 8 4 6 9 7 7 10 11
19 17 16 14 14 12 16 18 17 15 17 17 18 17 19 22 25 26 26 26 25 24 23 22 20 20 19 17 16 16 15 14 13 12 13 12 11 9 8 10 10 6 7 8 8 8 12 11 11
16 17 20 13 16 14 16 12 18 18 18 17 17 17 18 20 22 27 27 27 26 25 24 24 21 20 20 19 17 16 15 14 12 12 8 8 11 12 10 13 9 3 8 7 8 7 10 9 10
19 21 20 18 17 13 16 8 19 17 17 17 17 17 18 20 23 28 28 27 26 26 25 24 24 22 18 17 18 16 15 13 14 14 12 11 10 12 12 11 7 7 9 9 4 6 9 9 8
22 20 19 16 24 19 18 16 15 15 14 16 19 18 19 20 20 27 28 27 27 26 27 26 25 24 22 20 17 18 16 17 17 15 13 10 10 11 10 10 10 6 11 3 9 9 9 6 2
27 23 18 12 17 21 18 19 18 19 15 15 17 20 20 21 20 23 28 28 29 29 28 26 26 25 25 20 20 20 18 19 16 13 13 10 13 12 9 10 8 7 7 3 4 5 7 5 2
25 24 20 17 25 22 15 17 17 15 20 16 17 18 22 23 22 22 24 30 30 30 30 29 28 26 25 24 20 15 11 11 8 12 10 11 12 11 9 7 7 1 3 7 1 2 3 7 0
24 24 25 20 12 13 19 16 21 19 21 20 19 19 21 23 23 22 24 29 31 31 31 28 28 27 26 25 22 20 17 17 17 14 15 14 12 9 8 7 5 3 5 2 2 3 4 3 4
26 24 24 23 17 20 24 17 11 21 21 22 21 21 22 23 24 24 25 31 31 31 31 31 28 27 26 26 25 20 20 17 13 12 9 9 6 8 8 6 5 3 4 4 2 2 3 2 4
24 22 23 23 19 19 22 17 19 17 19 16 22 22 22 22 24 24 29 32 32 32 32 30 31 29 28 25 25 22 21 21 14 14 12 10 11 9 9 9 8 5 3 4 4 3 4 4 2
28 24 16 19 18 20 22 18 18 18 16 20 18 20 24 23 23 24 26 25 32 32 32 30 30 29 28 27 26 26 22 19 15 11 15 10 10 10 12 11 10 8 7 6 5 5 4 4 4
31 27 19 23 18 18 23 23 21 21 14 9 14 15 20 23 23 25 27 27 31 33 32 31 31 29 29 28 27 25 24 23 21 19 14 14 11 10 10 13 12 11 10 9 8 9 8 7 6
29 28 27 27 23 20 21 26 24 11 14 19 18 20 14 21 23 27 27 31 32 34 35 35 31 31 30 30 27 27 25 25 23 20 21 14 13 13 13 16 18 16 14 12 10 10 10 7 8
34 24 26 22 27 25 22 22 16 19 20 20 17 17 13 17 22 24 25 29 33 36 36 35 33 31 31 29 28 27 27 26 22 20 18 20 18 18 17 17 19 19 18 18 16 13 13 11 10
20 27 23 25 23 21 20 18 20 12 13 20 21 23 16 15 19 22 24 32 36 36 35 36 35 32 32 31 29 28 28 27 27 24 25 23 22 21 22 26 26 22 19 16 14 12 9 11 10
29 28 32 18 28 20 22 18 14 16 17 15 14 12 11 19 18 20 24 27 33 34 37 37 36 36 35 31 30 29 28 30 30 30 29 29 30 29 32 30 25 21 20 19 16 14 13 14 13

GFSSGP_925_spd_006.txt.gz
Wind_Speed
20 20 18 6 4 4 5 4 11 14 9 18 13 12 13 10 4 12 24 23 21 20 18 17 23 24 21 22 22 23 23 22 21 21 20 19 18 18 17 15 14 13 13 12 13 13 12 12 10
20 20 9 6 1 4 1 8 10 15 17 22 19 16 9 13 18 19 20 24 24 22 18 18 21 23 20 21 22 21 20 19 17 17 17 16 16 16 15 13 12 11 11 11 12 11 11 10 9
22 26 4 6 8 5 2 7 12 15 17 12 8 10 6 20 22 21 27 27 28 25 20 19 21 21 21 20 20 19 18 16 15 14 14 13 13 13 13 11 9 8 9 10 10 10 9 8 7
14 9 10 12 17 2 8 14 14 15 23 18 20 13 14 27 26 30 28 28 25 19 19 20 21 20 20 20 20 17 16 14 13 13 12 11 11 11 10 9 7 7 9 9 9 8 8 7 6
20 7 5 7 13 17 16 15 18 12 22 22 26 26 23 25 31 32 29 25 22 19 18 19 20 20 20 20 20 15 14 13 12 11 10 10 9 8 8 7 6 7 7 8 7 6 6 5 4
4 5 9 5 10 7 11 12 19 10 26 21 25 20 12 30 31 32 26 24 21 21 20 19 19 19 19 20 18 15 13 12 11 9 9 9 7 6 5 5 5 5 6 6 6 6 6 6 4
6 5 9 14 9 11 7 8 4 16 20 18 24 20 14 21 27 30 27 22 23 22 21 19 18 18 19 18 17 14 12 11 10 9 9 7 5 5 5 4 4 4 4 5 5 5 6 6 6
8 9 16 16 5 12 8 9 7 12 23 22 23 17 19 22 31 26 25 21 23 23 21 23 20 19 18 17 15 12 11 10 10 9 8 6 3 4 5 3 3 2 1 3 4 5 4 6 7
19 8 9 7 8 14 8 14 8 18 14 22 3 24 29 36 29 25 24 20 13 20 21 21 21 18 19 17 13 11 10 9 9 8 7 6 7 7 6 2 7 4 2 2 6 7 5 2 4
5 6 5 21 5 12 11 13 12 11 13 11 19 26 31 35 31 24 20 20 20 23 19 21 23 24 21 17 14 11 10 8 7 7 5 6 9 5 3 3 7 7 1 2 5 7 7 9 5
9 2 15 23 15 12 10 16 11 17 11 16 25 24 23 28 31 28 25 23 22 23 19 25 22 18 16 19 16 15 13 14 10 9 6 4 3 4 7 6 11 5 3 1 4 3 5 8 8
11 17 17 6 7 12 13 16 11 14 13 20 22 23 23 21 22 26 27 26 27 26 25 24 23 19 12 16 15 18 18 15 16 14 12 8 3 5 2 2 3 5 4 2 2 7 7 5 8
17 21 20 6 8 6 11 15 15 8 19 21 21 24 23 20 21 28 26 29 25 23 27 26 23 21 17 17 15 15 13 11 14 14 12 7 8 4 7 1 1 3 4 7 4 4 5 7 6
18 12 12 7 8 8 13 16 14 13 16 20 21 23 22 22 22 23 26 24 26 25 23 26 27 22 16 16 10 8 11 8 7 7 13 9 6 1 4 4 4 5 3 4 5 8 8 11 12
21 19 8 9 12 8 12 16 11 19 15 20 19 21 21 22 26 21 21 21 21 22 22 25 23 21 22 14 12 9 10 11 10 10 8 7 6 6 5 6 5 3 3 5 6 7 7 11 14
22 19 15 18 17 10 13 14 14 21 16 19 21 19 20 21 25 25 25 23 23 24 23 23 22 24 20 19 16 16 12 12 10 12 11 11 11 9 6 8 8 12 1 2 6 5 4 11 7
21 17 21 20 13 15 15 5 5 18 18 19 19 19 19 18 20 26 27 25 25 22 24 23 21 23 25 22 17 16 19 15 13 13 8 10 9 10 7 9 4 3 1 5 5 5 8 10 8
20 20 18 17 18 18 18 12 10 25 18 17 19 19 19 20 21 27 28 28 25 28 25 25 23 19 26 24 21 20 15 15 14 13 12 10 9 11 8 10 8 5 6 4 3 2 7 6 6
23 20 22 15 11 17 18 12 16 29 20 20 19 18 19 20 20 26 28 28 27 27 27 29 27 24 19 21 19 15 12 13 16 19 16 15 11 10 10 11 7 7 4 4 0 2 5 11 2
27 26 23 14 19 20 18 25 28 29 23 21 21 19 19 20 20 21 28 28 30 28 31 29 30 26 26 19 19 18 19 21 22 20 20 16 12 11 12 9 8 11 4 5 5 1 3 9 4
26 25 22 20 18 23 16 15 23 28 22 18 19 21 20 20 21 21 22 29 29 31 32 32 30 29 27 24 22 21 16 18 15 18 15 16 12 11 13 8 6 3 3 4 6 3 1 6 2
26 24 26 24 13 13 15 11 12 18 21 20 21 19 22 21 21 20 22 27 29 30 32 31 31 30 28 31 24 22 19 13 14 14 20 19 16 14 13 10 10 10 6 3 4 3 3 4 7
26 26 25 24 21 19 20 13 12 24 21 25 22 22 22 21 22 21 23 29 30 29 33 34 33 33 31 30 27 25 18 18 18 20 13 19 15 15 14 12 12 9 4 9 9 5 7 4 4
26 23 24 22 19 17 18 15 19 15 19 19 22 21 21 21 22 22 28 32 32 32 33 35 34 34 33 33 35 24 26 24 22 19 21 19 18 18 15 14 13 11 7 7 8 7 6 5 3
29 23 16 18 17 17 20 21 11 20 23 21 4 12 22 21 21 22 22 23 32 33 34 35 36 35 34 30 33 33 24 27 20 12 19 18 20 20 23 18 18 16 13 13 11 11 10 7 4
27 27 17 21 18 19 22 22 17 24 23 11 16 38 25 24 21 22 24 23 31 35 33 34 37 36 35 33 31 31 29 26 22 20 20 20 19 19 26 25 22 18 18 16 15 13 12 11 10
27 26 27 26 22 18 18 18 23 17 18 18 26 21 18 24 23 23 23 27 31 34 35 35 35 37 36 34 32 31 31 29 25 25 26 21 22 18 23 25 22 22 18 18 17 16 14 9 11
30 19 23 20 25 25 20 23 11 19 16 20 12 19 13 11 21 20 20 23 31 34 36 34 34 36 36 35 33 32 33 34 32 30 28 28 24 25 25 24 24 22 22 21 20 16 16 15 13
18 22 24 21 20 17 17 17 15 16 15 19 19 16 15 12 20 19 20 26 31 32 34 36 36 35 35 35 35 33 34 35 37 28 29 31 29 31 25 28 25 25 24 24 24 20 20 21 19
29 29 27 17 21 19 20 16 17 7 10 10 11 15 13 15 14 15 17 20 29 32 33 36 36 35 37 36 36 37 38 35 34 35 30 34 30 30 35 28 28 27 27 27 27 26 20 20 22

GFSSGP_925_spd_009.txt.gz
Wind_Speed
20 20 14 3 2 2 4 3 1 6 2 4 12 11 11 10 4 6 21 22 23 22 23 24 23 23 25 26 26 25 24 23 23 22 20 19 18 18 17 16 16 15 14 13 12 11 11 9 8
24 21 7 1 1 3 4 3 7 11 13 17 13 12 11 8 10 14 18 28 24 25 22 25 23 24 24 24 25 24 23 22 23 21 19 17 16 16 16 15 14 13 12 10 10 9 9 8 7
24 23 3 2 2 9 5 6 13 18 19 10 6 10 9 10 15 23 28 29 27 23 24 25 24 24 23 23 23 22 21 19 18 18 16 15 14 14 14 13 12 11 10 8 8 8 7 6 5
13 6 6 3 10 8 10 5 11 16 11 12 14 11 11 15 18 22 33 30 30 28 24 25 25 24 23 23 21 20 18 17 15 14 13 12 12 12 12 11 10 9 8 7 7 6 6 5 5
9 4 4 2 8 7 6 23 11 17 14 18 23 16 18 23 29 32 33 30 30 25 27 26 24 24 23 22 19 18 16 15 14 12 11 10 10 10 9 9 8 7 6 6 6 6 7 7 7
3 0 2 8 4 11 7 16 23 23 23 21 24 20 11 32 32 32 28 29 24 23 27 24 23 23 24 22 18 17 15 14 13 11 10 9 9 8 7 7 6 5 5 5 6 7 8 9 9
5 3 8 15 10 14 21 20 17 24 25 17 15 25 17 25 30 29 29 26 24 26 25 24 23 22 22 21 18 16 14 14 13 11 10 8 6 6 4 4 4 4 6 6 5 6 8 9 13
5 3 13 8 5 7 11 7 33 20 17 21 26 11 21 27 33 32 26 28 30 24 23 24 23 23 23 21 18 15 14 13 12 11 10 6 4 3 4 1 2 5 5 6 5 4 4 7 8
4 4 2 12 7 7 8 22 20 17 24 17 4 16 27 37 34 29 26 25 27 26 25 23 24 23 22 21 17 15 13 13 12 11 9 7 4 5 3 0 3 5 4 5 7 5 4 7 9
9 5 15 7 17 6 12 21 14 18 19 11 22 22 34 34 31 25 22 23 23 27 30 25 25 25 22 21 19 15 14 13 12 11 9 7 4 5 2 1 3 2 3 4 5 4 6 11 11
10 5 6 4 12 8 12 14 12 20 16 23 30 28 26 30 28 25 21 23 24 31 28 29 28 27 26 21 19 15 15 13 13 9 7 4 5 8 4 7 8 7 3 5 3 2 4 4 7
11 16 7 10 7 6 13 11 16 15 19 26 30 32 25 24 21 27 24 26 26 28 33 32 28 27 26 26 20 18 18 17 16 15 11 9 5 6 4 2 2 3 1 4 2 2 3 5 6
15 12 13 12 15 7 13 12 17 14 27 26 24 25 26 24 27 31 33 30 32 27 36 32 31 27 25 25 21 19 19 21 20 21 15 9 5 5 1 5 6 4 3 3 2 2 4 5 5
17 14 14 15 14 13 9 13 11 23 28 27 24 19 20 24 27 31 30 30 30 34 36 36 32 30 25 23 21 20 21 18 19 19 19 14 12 4 6 4 1 2 5 3 2 5 3 6 8
16 15 15 13 7 6 12 12 2 22 25 27 24 19 15 15 31 30 33 30 35 38 39 35 34 32 25 25 17 15 10 11 11 11 10 16 13 9 8 5 1 2 3 3 2 2 5 4 9
14 9 7 10 10 8 11 15 18 18 23 24 24 21 18 14 17 29 30 32 37 35 41 39 34 32 28 25 20 18 12 7 10 6 11 13 11 9 7 3 5 8 8 4 1 2 1 5 6
7 10 10 11 9 6 8 8 18 13 21 21 22 21 19 16 15 23 27 33 39 37 40 37 35 36 32 27 22 19 18 12 10 12 7 15 13 10 10 7 5 5 5 3 2 1 0 6 6
9 7 11 12 7 11 8 9 9 11 16 21 21 21 20 19 17 27 31 28 34 36 39 40 35 34 30 27 24 20 19 16 14 13 11 14 14 12 12 10 7 6 7 4 2 3 3 2 6
14 16 17 16 9 10 10 11 12 12 9 8 21 21 22 21 17 27 31 33 30 34 37 37 32 29 33 32 29 24 22 17 21 16 15 15 16 15 15 12 8 8 6 6 5 2 3 3 4
20 19 19 16 12 8 14 16 18 18 15 14 18 21 23 22 20 23 30 33 34 37 39 39 37 28 35 34 30 25 22 19 20 18 19 21 20 16 14 11 9 9 11 10 10 3 3 3 4
22 20 18 12 12 12 16 2 6 8 3 8 12 21 22 24 23 21 26 31 34 36 40 42 41 38 29 29 26 23 22 21 20 21 21 23 25 19 14 12 10 7 8 14 10 7 4 1 0
19 22 21 21 13 8 12 6 6 11 6 6 15 20 22 24 23 23 24 30 37 36 42 42 42 42 36 30 29 28 23 22 24 22 25 23 25 19 17 15 14 12 9 13 10 10 7 4 1
20 13 21 21 13 7 16 4 7 13 19 29 25 23 23 22 23 25 25 38 39 40 42 44 44 43 39 36 31 29 28 29 22 26 25 29 25 21 18 17 15 17 13 10 13 12 9 8 4
17 15 17 17 11 11 12 13 6 11 25 26 24 21 23 22 23 24 35 39 37 37 40 41 41 41 38 40 36 33 32 29 30 25 20 27 28 22 21 19 19 20 17 15 16 12 13 11 8
20 11 12 12 10 8 10 12 9 17 12 25 24 21 19 22 22 21 24 24 35 35 40 39 42 39 39 41 40 35 33 31 30 29 22 29 30 26 24 26 25 22 17 15 13 14 13 13 9
13 18 13 13 13 9 9 13 8 15 13 21 16 22 19 14 21 23 25 27 35 36 38 38 40 39 39 41 39 41 34 37 36 29 23 33 31 31 29 29 27 23 19 18 16 16 16 14 14
14 19 15 6 8 6 8 9 13 15 16 19 16 17 23 20 13 23 23 30 35 37 38 42 39 39 40 38 40 42 43 40 37 33 24 32 29 30 31 31 29 27 21 20 20 18 17 17 16
20 8 13 15 17 18 16 11 12 7 17 15 15 16 19 16 19 19 21 26 36 40 40 42 43 43 40 40 40 41 43 44 36 34 33 26 30 30 29 36 32 28 25 24 23 21 19 20 21
12 17 13 8 15 13 9 16 8 11 12 19 20 23 20 23 25 21 24 31 37 38 37 40 43 41 40 40 39 39 40 40 37 36 36 34 30 29 28 35 33 31 28 26 26 25 23 24 22
24 12 13 8 9 6 9 15 10 17 0 21 26 15 13 10 29 26 23 22 31 37 38 39 39 43 44 43 40 40 38 35 36 38 38 38 36 34 35 35 36 34 32 31 31 31 26 26 27

GFSSGP_925_spd_012.txt.gz
Wind_Speed
17 17 12 2 2 1 3 1 3 5 3 3 3 5 7 9 2 5 23 19 25 23 24 23 23 24 24 24 24 24 22 23 21 20 19 19 18 17 16 14 13 13 12 12 11 10 9 9 9
20 7 3 2 2 2 2 3 1 5 6 13 11 7 8 6 7 13 16 27 26 28 25 26 24 24 24 24 24 23 23 23 19 19 18 17 16 15 13 12 12 12 11 10 10 8 7 7 7
19 10 3 3 3 3 4 0 2 7 11 4 5 9 4 5 14 19 26 28 28 28 27 25 24 25 24 25 24 22 22 22 18 17 16 15 15 12 11 11 11 10 10 9 8 6 5 5 6
13 7 1 4 8 2 6 11 2 7 3 5 14 10 6 14 12 17 32 30 29 27 28 25 25 24 24 23 22 21 21 19 17 15 14 13 12 11 10 10 10 9 8 7 6 5 4 5 7
7 3 3 5 4 5 11 19 13 8 9 11 9 8 11 11 21 34 31 29 29 29 28 25 26 25 24 23 21 19 18 16 14 13 12 11 10 9 9 8 8 7 7 5 5 6 6 7 6
2 2 2 3 4 8 13 19 12 10 14 15 15 13 4 23 30 28 29 30 27 29 28 27 24 24 23 21 20 18 16 15 13 11 10 9 9 8 8 8 7 6 5 5 6 7 7 7 7
3 3 3 4 10 9 10 18 17 20 18 12 14 10 10 20 26 31 34 30 27 29 28 26 24 23 21 20 19 18 16 14 13 11 10 8 7 6 6 7 6 5 5 5 5 7 8 9 10
3 2 4 3 4 5 12 13 20 24 12 20 16 8 16 20 31 35 32 29 28 30 28 26 25 24 23 21 17 17 16 15 14 11 10 8 6 5 3 3 4 4 4 5 5 7 7 7 9
1 4 7 4 2 10 15 17 14 10 18 8 4 14 26 32 30 29 29 27 28 28 27 27 26 26 25 22 18 17 16 15 14 12 11 8 6 5 4 2 0 3 4 4 4 6 8 8 6
6 4 6 6 6 8 20 25 18 12 19 7 22 23 30 30 29 26 25 24 24 27 28 29 28 27 25 23 20 18 17 16 15 14 12 9 6 5 7 4 0 4 6 4 2 4 6 8 6
8 12 16 15 18 20 23 21 16 24 14 27 27 27 26 29 25 26 25 26 27 32 31 30 29 28 27 26 22 19 18 16 15 14 13 12 7 7 8 2 3 6 5 5 2 2 3 4 4
7 16 12 11 3 19 22 21 16 24 12 25 31 32 26 23 21 25 26 26 27 29 31 31 32 31 28 26 23 19 19 19 18 17 15 11 11 10 5 4 6 5 6 5 4 2 1 1 3
8 15 13 13 8 11 13 20 20 16 22 22 25 26 26 22 25 28 31 27 28 31 31 32 32 33 30 27 25 23 23 22 21 18 17 16 12 9 5 5 4 3 6 5 5 5 1 1 3
4 11 12 8 10 9 12 7 10 17 25 25 26 26 23 22 25 24 28 31 29 32 32 36 35 34 32 26 26 25 23 22 21 20 18 19 15 11 10 6 4 6 7 6 6 4 1 2 5
5 7 12 9 11 5 13 6 15 26 30 28 26 24 23 21 28 28 32 32 32 35 38 40 38 36 34 28 27 24 21 22 22 23 20 19 17 11 10 7 5 4 6 6 5 1 1 1 3
5 2 4 11 3 13 11 9 19 26 28 27 27 23 23 22 28 32 34 32 32 35 36 41 37 38 35 31 27 21 16 20 22 21 21 22 18 13 10 7 7 6 7 6 5 4 3 0 2
4 6 6 13 9 9 4 6 18 25 26 26 25 26 22 21 25 32 34 34 35 38 39 39 37 40 36 32 30 23 20 14 15 16 16 24 20 16 11 9 7 5 8 8 6 5 3 3 3
6 4 6 7 8 8 2 11 18 26 24 25 24 22 22 23 26 34 34 32 37 40 42 44 41 40 40 34 31 27 25 19 14 15 17 22 20 18 12 11 10 8 10 10 7 5 2 2 2
6 6 9 16 5 4 13 14 24 27 23 23 22 21 20 22 21 37 31 35 34 38 41 41 38 42 41 36 31 29 29 28 22 18 19 18 21 20 16 13 13 12 12 10 8 6 2 5 1
11 13 18 12 10 2 6 16 18 25 26 26 23 21 22 21 19 21 33 36 37 39 41 40 42 44 42 38 35 31 30 28 28 22 23 20 19 18 17 15 14 15 14 12 12 7 5 5 6
14 16 17 9 9 1 9 3 6 10 12 16 20 23 23 25 23 21 24 31 38 38 42 43 47 47 43 40 35 30 26 26 24 24 26 21 20 21 19 17 16 16 15 14 13 9 11 8 7
11 15 16 13 4 4 4 4 5 8 8 17 22 21 21 23 22 22 25 33 35 41 44 44 43 46 45 42 39 34 28 24 31 29 25 22 20 25 21 19 18 15 13 16 15 13 11 11 7
14 10 12 14 9 4 10 3 7 12 11 13 18 23 23 24 24 23 25 39 43 42 42 46 47 46 43 43 41 39 34 35 30 30 25 22 25 26 24 23 20 18 17 17 16 14 13 11 6
14 7 9 5 7 7 10 12 6 8 22 17 21 20 26 25 24 24 36 39 39 40 40 41 44 44 44 43 42 41 39 36 31 27 26 25 29 29 27 26 24 21 20 19 17 14 12 12 10
9 8 7 7 9 11 10 8 10 13 17 25 25 17 16 24 24 24 23 23 34 38 39 37 40 39 41 45 45 44 42 39 35 32 29 26 28 32 31 30 28 24 24 19 17 17 14 15 14
9 13 11 10 5 6 6 8 7 14 19 26 28 22 17 23 24 26 26 29 37 38 39 39 39 38 40 43 45 46 44 40 36 32 32 28 34 37 33 32 30 27 25 21 19 18 16 16 16
15 6 15 8 3 2 4 6 7 8 12 24 22 18 20 25 26 28 26 33 38 38 40 42 40 41 42 45 45 43 44 40 32 34 30 31 31 36 37 34 33 30 28 24 21 20 18 17 15
12 8 5 1 14 18 6 6 12 8 8 10 23 25 26 26 27 25 24 28 39 41 42 44 45 45 46 46 45 43 44 40 36 36 33 29 29 36 37 36 36 35 32 27 24 23 20 19 18
10 12 3 4 7 11 5 17 8 10 9 10 19 27 29 28 25 25 22 30 38 39 38 41 42 42 40 42 42 38 39 38 38 41 38 36 31 37 37 40 39 38 35 31 28 25 22 21 22
24 15 12 10 11 9 18 24 2 10 11 9 15 21 27 26 21 21 22 21 29 36 36 41 40 42 44 43 40 39 37 36 40 45 44 39 38 36 41 41 42 40 38 35 32 29 27 25 25

GFSSGP_925_spd_018.txt.gz
Wind_Speed
16 16 15 4 2 1 2 2 2 3 3 3 5 3 6 4 1 2 16 21 29 25 22 21 22 21 22 24 25 22 23 21 20 20 18 16 15 14 13 12 12 11 11 11 10 9 9 9 9
19 16 4 2 1 2 2 3 1 2 6 11 10 7 4 3 3 9 13 27 27 25 22 23 21 23 23 24 22 21 20 19 18 17 16 15 13 13 11 11 10 10 10 9 9 9 8 7 7
18 5 1 2 2 2 2 3 4 10 8 3 5 5 3 4 7 15 16 29 27 23 23 22 23 23 22 22 20 19 18 17 17 16 14 13 12 11 10 10 9 10 9 8 8 7 8 5 5
7 2 1 2 2 3 2 3 4 8 5 7 10 7 4 4 14 11 32 29 27 24 23 22 23 22 21 20 19 18 17 17 15 14 13 11 10 10 9 8 8 8 8 8 7 7 9 5 3
4 2 3 2 4 1 3 4 5 4 4 6 2 4 5 8 8 26 27 29 28 26 24 23 22 22 20 19 18 17 16 15 14 13 12 10 9 8 7 6 7 8 7 8 8 9 8 6 6
2 1 3 4 3 2 4 3 3 4 5 7 8 7 4 16 26 25 27 29 28 28 24 24 21 21 20 18 18 17 15 13 12 11 10 9 8 8 7 6 6 6 7 8 10 10 9 7 8
4 2 3 4 3 3 4 7 2 4 7 5 13 5 4 12 22 25 27 29 28 27 25 24 22 20 19 18 17 15 13 11 10 9 9 7 6 6 6 5 6 6 7 9 10 11 9 9 8
3 3 3 4 4 4 5 4 6 7 3 11 8 6 8 15 24 25 26 28 27 26 25 25 24 22 21 18 16 15 13 11 9 9 7 6 5 4 4 4 5 5 6 7 8 9 6 6 6
2 1 3 4 3 3 6 5 5 6 12 4 6 5 13 28 27 24 23 23 25 25 25 24 24 23 22 21 17 15 13 12 10 8 7 5 4 4 3 2 2 4 6 6 7 9 7 4 5
4 3 6 5 4 3 6 6 9 4 11 3 4 13 30 27 26 24 22 21 23 24 27 26 26 25 24 22 20 17 15 14 12 10 9 8 5 3 3 2 2 3 4 5 5 5 6 4 3
6 6 5 5 6 5 7 9 6 10 10 9 17 21 25 28 24 22 23 23 26 27 29 30 28 26 25 24 22 19 18 16 15 13 12 9 6 5 5 2 2 4 4 4 3 2 2 3 3
4 10 9 6 4 4 7 9 7 12 5 7 17 27 23 22 20 24 24 25 25 26 31 32 30 30 28 26 24 21 20 18 16 15 13 11 7 5 3 4 4 5 6 5 4 2 2 1 2
6 9 6 13 7 10 7 13 9 13 3 14 18 22 21 19 22 24 25 24 26 28 31 32 32 33 31 29 25 23 21 19 17 17 15 13 10 7 5 2 6 6 6 6 4 4 2 2 2
5 12 16 9 9 5 14 12 11 10 11 16 21 19 20 20 24 23 24 25 26 30 32 33 33 32 31 31 28 25 22 20 18 18 16 14 11 8 9 8 7 6 6 5 4 1 3 2 2
6 5 6 8 6 7 9 6 18 9 16 18 18 18 18 18 25 26 28 27 30 31 32 34 34 33 32 31 29 26 23 21 20 18 17 15 13 9 9 10 8 7 7 6 3 2 2 2 2
3 2 4 3 6 3 12 12 18 15 18 19 19 17 17 18 25 27 28 29 29 32 32 34 34 34 33 32 30 28 25 22 20 19 19 19 16 14 12 13 11 8 7 7 5 3 3 2 1
3 5 6 4 5 4 9 7 17 18 19 17 19 18 17 16 20 26 29 29 31 34 33 33 33 34 35 33 31 29 26 23 21 20 20 19 19 17 16 14 12 11 10 9 8 4 1 0 3
5 4 4 4 1 5 12 6 7 19 20 20 19 17 18 18 22 28 29 29 30 35 35 33 33 34 34 34 32 29 26 23 21 21 24 22 23 21 17 14 13 11 8 8 7 3 2 1 2
5 4 4 1 4 3 8 4 11 17 14 17 19 19 19 22 21 25 27 29 28 31 35 38 37 37 34 34 31 31 29 26 24 19 17 17 19 21 22 18 15 12 9 8 6 4 3 2 2
5 5 8 3 6 2 6 7 11 17 23 23 22 20 22 19 15 22 27 29 31 34 38 39 42 41 40 37 36 29 31 29 27 21 18 18 18 20 24 22 18 13 13 10 9 6 4 4 4
7 11 5 4 3 2 3 5 4 14 6 14 16 16 18 19 19 18 23 32 33 35 38 41 46 45 44 41 35 29 25 28 28 27 24 22 21 20 24 23 19 15 14 13 11 9 7 6 6
8 8 6 7 4 4 4 5 5 7 18 18 15 18 19 19 17 16 21 26 34 39 40 42 39 40 42 41 35 34 28 25 29 32 31 26 22 21 23 23 21 19 15 14 13 11 11 7 9
8 9 9 5 5 4 5 2 6 9 11 16 17 19 21 22 19 20 21 34 39 37 39 42 43 44 42 44 41 39 33 30 31 33 33 31 28 24 24 23 23 22 17 15 15 15 14 11 12
7 4 5 5 4 5 10 8 5 7 14 19 16 19 21 21 22 21 30 31 32 33 32 34 38 44 44 44 45 41 35 30 32 31 30 31 29 28 27 24 24 23 19 16 15 15 15 12 13
6 8 2 2 3 10 8 8 14 8 16 17 23 24 24 22 21 21 20 22 32 34 36 37 37 38 41 44 44 44 42 39 39 37 33 31 29 29 28 25 25 25 23 19 17 17 17 15 14
8 9 6 8 5 6 6 9 6 13 10 17 19 24 22 22 22 24 25 25 33 36 37 37 39 41 40 42 44 46 43 39 40 40 38 33 34 33 30 27 26 26 25 22 20 19 19 17 16
6 10 9 4 1 2 5 7 5 6 10 8 17 13 15 20 22 24 25 30 34 36 40 43 41 41 41 43 44 42 43 40 40 41 41 37 34 31 31 29 27 27 27 25 23 22 22 19 17
10 8 4 1 7 6 4 5 6 7 13 12 9 13 16 18 20 21 21 27 35 39 41 41 44 44 43 43 42 42 44 46 44 43 43 41 37 34 31 29 28 28 29 28 26 25 24 21 20
3 6 3 5 6 6 1 7 8 10 12 13 15 15 16 16 18 20 19 29 37 37 35 40 41 40 39 39 39 39 39 40 40 41 46 43 40 37 33 31 30 29 32 30 29 28 26 25 22
22 15 9 6 10 3 4 9 4 8 11 12 11 11 13 11 15 17 19 22 28 35 38 37 40 40 43 42 41 42 41 40 40 44 46 44 41 39 36 34 33 31 32 34 32 31 30 29 26

GFSSGP_925_spd_021.txt.gz
Wind_Speed
16 15 10 2 2 2 2 1 2 7 5 2 8 3 3 5 1 3 14 14 24 24 22 21 22 23 22 23 22 22 21 19 18 17 15 13 13 13 12 11 10 10 10 8 8 7 5 6 7
17 14 4 1 1 2 1 2 4 2 6 13 11 8 3 3 4 11 14 25 25 23 21 21 22 23 23 24 23 20 18 18 17 15 14 12 12 11 10 10 10 10 8 8 8 5 5 4 5
16 8 2 2 2 2 2 2 6 10 11 5 4 5 3 5 8 17 21 28 25 22 20 21 21 23 23 23 21 19 18 17 16 14 13 12 11 10 10 10 10 8 7 7 6 6 5 5 3
9 4 1 3 2 0 1 6 13 11 5 5 9 7 5 1 19 12 29 26 24 22 21 23 22 22 22 22 19 18 17 16 14 13 12 11 10 9 9 9 8 8 8 6 6 6 7 5 4
5 2 2 4 3 3 5 8 11 7 5 7 2 5 6 11 11 29 26 26 24 23 21 23 23 22 22 20 18 17 16 14 13 12 11 10 10 8 8 7 8 8 8 7 8 9 9 9 9
2 2 2 4 4 5 6 10 10 4 6 8 8 11 5 10 22 28 25 24 24 24 23 22 23 21 22 19 17 16 15 13 12 11 9 9 9 8 7 7 7 7 7 9 10 9 9 10 10
1 2 3 5 4 0 5 11 8 6 6 4 18 8 6 13 25 24 24 22 23 22 23 22 21 19 19 18 17 15 14 12 10 9 8 7 7 7 6 6 6 6 8 10 9 9 9 9 10
2 1 3 3 4 3 6 5 8 8 4 14 11 7 9 17 28 23 23 22 22 21 22 21 21 20 18 16 16 14 12 10 8 8 7 6 5 4 4 4 4 6 8 8 7 7 7 8 8
1 3 3 3 2 3 9 5 7 7 13 5 8 6 17 30 28 25 24 22 22 21 21 21 21 20 18 16 15 12 10 9 7 5 5 5 3 2 1 1 3 5 5 7 7 7 6 6 7
4 3 4 3 4 5 8 9 11 7 13 6 7 13 27 31 29 28 27 26 25 24 23 22 21 20 19 16 14 12 10 8 7 6 5 3 3 3 1 1 1 4 5 6 5 4 4 4 4
7 5 6 4 3 5 5 9 8 10 10 12 17 21 27 29 28 27 26 26 27 25 23 23 22 20 19 17 15 12 11 9 9 8 6 5 3 3 3 1 1 2 3 2 2 1 2 2 1
6 12 11 5 4 2 3 8 8 13 1 13 16 23 26 25 26 29 28 27 27 25 24 23 22 20 19 16 15 14 13 11 10 9 10 8 5 3 2 3 4 3 3 2 2 1 4 2 3
17 11 10 12 13 13 7 15 9 16 8 12 20 23 25 22 26 26 25 23 24 25 25 24 23 21 19 18 15 15 13 12 10 10 11 10 6 5 3 2 1 2 4 4 4 5 3 3 3
7 9 13 9 12 8 10 10 7 9 11 15 20 25 25 25 29 26 26 25 25 24 25 24 23 22 20 19 18 16 13 12 11 11 11 12 8 7 5 5 4 3 4 5 5 3 5 6 5
11 12 15 11 6 6 8 7 16 10 16 17 18 20 23 22 28 29 30 28 27 25 24 24 23 23 22 21 20 17 15 13 12 12 14 13 11 9 6 6 7 6 7 6 3 1 4 5 3
4 5 9 6 7 5 12 16 14 16 19 18 19 19 21 24 29 29 27 27 26 24 25 24 23 23 22 21 19 18 15 14 13 13 14 15 13 10 9 8 8 7 7 4 4 3 3 3 3
8 9 11 11 9 3 12 12 6 20 19 20 21 22 21 22 26 29 29 28 27 25 25 25 24 23 23 21 20 19 16 16 14 13 14 16 15 14 13 12 9 9 7 5 5 2 2 2 2
11 13 12 13 5 11 14 16 3 19 21 21 21 22 22 23 26 30 29 28 27 26 24 24 24 24 23 21 20 17 17 17 15 15 15 16 16 17 14 14 12 9 7 6 4 2 1 1 2
9 17 12 11 12 7 11 12 11 15 18 19 21 21 22 24 24 28 29 28 27 27 26 26 26 27 25 25 23 21 20 18 17 17 20 18 20 20 19 14 14 10 8 6 5 3 3 2 3
19 20 15 8 6 5 6 10 9 16 22 24 22 23 24 21 21 24 29 30 31 31 30 29 29 29 30 26 25 21 21 19 19 18 19 18 18 17 16 18 14 12 8 9 7 6 4 2 4
24 24 19 12 1 4 7 12 7 10 16 17 20 21 22 23 24 23 28 32 32 32 33 33 34 33 30 27 23 18 14 14 16 18 17 18 17 16 16 18 17 14 11 9 8 8 7 3 4
23 20 17 15 9 13 5 12 7 10 16 16 19 21 23 24 22 21 26 32 35 35 33 34 33 33 30 30 26 27 24 22 23 21 20 18 20 19 18 18 19 18 11 10 9 10 9 6 7
17 12 17 14 13 10 15 9 13 4 11 18 21 23 24 25 23 24 25 36 38 33 33 33 33 34 33 34 33 30 28 25 20 21 21 25 23 23 21 20 19 18 15 13 11 11 11 9 6
12 9 8 4 8 15 20 13 17 13 15 14 17 22 23 24 25 24 32 31 32 32 31 30 31 34 34 34 35 33 30 27 22 21 20 21 22 22 25 23 21 18 17 16 12 11 11 11 8
22 16 7 10 12 16 13 14 20 11 16 19 18 22 24 25 24 24 24 26 31 33 36 34 33 34 35 36 35 36 35 32 31 28 24 21 20 22 23 26 24 19 20 18 14 12 11 13 11
26 22 9 14 13 12 7 14 12 17 18 18 17 18 20 22 24 26 25 28 32 35 36 37 36 37 37 38 39 39 37 34 34 31 27 25 23 21 21 25 24 23 20 19 18 14 12 13 12
15 24 23 7 2 5 14 16 10 8 18 17 19 16 17 21 23 27 26 30 33 35 39 41 40 39 38 39 39 39 38 37 35 33 33 27 26 21 21 25 24 23 21 21 21 17 16 16 14
15 18 11 12 14 12 9 9 13 18 19 19 19 18 18 19 19 22 23 29 35 39 40 39 40 41 42 40 40 38 39 39 38 32 33 31 28 30 22 25 24 23 23 21 23 19 19 19 16
10 19 10 11 9 8 8 10 7 14 18 20 21 20 20 19 19 20 21 30 35 33 33 37 38 40 39 41 41 40 38 39 38 35 34 35 32 32 29 28 25 25 24 23 25 24 20 22 20
24 18 21 11 10 12 9 8 3 13 12 15 18 16 13 14 16 16 18 23 27 33 34 38 39 39 43 43 40 42 39 38 38 39 38 38 37 36 36 32 29 26 24 25 27 28 23 25 23

GFSSGP_925_spd_024.txt.gz
Wind_Speed
17 16 11 6 3 5 1 5 1 8 6 7 7 2 8 8 4 4 21 19 26 26 27 24 24 21 19 17 16 16 16 15 14 13 12 12 11 10 9 10 10 11 10 9 8 7 7 6 5
18 14 6 3 4 3 5 3 7 6 8 12 10 7 7 4 6 15 18 30 29 28 24 24 23 22 20 19 18 18 16 15 14 13 11 11 10 10 9 10 11 10 10 9 8 7 6 4 4
16 12 3 3 5 3 5 3 7 10 10 7 5 9 4 5 14 21 26 30 30 26 25 23 23 22 21 20 19 17 16 15 13 12 11 10 10 9 10 11 10 8 9 8 8 8 6 5 4
9 3 4 4 3 7 5 6 10 10 6 4 7 8 9 5 17 15 31 31 28 26 25 25 23 22 21 19 18 17 16 14 13 11 10 10 9 8 10 9 8 8 8 8 8 8 8 7 6
9 3 4 6 11 7 4 9 7 7 7 8 5 8 8 14 16 32 30 30 28 26 25 24 23 23 21 18 17 16 15 13 12 11 10 9 8 8 8 9 8 8 8 9 10 10 10 10 8
5 5 7 6 9 7 5 8 6 3 7 8 8 13 7 16 29 30 30 27 27 25 26 24 22 22 20 17 17 16 14 13 12 10 9 9 8 8 7 8 8 8 8 9 11 11 10 10 10
8 6 4 3 6 7 4 5 6 5 5 6 12 12 12 21 29 30 28 25 26 25 26 24 22 20 18 17 16 15 13 12 11 10 9 8 8 7 7 7 7 7 8 9 9 10 10 10 11
5 5 3 2 5 11 5 6 2 4 7 13 12 8 13 25 30 29 25 24 25 24 25 24 23 21 17 15 15 14 12 11 10 8 7 7 6 6 6 7 6 7 8 7 8 8 8 8 9
4 6 3 6 2 7 8 5 6 5 12 7 7 9 24 32 30 29 26 26 23 24 25 25 23 21 18 16 15 12 11 9 8 6 6 5 4 3 3 3 6 6 6 7 8 8 8 8 10
8 8 5 4 6 8 4 5 10 7 12 13 9 16 31 33 30 29 27 27 28 27 26 25 23 22 19 17 15 12 10 8 7 5 5 4 3 1 2 2 4 6 6 5 4 4 3 1 4
8 9 5 5 3 6 4 7 9 8 11 14 15 21 27 30 28 28 27 27 28 27 26 25 23 21 20 17 15 13 11 9 8 7 5 4 2 2 1 3 3 3 4 7 3 2 4 4 8
10 12 8 1 2 1 3 5 9 11 6 14 17 23 26 26 25 28 28 28 27 27 25 24 23 22 20 17 16 13 11 10 9 8 7 5 3 2 1 2 0 3 2 2 0 6 3 3 2
19 11 8 9 11 10 7 6 4 11 7 16 19 23 25 23 26 27 26 25 26 26 25 24 23 21 20 17 15 13 11 11 9 8 7 6 4 2 1 1 1 2 2 2 2 2 2 1 0
11 16 12 9 9 10 9 8 11 11 14 17 20 23 24 25 28 27 26 26 26 26 25 24 23 22 20 18 15 13 12 10 10 9 8 8 5 3 2 2 1 1 1 3 3 2 2 3 3
16 13 14 14 11 8 8 10 13 9 16 19 20 20 22 24 29 28 29 27 27 27 25 25 24 22 21 19 17 14 13 11 11 10 9 9 7 5 3 3 2 2 1 2 2 2 3 4 3
16 17 16 17 16 11 11 8 18 16 18 19 19 20 21 24 28 29 27 27 26 24 25 25 24 23 22 20 18 16 14 13 12 12 11 11 9 8 6 2 3 3 1 2 1 2 5 2 1
14 15 20 16 13 7 13 10 12 16 18 18 19 19 21 21 26 29 28 28 26 25 24 25 24 23 23 21 19 18 16 14 13 13 13 12 12 10 8 6 5 4 3 1 2 1 2 3 3
20 20 17 16 16 15 14 14 8 14 17 17 18 18 20 21 25 30 29 28 27 25 24 24 24 23 23 20 19 18 17 16 15 14 14 13 12 11 10 9 5 5 3 1 2 1 2 2 3
18 19 20 16 13 11 13 13 7 11 17 17 18 19 20 22 23 30 30 30 28 26 26 26 26 26 25 24 23 21 21 18 17 16 15 14 12 11 11 11 6 6 5 1 4 3 3 3 3
21 18 22 15 9 9 15 14 12 12 16 16 18 20 21 20 21 25 30 31 31 29 28 27 27 27 28 25 23 21 20 19 18 17 16 16 14 13 13 12 9 9 4 4 4 4 3 2 5
23 24 21 15 12 15 16 17 14 12 13 15 18 19 20 22 23 23 28 32 31 32 31 30 29 28 27 24 22 19 18 17 19 19 18 17 15 13 13 11 10 9 7 6 5 5 4 2 4
25 25 21 20 17 15 15 15 18 21 16 16 18 19 21 22 23 22 25 31 34 35 32 30 30 29 26 27 25 25 23 21 20 20 19 18 16 15 13 11 10 11 8 6 4 5 5 5 4
22 18 20 21 19 18 23 13 16 12 16 18 19 20 21 22 24 24 24 34 34 32 32 31 30 30 28 28 27 27 24 22 18 19 18 19 17 17 15 13 11 11 10 8 6 6 7 6 5
15 16 14 15 17 20 24 21 19 19 18 18 17 18 20 23 25 25 30 30 32 32 31 31 32 32 32 32 32 28 26 24 21 20 20 20 20 19 19 17 14 13 12 11 9 9 9 9 8
22 17 9 12 17 20 21 20 19 11 20 20 18 18 19 22 22 24 24 25 31 34 34 32 32 33 34 35 33 34 31 28 25 21 22 18 19 20 21 21 18 17 15 13 12 11 11 12 11
27 23 12 16 14 17 19 22 21 25 22 9 20 18 18 20 21 23 25 29 33 37 38 37 35 34 34 35 36 34 33 31 29 27 25 22 21 19 18 21 22 21 18 16 15 14 13 13 13
25 25 27 6 5 9 17 19 18 10 18 24 22 16 16 19 22 25 26 32 34 36 37 39 38 37 37 37 35 36 35 35 33 31 28 26 22 19 19 21 23 22 21 19 17 17 16 16 15
20 25 22 15 17 18 13 19 12 22 21 19 22 22 19 20 22 21 22 29 36 38 40 41 41 41 41 39 38 37 37 36 36 31 31 28 28 26 21 23 23 23 22 21 21 19 19 18 18
22 19 23 18 17 13 12 11 15 17 16 21 20 20 20 19 19 20 21 28 32 33 35 39 39 39 38 40 40 38 38 38 36 35 34 34 31 28 27 26 24 25 24 24 23 23 21 21 20
29 23 27 14 23 19 14 5 4 7 15 17 19 18 18 18 16 15 17 19 25 31 34 38 41 41 43 42 40 41 39 39 38 38 38 36 35 34 31 29 27 26 27 27 26 26 25 25 23

GFSSGP_925_spd_027.txt.gz
Wind_Speed
17 15 12 7 3 6 4 10 5 12 8 10 9 12 14 14 11 11 34 29 37 31 20 15 16 15 14 14 16 16 14 13 12 12 13 12 13 13 13 12 12 11 11 11 9 8 8 7 7
18 15 6 4 4 2 4 13 10 8 17 11 9 9 13 6 14 25 25 36 36 28 21 21 19 17 15 15 16 14 13 13 12 12 12 11 12 12 12 11 10 11 10 10 8 7 6 5 5
16 14 3 4 2 3 6 13 6 13 11 7 12 12 5 9 25 29 32 38 31 26 25 23 20 16 16 15 15 14 13 12 11 12 10 11 11 11 11 10 10 10 9 9 8 7 6 5 5
12 5 6 7 10 12 13 11 10 12 10 6 12 15 11 16 16 27 36 34 34 26 26 23 20 18 17 16 15 13 13 12 11 11 11 11 10 10 10 9 9 9 9 9 9 9 8 7 6
6 5 6 7 13 10 14 13 6 6 9 9 11 13 13 13 19 35 34 31 28 26 24 23 21 21 19 16 15 13 12 12 11 10 10 10 9 9 9 9 9 9 10 10 10 10 11 10 7
5 1 4 5 12 10 12 9 18 6 10 8 19 18 9 15 31 33 32 29 27 25 26 22 21 20 18 16 14 13 12 12 11 10 9 9 8 8 8 9 9 9 11 11 11 10 10 11 12
17 6 9 21 13 14 10 8 8 9 9 8 13 14 14 21 31 32 28 28 25 27 28 24 22 18 17 15 14 13 12 11 10 8 8 9 8 8 8 8 9 9 9 9 9 9 9 10 10
13 12 15 12 11 17 8 9 10 5 15 13 18 11 20 26 32 32 26 27 25 26 26 25 22 19 17 14 14 12 11 10 9 8 8 8 9 10 10 10 7 7 7 7 7 7 7 8 11
12 11 8 4 7 17 8 15 7 11 12 9 4 20 28 33 32 30 27 25 26 23 26 26 24 20 19 16 14 12 11 9 8 6 7 7 8 5 9 6 6 7 7 8 7 4 3 4 5
15 1 11 8 10 11 7 11 10 12 12 14 12 24 34 34 31 28 24 25 24 21 28 27 24 22 20 18 15 12 10 8 8 7 6 4 8 3 7 6 6 6 6 4 6 2 4 4 4
17 9 25 7 12 7 15 10 8 14 12 15 18 26 28 31 32 31 27 27 27 27 28 25 25 22 20 19 15 13 11 11 7 4 5 1 3 3 2 8 6 7 8 9 5 2 3 6 9
19 8 23 7 8 4 3 10 10 8 15 18 19 25 27 26 23 28 30 31 30 27 26 26 24 22 20 16 16 14 12 9 9 8 5 1 1 3 2 5 4 2 4 5 4 3 4 5 2
19 19 10 6 7 6 2 3 4 9 8 19 20 24 25 24 26 27 27 28 28 27 25 26 25 22 20 15 16 13 11 10 9 7 7 6 5 3 2 1 1 2 2 4 4 3 3 1 1
14 17 14 10 11 12 10 9 8 11 13 20 22 23 24 24 26 27 26 27 26 26 26 25 25 23 20 18 14 13 12 10 9 9 8 7 4 4 4 4 5 4 4 3 4 2 3 3 7
19 10 16 16 14 9 9 10 15 18 17 21 22 22 23 24 29 27 28 28 28 27 26 25 24 23 22 20 16 15 14 12 12 9 8 8 6 4 3 1 2 6 1 1 2 4 3 1 5
19 19 18 19 19 15 12 13 16 19 20 20 21 21 22 24 27 29 29 28 28 27 27 26 26 25 23 21 19 17 14 14 12 11 10 10 8 5 4 1 1 3 1 2 1 3 4 1 3
20 18 24 21 22 18 17 16 18 18 20 20 19 20 20 22 25 30 30 28 29 27 27 27 25 25 24 22 19 18 16 14 13 12 11 12 10 8 6 3 0 3 2 1 0 2 5 4 3
22 24 21 23 18 14 18 19 15 19 20 19 20 20 21 22 25 31 30 29 28 28 27 27 27 24 25 23 21 19 18 16 14 14 13 13 12 11 9 8 5 4 4 2 1 3 4 3 1
22 21 24 18 23 22 18 18 15 17 17 17 20 20 21 21 23 31 31 30 29 30 29 28 27 25 25 25 24 22 21 18 17 15 14 14 14 12 11 6 5 5 3 3 4 5 3 4 3
26 26 24 22 13 11 15 20 17 14 15 15 19 20 21 21 22 25 32 32 32 31 30 28 28 26 27 26 23 21 19 19 18 16 16 16 15 13 12 9 8 7 5 6 6 5 5 4 6
28 28 24 20 18 19 14 19 17 16 17 16 17 20 20 23 24 24 28 33 33 33 31 31 30 28 29 25 23 19 18 16 18 18 18 18 17 15 14 11 10 9 8 8 8 6 6 7 6
27 26 23 18 19 17 21 16 20 17 18 19 19 20 21 22 23 24 25 32 36 35 33 31 31 31 30 29 25 25 23 22 20 19 19 19 19 16 15 14 12 13 11 12 8 8 8 5 8
24 20 24 23 20 19 22 19 18 24 25 21 20 21 22 22 23 25 26 35 36 34 34 33 32 31 30 31 27 27 24 22 20 19 19 20 20 18 17 16 14 14 12 10 10 8 8 7 8
21 16 19 22 19 20 25 21 19 17 20 24 24 22 22 22 24 24 31 31 32 34 34 33 32 32 32 32 35 26 28 24 21 22 20 19 20 19 20 19 17 16 15 11 10 11 10 10 8
18 19 13 16 18 17 25 24 20 20 19 19 20 23 20 19 21 24 24 25 32 34 35 33 35 35 36 33 32 30 27 29 20 18 21 20 20 21 24 25 19 19 17 14 14 14 11 11 11
27 25 16 21 18 17 24 27 24 25 15 18 20 20 21 21 20 23 26 27 31 34 36 35 35 35 35 36 34 34 30 29 30 26 23 24 22 21 18 28 24 22 20 18 16 16 14 14 13
23 26 28 22 22 15 20 28 24 21 26 20 15 22 21 23 20 23 26 31 32 35 37 39 38 40 39 40 37 35 36 35 31 31 32 23 23 20 20 21 22 23 23 21 20 19 18 15 16
25 25 22 16 20 19 14 15 18 20 16 26 25 17 23 20 22 23 23 29 35 38 39 39 39 40 41 39 39 39 38 37 35 30 29 31 26 25 17 24 23 24 25 24 23 21 19 18 17
26 22 25 20 18 13 11 11 17 19 19 18 20 25 21 19 21 21 22 30 35 36 36 39 39 37 38 41 41 40 40 39 37 36 33 33 30 27 31 23 26 26 27 26 26 25 21 23 21
26 29 27 17 24 17 12 1 9 9 10 19 20 18 23 21 20 21 22 22 30 35 37 38 39 40 41 41 40 41 39 40 40 40 39 35 35 32 28 29 28 28 28 28 28 27 26 23 24

GFSSGP_925_spd_030.txt.gz
Wind_Speed
15 13 10 2 2 2 3 7 0 5 12 8 12 15 13 11 5 6 20 30 33 21 18 15 16 14 14 16 16 16 17 16 17 17 15 14 15 15 16 16 15 13 12 11 11 11 10 9 9
16 14 5 3 3 2 3 10 13 7 7 17 17 17 15 16 13 20 20 28 26 22 20 16 18 14 14 15 16 15 16 16 16 15 14 14 14 14 14 14 13 12 12 11 10 9 8 8 7
17 12 2 3 1 3 2 3 2 15 15 13 17 13 8 8 20 22 24 32 28 21 22 20 18 14 15 14 15 15 15 14 14 13 13 13 13 14 13 13 13 12 11 11 10 9 7 6 6
7 3 5 3 10 12 7 9 13 18 14 16 17 16 13 24 19 19 34 33 28 20 24 22 19 14 15 15 14 15 14 13 13 12 12 12 12 12 12 12 13 12 12 11 11 9 9 7 7
10 5 4 8 7 7 15 13 7 6 13 19 22 16 15 19 24 37 34 31 25 22 21 23 18 16 15 15 14 14 12 11 12 11 11 11 11 12 11 12 13 13 13 12 12 11 11 9 7
3 2 4 6 16 13 16 13 13 8 18 21 22 23 9 30 36 35 32 30 25 24 22 19 19 18 16 14 14 13 11 11 10 10 9 9 9 10 11 12 13 13 13 12 11 10 10 11 12
5 1 6 14 17 14 17 14 10 18 14 19 21 19 15 22 35 34 32 30 28 25 24 21 18 17 15 14 13 12 10 10 9 8 8 8 8 8 9 12 13 12 11 10 10 8 7 8 9
11 6 5 11 5 7 17 15 12 15 17 25 25 10 21 26 37 33 31 28 24 27 25 23 20 17 15 13 13 11 9 9 8 7 7 8 7 9 8 8 11 10 9 9 7 6 4 4 2
20 9 12 6 14 12 5 22 16 12 17 14 12 26 31 36 34 31 27 24 26 27 26 23 21 19 18 15 13 11 9 8 8 6 5 3 6 4 6 6 8 9 7 5 5 5 6 4 5
17 3 6 9 10 14 14 5 14 14 16 22 27 29 37 35 34 27 25 21 24 23 28 26 24 21 18 15 14 11 10 9 8 8 6 9 9 5 6 6 7 8 5 3 2 2 2 7 2
20 6 13 23 22 8 15 15 14 17 17 27 28 30 29 32 27 26 24 24 25 25 31 30 27 24 19 20 16 14 13 15 9 15 7 4 10 11 9 7 9 8 9 5 5 1 2 2 8
17 16 17 14 23 8 7 18 3 13 10 26 28 28 31 28 21 29 24 24 25 28 29 32 30 23 21 23 17 18 18 13 17 11 2 9 1 6 10 4 7 8 4 4 2 3 6 7 7
21 22 22 12 26 6 23 28 4 3 22 24 27 27 29 26 29 32 32 28 29 30 28 31 31 26 19 19 16 19 16 10 13 13 7 5 5 2 6 7 6 15 8 10 7 1 3 4 7
20 18 17 21 30 9 6 20 24 17 23 24 26 27 25 26 30 32 36 36 33 32 32 30 31 28 16 14 12 12 12 11 7 11 12 10 3 4 5 5 5 6 7 5 3 2 4 8 9
21 19 16 14 14 12 12 12 15 4 25 25 25 24 23 23 28 26 35 32 30 27 25 33 29 27 21 19 9 9 8 9 9 4 9 7 5 5 4 3 10 6 5 8 5 5 6 1 8
20 20 18 18 18 13 11 13 21 25 24 25 25 23 23 23 25 28 27 28 29 28 28 32 27 26 27 20 15 12 12 12 10 11 8 8 7 3 3 1 7 6 1 3 3 4 3 8 8
21 19 22 21 20 19 18 15 14 23 16 25 23 22 22 20 22 27 28 27 28 27 28 26 25 30 28 21 18 18 16 13 13 9 11 11 10 7 5 2 2 4 1 3 4 3 7 3 3
22 21 19 22 19 22 20 13 11 16 16 25 25 24 21 23 23 29 30 30 30 30 30 27 27 27 30 25 22 20 18 16 14 11 11 14 13 10 8 5 2 1 2 3 3 2 3 5 2
23 21 24 20 22 24 22 19 18 13 20 19 22 23 23 23 23 31 31 31 30 31 32 32 29 25 31 26 24 20 20 18 17 13 12 14 12 13 11 5 7 6 3 3 5 3 1 4 2
28 25 24 23 23 19 22 20 18 23 32 32 22 21 24 23 23 24 32 33 31 34 34 34 31 30 30 27 25 23 21 19 18 17 15 15 13 14 14 13 7 9 9 5 6 4 5 7 4
28 27 24 22 22 19 19 21 19 21 23 11 27 28 25 25 24 23 27 32 33 35 35 36 35 31 31 27 25 23 19 19 22 20 17 20 17 18 15 13 11 6 7 8 7 6 5 1 5
26 27 25 25 21 18 20 14 17 19 19 19 15 18 14 25 22 22 22 29 34 34 36 37 36 33 32 30 26 24 21 20 18 22 20 21 21 20 18 18 12 11 11 13 11 10 7 6 10
24 24 25 25 23 19 20 16 14 22 22 21 24 23 35 23 25 25 24 32 33 34 35 36 36 34 31 35 26 29 26 22 24 20 21 24 25 23 21 18 17 15 14 13 11 12 11 7 7
24 22 23 23 18 17 23 19 19 18 22 20 22 21 23 21 25 26 31 33 31 33 35 34 35 34 33 33 38 27 29 25 23 24 23 23 22 25 22 18 19 18 15 12 14 13 10 11 6
22 21 14 14 16 16 21 21 15 20 25 21 22 22 20 23 22 24 26 25 33 34 37 37 38 37 38 35 38 37 29 36 25 27 26 23 25 24 27 25 21 21 19 16 16 15 14 13 10
28 25 15 22 17 17 23 25 21 23 19 26 26 24 23 22 23 25 27 26 34 35 38 39 40 41 40 38 36 37 29 32 36 23 25 26 23 26 25 28 28 25 22 21 18 17 16 15 14
23 25 24 21 20 16 18 25 22 25 24 21 16 22 23 24 22 26 25 29 34 35 39 40 41 40 40 41 36 36 38 31 32 29 29 24 26 20 25 29 33 30 25 25 23 20 19 17 18
27 22 21 17 20 19 19 22 19 22 25 22 16 16 20 22 21 23 24 26 36 39 39 39 39 41 44 42 41 39 40 38 33 37 30 30 25 28 17 29 32 29 27 25 25 22 22 23 20
22 21 25 19 16 14 13 14 17 25 22 21 22 18 18 20 22 22 23 30 36 36 36 38 38 38 38 41 43 41 38 39 39 32 36 31 35 23 30 22 30 30 29 29 28 28 25 26 26
28 28 25 13 22 15 14 4 12 15 21 17 12 21 15 15 20 21 22 23 30 35 36 39 39 38 41 40 39 39 38 38 40 41 36 36 31 37 29 31 29 29 31 30 32 30 30 28 30

GFSSGP_925_spd_033.txt.gz
Wind_Speed
12 14 11 4 3 1 4 1 2 5 5 3 13 12 11 7 1 3 27 31 32 29 24 21 20 21 19 20 19 19 18 19 20 18 19 19 19 18 17 15 15 14 13 13 12 12 11 11 11
15 11 4 1 1 3 4 2 10 9 14 18 20 14 8 3 8 17 20 36 34 32 24 22 20 22 19 19 18 17 18 17 18 19 17 19 16 15 15 14 14 13 12 12 11 10 9 9 10
17 12 1 2 2 7 4 5 14 9 18 16 9 10 5 5 15 19 26 39 35 28 22 22 20 21 20 19 17 18 16 16 17 16 16 16 15 14 13 13 12 13 12 11 10 9 8 8 9
9 1 3 2 8 7 4 10 6 16 20 15 17 9 8 19 12 19 36 34 35 27 23 23 20 19 19 17 17 17 16 16 16 15 15 14 13 12 12 12 12 12 12 12 12 11 9 9 11
6 2 3 2 5 7 13 13 9 4 13 19 13 9 9 13 27 44 40 35 32 24 26 23 20 20 18 17 16 16 15 15 15 14 14 13 13 12 11 12 12 12 12 12 12 11 9 8 12
2 2 2 4 9 11 14 15 18 15 18 23 18 13 5 32 33 35 38 33 24 29 28 24 21 20 17 17 15 15 15 14 13 13 11 11 12 12 12 11 11 10 11 11 11 11 10 9 8
2 3 6 7 8 10 13 16 11 22 19 16 19 11 12 22 29 32 35 25 26 29 28 24 22 19 16 16 14 14 14 13 12 11 10 9 9 11 12 12 11 9 10 10 10 9 8 8 8
5 3 9 6 4 7 12 10 11 16 11 21 15 9 16 25 32 31 29 26 29 28 26 26 23 20 18 16 13 13 13 12 12 11 10 8 5 8 11 10 9 9 9 10 9 7 7 6 5
15 5 8 10 10 4 4 9 10 21 25 9 5 21 27 37 35 29 27 22 30 29 27 24 22 19 17 16 14 13 12 12 12 11 8 9 5 4 7 7 7 8 8 8 8 5 5 5 2
6 4 13 8 4 12 12 12 12 23 22 22 26 24 34 34 31 27 21 22 25 31 29 26 22 22 18 15 15 13 12 14 12 11 6 8 8 7 7 6 7 7 6 5 5 7 4 3 5
15 9 6 12 13 19 19 6 6 18 20 30 30 29 27 28 28 23 22 24 23 33 31 29 25 24 20 18 16 14 13 13 14 10 3 7 8 7 5 6 8 4 6 4 3 1 4 5 7
16 10 10 14 7 7 11 13 14 8 17 28 32 29 27 25 21 26 24 24 28 33 34 34 29 27 27 20 16 15 14 15 16 15 6 12 5 9 7 9 9 6 6 7 2 5 3 3 4
17 12 17 16 6 2 16 17 12 14 27 27 27 28 25 22 25 28 25 27 27 31 35 40 34 30 29 25 17 15 16 18 17 17 10 7 6 6 9 10 8 11 8 5 2 5 3 3 5
15 19 16 6 18 13 8 8 9 26 29 28 29 28 24 22 28 28 26 29 27 31 34 40 37 34 28 26 18 17 15 19 25 20 12 10 7 7 7 11 7 5 6 7 4 4 4 7 6
19 13 16 12 27 10 17 2 8 31 28 26 26 26 25 24 33 31 34 33 32 34 30 43 40 36 29 23 16 14 6 13 20 17 18 13 10 5 7 7 10 7 3 3 5 3 3 7 6
18 18 13 24 22 16 17 17 15 27 30 28 27 25 24 25 33 37 37 36 36 32 34 44 39 37 31 27 16 13 10 11 7 17 19 14 13 9 8 9 10 9 4 6 5 2 2 3 7
12 12 11 11 18 12 8 9 19 20 24 22 21 21 22 23 28 37 40 38 37 32 42 40 36 39 32 29 23 17 15 12 11 20 17 12 16 14 10 8 7 7 6 7 5 3 3 4 10
8 8 9 13 15 11 9 7 23 21 25 19 0 14 18 18 22 35 40 38 37 39 46 42 39 37 34 30 24 20 20 15 12 10 18 13 12 15 12 8 9 7 9 7 6 4 4 9 6
10 17 15 13 11 8 16 8 27 18 19 16 6 13 18 19 16 28 30 31 37 39 43 42 40 39 36 31 27 23 25 20 17 15 14 17 16 15 14 10 9 6 7 7 5 7 4 8 9
18 21 21 12 17 15 16 12 23 26 27 29 28 24 21 21 17 23 28 30 37 37 42 43 37 41 38 35 33 29 26 23 20 18 13 17 19 17 16 12 8 9 8 8 9 7 3 5 6
23 20 19 13 15 16 11 21 20 21 23 11 20 23 17 25 24 22 25 31 34 36 41 43 42 39 40 35 33 29 24 23 23 23 19 23 20 18 15 15 13 9 14 10 10 9 8 6 7
21 18 20 21 14 8 13 10 11 21 15 17 23 22 24 24 24 23 25 29 34 38 42 43 43 39 39 38 34 31 27 22 24 29 24 24 22 19 17 17 14 14 14 12 10 10 9 7 8
16 16 21 22 15 7 18 3 16 22 13 20 24 29 21 18 17 22 26 35 33 36 38 41 43 41 39 39 36 34 28 28 23 27 27 26 25 23 20 21 17 17 15 13 11 13 13 9 5
17 12 9 15 12 13 16 6 6 16 16 26 30 28 29 25 28 18 36 36 35 38 37 37 40 40 42 42 38 36 32 31 23 24 30 27 29 28 25 22 22 19 18 17 15 14 13 13 9
17 12 8 10 13 12 8 8 8 7 16 15 25 33 31 23 22 20 25 26 33 37 39 40 41 37 41 45 43 37 36 33 32 28 27 30 29 30 28 26 23 23 20 19 17 17 17 15 13
22 20 5 9 10 11 8 11 9 9 8 9 20 35 28 23 24 28 30 31 36 40 42 40 42 41 42 43 44 44 34 35 36 29 29 28 29 28 27 28 26 26 23 21 20 20 20 18 17
20 19 12 3 6 4 5 10 11 18 15 8 11 18 26 31 29 29 29 35 39 38 43 44 42 41 40 39 39 40 41 32 39 40 29 26 27 31 28 29 32 30 28 25 24 24 23 20 18
18 12 12 9 10 10 9 16 17 14 21 13 10 10 21 31 29 27 27 32 41 42 42 42 40 41 41 39 37 40 44 46 35 38 40 29 31 27 27 32 34 36 33 29 27 25 24 23 22
12 13 15 6 5 6 5 9 18 21 21 15 16 11 28 24 29 28 26 36 43 42 39 42 39 39 37 39 40 39 38 39 37 36 41 41 31 26 33 25 35 39 37 33 30 29 28 26 25
16 16 18 11 14 6 5 10 9 12 26 19 18 10 15 21 25 28 28 30 33 38 37 41 41 40 41 40 38 35 34 34 38 37 39 41 37 37 28 31 26 33 37 35 35 33 31 30 30

GFSSGP_925_spd_036.txt.gz
Wind_Speed
13 15 12 3 3 2 3 1 0 8 4 4 9 4 7 5 2 3 23 22 34 27 25 23 23 22 22 21 20 21 19 19 19 19 19 19 18 18 16 15 14 13 12 12 11 11 11 12 13
19 15 4 2 2 1 2 2 10 9 5 15 13 8 4 5 6 14 18 36 35 29 26 25 24 25 22 20 19 19 18 18 18 19 19 18 17 17 15 14 13 12 10 10 9 9 9 11 12
18 8 1 1 1 2 2 11 9 10 19 9 7 7 4 5 14 27 25 39 35 29 26 25 25 25 23 18 19 18 17 16 17 18 17 17 16 16 14 13 12 11 10 9 8 7 8 10 11
11 2 2 2 8 7 6 3 8 12 4 6 13 10 5 8 25 17 38 40 35 30 26 24 24 23 21 20 18 17 16 15 15 16 15 15 15 14 13 13 13 12 11 10 9 8 8 9 12
5 2 1 4 6 3 6 5 11 7 3 8 4 8 9 3 16 37 36 39 34 30 26 24 23 22 20 19 17 18 16 16 15 15 15 14 14 13 14 13 13 12 12 12 11 9 9 10 9
2 1 1 1 7 7 7 1 6 3 9 9 12 11 4 19 38 31 33 31 31 30 26 24 23 21 19 18 17 17 16 15 14 13 14 15 13 14 13 13 12 11 11 12 12 12 12 10 10
2 2 2 2 6 6 9 6 13 13 12 7 13 6 6 16 34 37 34 27 27 29 26 25 23 20 19 17 16 16 15 15 14 14 14 14 13 13 13 13 12 10 10 10 12 11 11 10 10
3 3 1 1 6 11 9 11 7 17 5 13 13 7 9 20 35 36 31 26 29 30 27 26 24 21 20 17 15 16 16 15 14 13 13 14 13 11 11 11 11 10 9 8 9 9 9 8 9
4 2 1 4 12 7 12 8 10 3 17 4 7 8 21 35 36 30 26 29 30 30 28 27 25 22 21 18 16 15 16 15 13 12 13 14 15 13 10 9 10 9 8 7 6 6 6 5 6
6 3 6 10 10 11 8 4 4 7 11 13 18 24 33 35 34 26 23 26 27 29 30 28 25 23 21 19 17 16 16 15 13 11 10 12 12 10 9 8 7 7 6 4 4 4 4 2 2
6 6 7 9 15 12 12 12 11 14 7 15 26 27 27 32 27 22 21 28 27 33 30 28 26 24 22 20 18 17 16 16 14 10 7 11 11 9 7 8 7 6 5 2 2 3 4 4 4
6 19 12 10 13 7 8 10 13 15 9 16 26 31 27 24 21 24 21 28 29 31 32 29 27 25 21 20 19 19 19 16 13 13 9 11 10 10 8 8 8 4 5 3 1 1 3 6 8
16 21 17 16 15 12 5 8 4 8 21 20 23 24 24 20 23 24 23 25 31 30 33 31 29 26 24 22 21 20 20 18 14 14 10 9 11 11 9 9 7 4 5 5 3 1 1 3 10
7 22 18 6 7 3 11 4 3 15 25 25 25 23 20 20 24 22 23 24 32 32 35 33 31 29 27 25 22 20 17 16 15 15 14 11 10 10 11 8 7 7 4 7 4 2 0 5 11
18 18 15 12 9 5 7 4 7 22 26 25 24 21 20 18 24 25 26 27 31 32 36 38 35 32 30 27 23 19 15 18 21 19 18 13 13 10 8 10 10 7 7 6 6 4 2 3 6
11 15 16 12 12 10 12 8 14 21 23 24 23 21 19 18 25 30 28 31 30 32 35 40 37 37 33 30 24 18 17 13 18 26 20 15 15 11 10 9 9 9 6 5 5 3 4 4 3
4 8 6 12 19 6 13 8 20 24 22 24 24 23 20 19 23 31 33 34 33 33 37 41 38 39 37 32 25 20 17 12 17 21 23 19 14 12 10 7 8 9 4 6 3 3 2 7 10
6 5 6 11 12 20 18 15 27 26 26 28 24 22 24 21 23 32 32 35 32 33 36 43 40 41 39 34 29 23 19 13 9 14 25 20 17 15 13 9 8 8 8 7 5 2 6 6 8
5 8 8 10 13 7 16 17 30 29 25 23 23 23 26 28 26 33 34 36 32 32 40 43 41 43 41 36 32 27 25 21 14 9 24 22 17 17 15 11 11 9 9 7 4 6 6 9 17
14 9 11 16 16 5 6 20 30 29 28 28 25 24 23 22 24 29 36 35 35 36 40 41 43 45 44 39 37 33 29 26 21 13 15 24 21 16 19 16 12 11 11 9 8 7 5 7 6
15 14 13 9 8 5 5 10 21 16 16 18 20 21 21 23 23 27 32 38 37 38 41 43 45 48 46 42 36 32 29 27 24 20 20 18 24 20 18 17 13 12 12 10 9 10 6 6 8
17 18 18 13 8 9 7 7 14 20 19 18 18 19 24 22 21 24 27 36 39 40 43 43 45 48 46 44 38 34 28 23 31 27 23 20 25 24 18 16 17 14 13 13 11 12 11 7 10
19 12 16 16 6 3 13 2 7 24 22 21 22 22 18 23 22 24 25 38 42 40 41 42 46 46 46 45 41 38 30 31 25 28 27 23 25 26 22 18 18 18 17 15 13 14 15 11 10
10 11 9 11 4 9 21 7 4 21 27 28 24 23 21 22 24 25 36 37 36 39 40 39 41 44 45 46 42 39 36 34 33 25 28 29 28 30 27 22 20 18 21 19 17 16 16 14 12
14 8 8 7 8 10 15 6 11 27 30 33 32 26 25 24 23 24 23 27 32 38 41 42 42 39 43 45 43 43 40 37 35 32 28 32 30 34 32 26 24 24 22 22 19 18 17 18 15
17 12 6 13 6 12 4 7 7 14 30 25 29 32 29 25 22 23 26 34 37 39 42 43 42 40 42 45 44 44 42 40 37 35 30 28 33 33 32 30 28 26 25 23 21 21 19 19 18
10 19 11 6 2 3 5 5 4 11 8 14 26 22 27 28 24 26 25 35 37 39 42 44 43 42 41 43 40 38 42 39 40 38 37 30 31 31 30 32 31 30 28 26 23 23 22 21 19
21 8 10 4 7 5 5 6 10 10 13 10 24 27 29 27 26 22 23 33 40 41 45 44 43 45 42 41 40 39 40 44 42 38 38 35 30 31 30 31 33 32 31 30 28 27 25 23 23
7 15 6 6 6 7 3 11 7 12 10 13 20 28 29 27 27 25 23 35 42 40 39 41 41 41 38 39 40 38 39 39 38 40 41 40 35 26 30 31 31 34 35 35 33 31 29 28 28
20 9 11 9 11 3 5 10 4 14 15 16 14 25 30 30 31 26 26 31 35 36 36 39 39 40 42 44 41 40 36 35 36 39 41 42 42 39 25 31 29 37 36 37 37 36 33 32 31

GFSSGP_925_spd_039.txt.gz
Wind_Speed
13 16 14 3 2 2 3 2 2 4 4 6 15 6 7 5 1 3 19 24 28 29 25 23 23 22 21 21 21 21 20 20 19 19 18 18 17 16 16 15 14 12 11 11 11 11 12 12 13
17 15 4 1 2 0 2 3 4 7 3 7 9 7 5 3 4 12 13 33 31 30 26 25 24 22 20 21 20 19 18 18 18 18 17 15 16 16 15 14 13 11 10 9 11 11 10 11 12
18 8 0 2 2 2 1 5 6 8 7 5 5 8 4 3 12 17 26 35 32 29 27 25 24 22 20 20 19 18 17 18 17 15 15 15 15 15 14 13 12 11 9 8 9 10 9 9 11
10 4 2 1 5 4 3 4 6 6 4 7 8 8 5 6 21 15 37 35 32 30 28 25 23 20 20 20 18 17 16 17 15 15 14 15 14 14 14 13 12 11 10 9 10 11 10 11 11
4 2 2 2 3 3 4 6 10 3 4 4 2 6 8 8 15 35 33 34 33 29 26 24 22 20 20 18 18 17 15 16 16 14 14 13 14 14 13 13 13 12 12 11 12 12 12 12 11
1 0 2 2 4 4 1 2 6 6 5 6 9 9 3 16 31 29 30 34 31 30 26 24 21 20 19 17 18 16 15 15 15 14 14 13 13 14 12 12 12 12 11 12 14 13 12 11 10
1 2 3 1 3 2 5 12 3 5 6 5 12 5 5 14 31 29 29 32 30 28 26 24 21 19 18 16 17 16 15 14 13 13 13 13 14 13 12 11 12 11 12 11 13 13 11 11 10
3 2 2 2 2 2 4 9 3 6 1 11 12 7 9 18 31 30 28 30 28 26 25 25 22 20 19 17 15 15 14 13 13 13 12 12 12 12 11 10 11 11 11 12 11 11 12 10 9
4 1 3 4 5 2 5 5 7 4 10 3 4 7 14 33 32 27 26 25 27 25 25 25 22 21 19 17 15 14 13 12 13 12 11 12 12 12 9 8 8 10 10 9 8 9 8 8 8
3 2 6 7 10 4 2 1 1 3 8 4 8 19 32 34 31 24 23 22 24 23 27 26 23 22 20 18 17 16 14 14 14 12 11 12 10 9 8 7 6 7 7 7 7 6 4 3 4
6 6 7 10 8 11 8 7 5 8 4 7 17 23 27 32 28 22 22 24 26 29 26 27 24 22 21 20 18 17 15 14 13 11 10 10 8 7 8 7 5 4 5 6 6 5 4 2 1
5 11 8 6 11 10 7 6 7 13 5 12 22 27 28 26 22 24 24 25 26 29 30 29 26 24 22 19 19 18 16 15 13 9 12 10 9 8 8 7 6 3 4 4 4 5 5 4 2
16 14 6 14 13 12 5 12 8 20 7 18 22 24 25 22 25 24 26 25 28 29 31 31 28 25 23 20 19 19 17 15 11 10 10 11 9 9 8 7 6 4 4 2 3 4 5 6 6
4 14 16 12 13 6 13 7 6 2 18 20 23 25 23 23 26 24 26 27 29 31 33 32 29 27 24 23 22 20 18 15 12 11 10 9 10 9 7 7 6 3 3 5 1 1 5 8 6
10 11 8 10 12 5 8 4 6 15 18 21 22 21 20 20 25 25 25 30 32 33 35 34 31 28 26 25 24 21 18 15 14 12 12 11 10 8 6 7 6 5 3 4 2 2 5 7 6
3 5 3 9 9 8 10 6 13 20 22 20 20 20 19 21 26 27 26 28 32 33 34 35 33 31 28 27 24 21 18 16 17 18 14 16 14 11 8 8 8 6 4 4 2 1 2 6 6
3 4 6 6 11 6 8 6 17 19 20 22 20 20 19 19 21 27 29 29 34 35 35 36 35 33 31 29 25 20 17 18 15 17 20 18 16 12 10 8 8 8 5 5 4 2 2 6 3
6 4 5 7 5 13 9 3 20 21 20 22 21 20 20 22 24 32 30 32 30 35 36 37 37 35 34 31 26 20 16 13 13 16 20 20 16 14 11 7 7 7 6 6 5 2 2 5 6
4 4 5 5 8 8 12 10 20 22 18 17 20 20 20 22 22 28 33 32 31 33 38 39 39 39 36 34 29 26 23 19 14 12 17 22 19 16 13 9 8 6 5 5 5 5 4 6 8
8 6 6 10 5 5 6 15 20 23 26 25 24 22 21 19 19 24 30 33 33 33 38 40 42 41 40 38 34 33 29 24 18 11 10 21 19 18 15 13 11 8 6 7 5 7 6 10 9
16 15 8 9 5 4 5 7 17 20 9 14 16 21 19 23 23 22 28 35 34 33 38 41 44 42 45 41 36 30 30 25 22 17 14 17 21 19 18 16 13 12 10 8 7 7 6 8 5
18 13 14 13 1 4 5 4 8 15 18 19 20 21 21 23 22 20 24 31 37 36 36 41 43 42 45 42 40 34 29 27 29 26 19 17 18 22 20 18 15 13 11 10 8 10 8 8 9
13 8 9 10 3 3 5 2 6 19 17 23 23 25 23 24 23 24 24 35 39 36 35 40 43 41 41 44 41 39 32 31 30 28 24 18 19 22 23 20 17 17 14 12 10 10 11 9 11
5 6 6 1 2 11 14 8 6 14 21 23 25 26 25 23 24 25 36 34 35 37 36 37 40 43 42 44 43 41 36 33 30 26 27 22 21 23 25 23 20 18 16 14 13 12 13 11 9
10 9 2 5 6 15 8 8 13 17 26 27 29 30 26 22 22 21 22 27 33 36 37 38 40 39 42 44 44 45 43 37 32 30 29 28 26 27 28 27 25 21 18 16 16 15 14 14 13
15 12 6 9 7 12 6 8 6 15 19 28 28 30 21 17 18 24 22 29 34 38 39 40 40 40 41 44 45 45 44 40 36 33 33 29 29 30 28 29 27 24 21 19 18 18 17 17 17
9 21 9 5 2 3 7 5 7 7 15 18 25 21 21 20 19 23 23 30 33 37 41 43 41 42 41 44 43 41 41 39 37 35 33 35 30 28 29 29 30 28 25 22 22 21 21 20 20
15 10 11 4 9 10 3 6 8 11 11 11 20 19 23 22 22 22 21 27 34 37 41 42 43 44 44 42 41 40 43 42 40 37 36 36 31 29 27 29 29 31 29 26 25 25 24 23 23
11 11 8 7 4 11 1 12 8 12 14 15 16 21 22 22 24 23 19 30 35 32 35 38 39 39 37 39 38 38 39 41 40 38 38 37 35 32 28 28 28 29 32 31 29 29 27 26 25
24 8 7 13 13 1 3 12 4 11 13 19 19 18 20 20 26 23 21 26 30 33 32 36 37 37 39 40 40 39 39 41 37 40 40 39 36 33 31 29 29 30 30 32 33 32 32 30 29

GFSSGP_925_spd_042.txt.gz
Wind_Speed
15 16 15 3 1 2 3 3 2 4 4 4 13 3 5 5 1 2 16 23 27 27 24 22 22 19 19 19 19 18 17 17 17 16 15 14 14 14 13 13 13 13 12 11 12 12 11 11 11
19 15 5 1 2 2 2 2 2 5 3 5 12 7 4 3 5 9 12 29 32 28 25 24 22 20 20 18 18 18 17 17 17 16 15 14 13 14 13 12 12 13 11 11 12 11 11 11 11
19 10 2 3 1 1 2 2 5 0 3 9 6 8 3 4 10 19 20 33 32 27 25 25 21 20 19 19 17 17 16 16 16 15 13 13 13 13 12 11 11 11 10 10 10 10 10 11 9
10 3 2 2 2 2 3 6 5 4 6 6 10 9 3 5 19 12 34 35 32 28 26 23 22 19 19 18 17 17 17 15 15 14 13 12 13 13 12 11 11 11 10 11 10 10 10 12 10
2 2 2 2 2 1 2 2 0 3 4 5 2 5 6 6 10 33 32 34 33 29 25 23 20 19 18 17 16 16 16 15 14 14 13 13 13 13 13 12 12 11 11 11 11 11 11 10 9
2 1 1 1 1 4 2 4 3 6 5 8 8 9 4 14 31 26 30 32 31 29 26 23 20 19 17 17 16 15 16 15 15 14 14 14 14 14 13 12 11 11 12 11 11 11 10 10 9
2 1 2 1 2 2 1 7 1 5 5 3 14 6 5 17 27 28 32 32 30 27 25 23 20 17 17 16 16 15 15 14 14 14 13 13 12 12 12 11 10 10 11 12 12 10 9 9 9
2 2 2 3 2 3 2 2 1 6 3 13 13 7 11 18 28 28 31 30 29 26 24 23 20 18 17 16 15 15 14 14 13 13 13 12 11 11 11 12 9 9 10 11 11 11 10 8 10
4 1 3 4 5 4 4 3 7 3 9 5 4 6 16 32 29 27 27 26 28 26 24 22 21 20 18 17 14 14 13 13 12 12 12 12 12 10 10 10 8 7 8 9 10 9 8 7 8
3 2 5 5 5 5 7 4 7 5 10 4 10 18 32 32 30 26 26 23 23 22 26 23 21 21 19 17 16 16 14 13 13 13 11 11 10 9 8 8 7 6 6 7 7 6 5 5 6
5 5 4 3 6 6 8 3 5 7 7 7 14 22 26 30 28 24 24 24 25 23 23 25 23 21 20 19 17 17 15 14 13 11 11 10 9 7 7 8 6 5 5 6 5 5 4 3 4
4 8 6 3 5 2 1 4 3 9 4 11 21 27 25 24 23 25 25 26 25 25 23 27 24 22 20 18 17 17 16 14 12 10 10 10 9 6 6 6 6 4 5 4 5 5 4 3 2
11 6 4 10 8 5 5 8 5 9 9 15 21 23 23 21 24 23 24 23 26 26 24 29 26 24 21 19 17 17 15 14 11 9 10 9 7 6 6 6 4 3 3 3 6 4 4 4 6
6 15 9 8 11 7 12 5 6 5 16 18 23 23 21 21 27 23 24 24 26 29 30 30 28 25 23 20 18 17 15 13 11 9 8 8 7 6 6 6 4 2 2 2 3 4 5 6 8
10 6 4 6 5 5 3 3 6 10 16 19 20 20 19 18 26 26 30 28 31 32 32 32 30 26 24 22 19 18 16 14 12 9 8 8 7 6 6 6 5 2 3 5 6 7 6 5 4
6 5 1 3 7 6 9 7 5 16 18 18 20 20 19 19 24 23 26 28 31 32 33 33 31 28 26 23 21 19 17 14 11 10 10 10 8 7 6 6 6 5 4 4 3 4 6 6 4
5 4 6 3 8 3 6 4 9 15 17 19 20 20 19 19 21 25 26 29 33 36 35 34 32 30 28 25 23 20 17 15 13 12 15 12 11 10 7 4 6 6 4 2 1 3 4 7 6
6 4 4 4 4 7 7 6 11 13 15 19 19 19 20 20 20 26 26 28 30 34 35 35 34 31 29 27 24 20 17 15 15 13 12 15 13 12 8 6 7 7 4 4 1 0 3 7 6
3 4 6 4 5 5 9 9 14 14 11 15 17 18 20 22 24 27 26 27 31 33 35 36 36 34 31 29 26 23 21 16 13 12 11 16 15 13 11 8 6 6 6 6 4 2 3 7 9
5 3 4 4 3 6 5 13 12 18 22 23 22 20 20 18 19 24 28 28 30 34 38 37 38 36 34 32 30 25 23 19 15 11 10 16 18 14 12 10 8 5 5 6 4 4 3 6 8
12 10 6 2 3 5 5 5 6 12 8 14 14 15 17 20 20 20 25 30 29 31 37 39 40 38 37 33 31 24 20 20 18 15 12 15 19 15 14 13 10 7 4 6 5 5 4 6 5
10 11 15 8 2 3 4 5 6 10 17 19 16 18 18 19 19 18 22 28 33 31 37 39 41 40 39 36 33 31 26 22 24 22 16 14 16 16 15 14 12 9 7 8 6 6 5 6 6
12 7 12 12 4 2 5 0 7 12 12 16 19 20 19 20 20 21 23 31 34 32 33 38 41 40 40 40 38 36 32 28 24 24 20 17 16 15 17 16 13 11 9 9 7 6 8 7 9
5 2 5 3 3 11 11 10 6 7 12 17 19 20 20 20 21 20 28 27 29 33 32 35 39 42 40 41 41 40 36 35 29 25 25 24 21 18 18 18 16 13 13 11 10 8 8 11 10
10 11 1 3 5 14 8 12 10 7 14 16 22 23 23 21 20 20 20 24 30 33 34 34 37 38 41 42 42 42 41 39 37 33 30 30 25 23 21 20 20 18 15 13 11 11 11 12 14
15 12 6 8 5 13 5 8 6 19 10 19 20 23 17 18 20 22 21 28 31 35 37 36 37 37 40 42 43 44 42 42 40 35 31 30 29 25 20 20 22 21 19 15 14 14 14 15 16
6 18 10 4 1 2 10 4 7 8 17 15 20 15 16 20 21 22 22 31 34 35 40 41 39 39 40 45 44 41 41 40 39 38 32 30 27 26 22 22 23 23 22 20 18 17 17 18 18
16 9 11 4 9 5 4 6 9 8 11 12 13 16 17 19 19 19 19 28 37 39 38 38 41 41 43 43 42 41 41 44 43 40 36 31 28 25 24 22 24 24 24 23 22 21 20 20 20
10 14 10 8 6 9 1 5 8 12 15 13 17 16 18 19 20 21 21 32 34 35 37 38 38 37 36 38 39 36 38 39 42 42 39 34 29 26 28 26 23 24 25 25 26 25 23 23 23
7 6 10 12 17 3 4 9 4 11 12 10 14 15 17 20 22 22 22 28 31 36 37 39 38 37 39 41 40 41 39 40 40 41 41 36 32 28 30 27 25 26 25 25 26 28 27 27 27

GFSSGP_925_spd_045.txt.gz
Wind_Speed
16 15 11 4 2 2 3 3 3 6 6 1 13 3 6 4 1 2 17 19 25 23 19 18 18 17 17 16 15 16 14 14 15 14 14 14 13 13 13 12 11 10 10 11 11 11 11 10 11
18 16 4 1 1 2 2 3 1 7 7 9 10 10 4 3 4 11 18 25 27 24 20 18 18 18 17 17 16 16 15 15 15 14 14 14 13 13 12 12 11 10 10 10 11 11 11 11 11
17 9 2 2 2 3 1 0 2 8 6 13 7 5 3 4 7 25 21 30 26 22 20 19 19 19 17 17 15 16 16 16 15 15 14 13 13 13 12 12 11 10 9 10 10 10 11 10 10
9 4 2 2 3 4 2 3 4 6 5 6 8 8 4 0 19 15 30 30 27 22 20 19 19 17 17 17 15 15 16 15 14 14 13 14 13 13 13 12 11 10 10 9 10 9 10 9 8
5 2 3 2 2 2 0 3 3 7 7 9 3 5 4 8 10 29 29 29 27 25 21 19 19 16 16 15 16 15 14 14 14 14 14 14 13 13 13 13 12 11 10 10 10 10 10 9 7
3 1 1 2 2 1 4 0 4 9 8 9 7 8 4 8 22 28 28 27 26 25 22 20 19 17 16 15 15 14 15 14 14 15 15 15 14 13 13 13 13 12 11 10 10 9 10 10 9
2 1 2 3 2 3 3 1 4 9 11 7 15 7 6 16 25 26 27 25 24 23 22 20 18 16 16 15 15 14 14 15 15 14 15 14 13 12 11 12 12 12 11 10 9 10 11 10 9
1 2 3 4 4 4 3 4 8 2 4 15 12 8 8 19 26 26 26 24 23 22 20 19 18 17 14 14 15 14 13 14 15 14 13 13 13 11 11 12 11 10 10 10 11 10 10 12 11
3 2 4 3 6 3 6 5 6 5 14 5 6 8 24 32 26 27 26 24 23 21 20 18 17 16 15 14 13 14 13 13 13 13 13 12 11 10 10 9 8 7 8 9 8 9 9 9 10
5 3 4 4 5 3 6 8 11 6 14 5 9 18 29 32 29 28 27 27 25 23 21 19 18 17 16 14 13 12 12 11 11 10 11 11 11 10 8 7 7 6 9 7 7 6 6 6 7
5 4 3 4 5 2 7 10 7 12 9 9 16 24 28 32 31 28 27 27 27 24 21 19 18 17 16 14 14 12 11 10 10 12 12 11 10 8 7 5 5 4 5 5 4 5 4 3 4
5 9 8 3 3 5 8 7 5 9 2 13 22 27 31 26 30 32 29 28 26 23 22 20 18 17 15 14 14 13 11 10 9 10 11 10 7 7 6 4 4 4 4 4 4 4 4 4 3
13 5 3 7 6 7 6 6 4 7 4 14 21 27 28 26 30 30 29 27 25 24 22 21 19 18 16 15 13 13 11 10 9 9 9 9 7 6 5 5 4 3 3 4 4 3 5 7 6
7 16 10 6 7 7 10 12 3 3 13 19 24 27 28 29 33 30 29 28 27 24 23 22 20 19 17 15 16 13 11 9 8 7 8 8 6 6 6 4 3 2 2 2 3 4 7 9 9
12 6 5 9 9 6 4 5 8 14 17 20 23 23 25 26 33 30 30 28 28 26 23 23 22 19 20 17 17 14 12 10 8 7 7 5 4 4 2 2 2 2 5 6 6 5 6 8 8
6 7 4 2 12 7 8 3 7 17 18 19 21 22 24 26 33 30 30 27 26 24 24 22 22 21 20 17 18 14 12 10 9 7 6 5 4 3 3 3 3 4 6 6 6 4 4 6 6
5 7 13 6 10 8 12 3 7 15 16 18 20 23 23 23 27 29 29 28 26 25 24 23 23 21 21 20 17 16 14 12 9 8 7 7 6 4 4 4 4 5 4 4 5 4 4 4 6
11 12 7 12 8 13 10 11 8 13 13 16 19 21 23 23 25 31 30 29 26 26 24 24 23 21 21 18 17 14 14 13 11 10 10 10 9 7 6 4 5 6 4 5 4 4 6 5 6
2 6 12 7 6 10 16 13 11 14 13 15 18 20 22 24 28 29 28 29 27 26 25 25 25 24 21 19 18 15 15 12 11 10 8 11 11 8 7 6 5 6 5 4 5 5 6 6 8
18 12 8 7 5 9 10 16 11 17 20 20 22 22 24 22 23 28 30 29 30 29 29 26 26 26 27 21 20 14 15 12 9 8 9 10 13 11 9 8 6 7 6 8 5 4 5 4 6
17 19 15 7 7 11 6 14 12 12 14 15 17 19 20 23 25 24 30 32 31 31 30 28 28 28 29 24 19 18 13 13 11 9 9 10 15 14 11 9 8 6 5 7 5 4 4 5 4
18 15 17 15 8 8 10 13 16 14 17 19 19 20 22 23 23 23 30 34 35 33 31 31 30 29 30 30 22 23 20 17 16 14 11 10 14 16 14 12 10 7 8 6 6 5 5 6 6
16 8 16 18 17 13 14 8 17 8 16 19 22 22 23 23 24 25 30 37 36 33 32 30 31 33 31 30 29 27 22 20 15 15 15 14 15 16 15 14 12 10 7 8 8 6 8 6 6
4 11 10 13 14 18 23 15 15 17 17 19 19 22 23 24 25 24 32 32 34 33 31 32 33 35 36 33 33 32 27 23 19 18 17 16 14 16 16 14 14 11 8 9 7 8 7 8 6
15 10 6 8 9 17 19 17 19 13 16 17 20 24 26 24 24 24 25 30 33 35 34 33 34 34 35 35 33 33 33 31 27 25 21 20 18 17 17 17 16 14 13 10 10 10 8 8 8
16 18 8 13 10 13 16 14 15 23 20 16 17 20 20 23 23 24 25 31 33 35 36 34 34 36 37 37 36 38 37 29 29 28 24 22 20 20 19 21 19 17 15 13 12 11 10 9 8
16 19 20 15 4 10 14 18 12 13 18 24 18 14 20 23 25 27 27 34 34 35 37 37 35 35 36 38 37 37 37 34 28 30 30 23 22 17 19 22 19 18 18 17 15 13 12 11 10
13 13 17 13 18 19 7 19 12 22 17 19 22 17 18 21 23 23 24 33 36 38 38 37 36 37 37 36 36 35 36 37 34 29 30 28 24 22 19 23 21 19 18 18 18 14 13 12 12
14 14 16 18 19 11 16 9 11 19 21 19 19 21 20 20 22 23 24 35 38 37 37 39 38 36 36 36 35 35 33 34 33 30 30 30 30 26 25 24 23 20 19 19 19 19 16 14 14
17 11 22 14 23 19 16 13 4 14 21 22 21 18 21 21 22 23 24 31 34 37 38 41 40 40 39 38 37 36 35 33 31 33 29 29 32 30 29 26 25 23 20 19 18 18 17 17 17

GFSSGP_925_spd_048.txt.gz
Wind_Speed
15 13 10 5 4 4 5 2 5 9 10 2 11 3 9 9 7 5 26 20 27 21 20 17 16 16 14 14 13 12 12 13 13 13 12 13 12 10 11 11 10 10 12 11 10 11 10 11 11
16 13 4 2 2 3 4 3 6 8 8 13 11 5 7 6 8 16 26 27 25 23 21 18 17 16 15 14 14 14 13 13 12 13 12 12 12 12 11 10 10 10 11 11 11 10 11 11 11
15 10 2 3 4 3 0 3 9 10 11 14 6 7 2 5 11 27 27 30 26 23 21 18 18 15 16 15 14 14 14 13 13 13 13 13 12 12 11 10 10 10 11 11 11 10 9 9 10
10 5 1 3 7 6 2 5 7 12 5 4 7 8 7 3 22 21 30 29 26 22 21 18 18 17 15 14 15 15 14 13 13 14 13 13 12 12 11 10 10 11 10 10 10 9 10 9 8
9 3 2 6 3 3 6 7 12 9 11 8 4 7 6 11 13 28 31 28 26 23 20 18 18 18 15 15 15 14 14 14 13 14 14 13 14 13 12 11 11 11 11 11 10 9 10 10 11
4 3 4 3 6 1 5 8 7 7 7 10 8 10 5 10 22 32 29 26 25 23 21 19 17 17 16 16 15 14 14 13 15 15 14 14 15 14 13 12 12 12 11 11 10 10 11 11 12
5 6 5 7 2 4 4 6 4 11 12 12 11 8 9 18 29 30 29 26 24 22 21 19 16 16 16 15 15 14 13 13 14 15 15 15 14 14 12 12 12 12 11 11 11 11 10 11 12
5 5 3 3 7 4 5 5 13 4 6 9 14 6 11 27 30 29 27 26 23 21 20 19 17 15 14 14 13 13 13 13 14 14 14 14 13 14 14 14 11 11 11 10 10 11 12 12 11
5 5 3 2 2 7 9 6 10 9 10 6 9 3 22 35 30 29 28 26 24 21 20 19 18 16 15 14 13 12 13 13 13 13 14 11 11 12 12 11 9 11 11 10 9 9 10 12 12
9 7 3 4 1 3 9 7 13 9 14 8 8 16 34 35 30 31 30 28 26 23 22 20 18 16 15 16 14 13 12 12 12 11 10 9 10 10 11 8 8 10 9 8 7 7 8 6 13
10 10 5 2 3 8 9 12 8 9 11 12 17 25 29 33 30 30 30 29 28 25 22 20 18 17 15 14 14 13 13 12 11 10 9 9 9 9 8 7 5 6 6 6 6 4 4 5 4
11 9 8 4 5 10 3 8 6 6 6 14 20 27 31 28 29 30 30 30 28 26 22 20 18 17 15 15 14 13 12 12 11 10 9 7 7 8 7 6 6 5 4 4 3 6 5 4 5
16 8 5 6 9 8 4 5 2 9 6 14 21 27 28 25 29 30 29 27 26 25 23 21 19 18 16 15 13 13 11 11 10 10 8 6 6 6 6 6 4 4 3 3 4 4 5 5 7
3 16 8 4 9 7 10 8 7 6 12 16 22 27 27 28 31 29 29 28 26 25 23 21 19 18 17 15 13 12 11 9 9 9 8 6 5 6 6 5 3 4 3 3 4 5 7 8 7
12 6 10 15 17 10 6 11 9 14 14 17 21 23 26 25 32 30 30 29 27 25 24 23 20 18 17 15 14 12 11 10 9 8 7 6 4 6 5 5 4 4 4 5 7 7 7 7 8
15 15 13 15 17 12 9 7 12 16 16 17 20 21 24 26 30 29 29 28 27 25 25 23 21 20 17 15 14 12 11 11 10 8 7 6 3 4 6 5 5 5 7 6 7 6 9 4 9
12 12 18 10 14 12 13 7 14 14 15 16 18 20 22 24 27 30 29 28 28 26 25 24 22 21 19 15 13 12 12 11 10 8 7 6 5 3 3 4 5 6 5 4 7 6 9 5 9
15 17 13 16 13 18 15 10 12 13 14 16 17 19 21 24 26 31 30 28 27 26 24 23 22 21 19 16 14 13 13 11 10 8 7 6 6 5 4 3 4 6 5 5 5 5 5 4 3
8 12 16 14 13 14 18 14 14 14 14 15 17 19 21 24 29 32 31 31 28 27 25 25 23 21 21 19 19 17 16 13 10 9 8 8 8 6 5 4 4 6 6 5 5 6 7 6 6
16 11 13 9 8 11 18 19 15 16 16 17 17 19 20 22 24 30 33 32 32 30 29 27 26 23 22 20 19 17 15 14 11 9 8 9 10 8 6 5 4 3 5 7 6 5 7 7 7
18 18 14 11 4 14 14 16 17 17 14 16 16 18 20 23 25 25 31 33 33 32 31 29 28 26 24 21 19 15 14 11 12 10 10 10 11 10 8 7 5 3 4 7 6 7 7 8 7
18 17 14 15 12 12 20 14 21 18 18 17 18 19 21 23 24 24 30 34 35 34 32 30 28 28 26 24 23 21 19 17 16 14 12 9 12 12 10 8 7 6 5 5 5 5 5 4 8
16 12 13 14 17 16 15 12 17 24 19 19 19 20 21 23 25 26 30 35 35 34 33 32 29 28 28 27 25 25 22 18 16 15 13 11 10 12 11 9 8 6 6 7 6 4 5 5 4
4 15 13 14 14 18 23 18 18 20 22 21 21 21 21 23 25 25 32 33 34 34 35 33 33 31 30 29 29 25 24 21 19 18 16 15 14 13 12 11 10 9 7 7 7 6 6 6 6
17 13 9 12 14 20 20 20 19 13 19 19 19 20 21 22 23 23 25 31 34 37 37 36 34 35 33 31 29 29 26 25 21 18 19 16 16 15 14 14 13 11 11 8 8 8 7 8 8
23 21 12 20 14 20 20 21 22 26 18 12 17 16 20 21 22 24 25 32 36 38 38 37 36 35 36 35 32 30 30 27 26 23 20 19 17 16 13 14 15 14 12 11 9 9 10 8 8
18 22 25 23 16 13 17 18 18 22 24 26 14 19 17 20 22 25 25 33 36 38 40 40 37 37 36 36 33 32 31 30 27 25 22 21 18 15 15 17 17 16 15 14 11 11 10 9 9
18 16 18 17 23 23 17 19 16 21 21 23 24 21 18 18 20 21 23 32 36 38 40 40 38 38 38 36 35 34 33 31 30 25 24 21 21 19 16 17 18 18 17 16 14 12 12 11 11
16 19 15 16 19 18 19 16 13 16 22 22 24 22 22 18 20 22 23 33 37 37 38 41 40 38 37 38 37 35 35 33 30 29 27 24 22 20 19 18 18 19 18 17 17 15 13 13 13
11 15 18 17 24 20 19 10 15 5 14 21 24 19 22 19 20 21 23 29 32 36 38 40 41 40 38 38 37 37 35 33 32 30 29 25 24 23 22 20 19 20 20 19 19 18 17 17 16

GFSSGP_925_spd_051.txt.gz
Wind_Speed
10 10 12 6 3 5 10 4 6 9 10 4 9 12 16 18 8 10 32 25 28 21 19 17 16 14 13 12 12 12 12 11 11 10 11 10 10 10 10 10 10 11 11 11 12 11 12 11 12
12 7 1 3 4 4 1 5 6 5 10 14 11 8 13 16 11 25 29 28 26 24 22 18 17 15 14 13 12 12 12 11 11 11 11 10 10 10 10 11 10 11 11 11 12 13 13 12 11
10 8 2 2 4 4 1 8 6 11 14 13 7 4 10 7 18 30 30 31 27 24 23 19 18 16 14 13 13 13 12 12 12 11 11 11 10 10 9 9 10 11 10 11 12 11 11 10 11
9 7 2 3 8 9 4 7 5 14 8 5 12 10 9 4 24 26 34 27 27 24 22 19 16 16 15 14 13 12 13 12 12 11 12 10 10 10 10 9 10 10 10 11 10 10 10 9 9
9 3 4 5 9 3 4 12 8 6 8 7 4 10 9 12 23 31 31 27 26 26 21 18 17 15 14 14 14 14 13 13 12 13 12 12 11 11 11 10 11 10 10 11 10 10 9 10 10
3 3 6 5 7 5 6 9 12 6 4 5 8 12 5 8 26 30 29 26 25 25 23 18 17 14 14 14 13 13 13 13 13 13 12 12 13 13 12 12 11 10 10 10 11 10 11 12 13
9 6 9 9 5 2 10 13 11 7 8 9 12 9 10 16 24 29 27 25 24 24 23 19 16 14 14 13 13 13 13 14 14 14 13 13 13 12 13 13 12 9 9 10 10 10 11 11 12
11 12 13 8 2 4 7 14 19 12 5 15 11 5 11 22 29 29 27 25 24 24 21 19 17 15 14 11 13 12 13 14 14 14 13 13 12 13 14 15 11 9 9 9 10 10 13 13 12
17 6 7 10 8 7 12 14 9 9 9 13 13 7 26 34 31 28 27 25 24 23 22 21 19 16 16 13 12 13 13 14 14 13 14 16 12 12 12 10 9 9 10 10 8 9 12 13 17
9 9 6 12 3 8 13 12 16 11 14 10 10 21 34 35 30 29 28 26 24 23 23 21 21 16 15 17 12 13 13 12 13 13 6 6 10 11 11 8 9 10 10 10 6 6 8 10 6
17 14 9 11 2 8 12 11 14 7 14 15 16 23 29 31 29 29 29 27 25 23 22 20 19 17 19 18 13 15 14 14 12 9 6 9 8 9 11 7 7 6 1 6 5 2 6 13 6
16 12 9 9 3 7 5 4 13 4 8 19 21 27 28 28 27 29 28 28 25 23 21 23 18 20 12 16 18 15 16 12 10 10 7 6 9 6 8 1 6 4 2 3 5 8 7 9 9
18 16 2 4 2 5 11 13 2 3 13 22 24 26 27 25 30 29 28 26 25 23 23 19 19 17 15 13 13 13 12 12 13 9 8 6 5 6 6 3 3 3 4 3 4 6 5 4 7
10 16 5 9 10 10 5 4 11 13 15 22 25 27 26 26 29 29 28 27 26 24 24 21 19 15 13 10 9 11 10 9 10 11 8 4 3 5 5 3 2 2 6 6 5 7 3 4 6
17 12 16 13 15 9 12 11 18 15 19 22 23 24 25 24 29 27 27 27 27 24 23 23 20 18 15 10 10 11 8 10 9 10 8 6 3 4 2 4 2 1 5 6 6 6 4 5 11
17 18 15 20 17 17 22 9 23 18 20 21 22 22 23 24 28 28 28 26 25 23 23 23 22 20 18 13 13 11 12 10 12 9 9 7 5 5 5 5 4 5 6 8 4 10 3 0 11
15 15 21 19 22 21 20 5 24 21 20 20 20 22 22 22 26 28 29 28 27 26 25 23 21 21 20 15 14 11 10 11 10 12 11 9 7 5 5 6 6 4 5 4 4 10 8 3 12
17 18 17 19 16 21 18 16 19 19 21 20 20 21 22 23 24 30 30 29 27 26 25 24 22 21 20 18 14 13 13 10 10 10 11 8 7 5 3 7 6 5 4 5 1 4 11 3 6
17 16 20 19 15 16 17 12 28 18 19 20 20 21 22 24 27 31 31 30 29 27 26 26 24 22 21 19 18 16 16 13 11 11 6 7 6 6 4 5 5 4 6 2 5 4 2 3 7
18 14 15 16 14 10 16 15 11 18 17 20 20 21 22 23 25 29 32 32 32 31 29 27 26 23 23 20 19 16 15 14 11 10 10 9 8 7 6 5 7 4 6 5 3 3 7 6 4
18 18 17 13 11 16 11 19 15 15 20 20 19 20 22 24 26 25 31 34 33 33 31 30 27 26 25 21 19 15 15 11 12 12 10 11 10 9 6 7 1 4 3 8 6 5 7 1 3
19 18 18 15 13 13 20 13 21 18 18 22 20 19 22 24 24 25 29 33 35 34 33 30 30 27 27 24 23 21 18 17 15 13 14 14 12 11 9 8 6 5 4 6 7 6 6 3 8
18 16 17 17 17 16 21 17 11 28 24 23 23 22 22 24 26 28 30 37 37 36 35 33 31 29 28 28 23 24 21 19 17 15 14 9 12 12 11 10 9 7 7 6 4 4 7 6 5
18 17 15 14 15 17 24 18 19 20 17 25 24 24 23 24 25 26 35 35 36 37 36 35 34 32 30 30 30 24 25 20 18 17 15 14 14 14 13 11 10 9 6 6 8 6 7 7 5
16 15 13 14 15 18 23 23 19 18 21 25 28 26 25 24 24 24 26 32 37 38 38 36 36 34 35 32 31 26 24 26 15 17 18 17 17 18 19 15 12 11 10 8 8 7 7 8 7
26 22 13 21 15 21 24 26 24 26 17 16 39 21 26 26 24 25 26 34 36 38 38 37 37 36 34 34 33 33 27 25 26 21 19 19 18 15 19 17 15 13 12 10 10 9 10 9 9
17 24 27 25 22 19 19 25 24 25 27 19 19 19 20 27 25 25 26 34 36 37 39 41 38 39 37 37 33 32 32 30 26 26 27 18 18 15 15 15 15 16 14 13 13 12 11 9 10
16 17 18 18 25 26 18 22 20 25 22 25 21 14 15 22 25 23 24 33 37 40 40 39 37 39 39 38 37 35 33 32 29 26 23 24 19 19 10 18 17 17 17 16 16 14 14 12 12
16 19 20 19 18 21 19 16 13 21 24 21 25 24 18 17 19 19 22 33 37 37 38 41 39 36 38 39 38 37 36 33 33 27 27 24 21 18 19 15 17 19 19 19 18 18 12 16 14
23 13 22 16 22 17 21 16 14 11 20 20 20 21 25 23 18 20 21 29 34 36 38 39 41 42 41 41 38 39 37 36 34 33 29 26 26 23 20 20 19 20 21 21 21 20 18 17 16

GFSSGP_925_spd_054.txt.gz
Wind_Speed
11 11 9 5 3 5 7 3 7 14 9 4 11 16 12 8 3 10 31 26 29 24 18 15 14 13 14 13 14 14 14 12 11 12 11 11 12 12 12 12 12 12 12 13 11 13 12 12 11
12 11 11 2 3 3 1 3 15 8 13 15 20 16 17 14 17 23 22 31 26 24 20 16 16 13 13 13 13 13 12 11 11 13 11 11 11 11 12 11 12 12 13 13 13 13 13 11 12
9 2 1 2 5 6 1 6 10 4 16 10 14 15 8 17 26 27 32 31 28 25 25 19 17 15 14 14 13 13 12 11 11 12 11 11 10 11 10 10 12 12 12 12 11 11 11 11 11
8 5 3 4 8 8 6 8 14 10 12 15 15 13 15 34 21 30 34 32 30 29 23 20 17 15 13 14 13 13 13 13 12 12 11 11 10 11 10 11 11 12 11 12 11 10 9 10 11
8 2 4 6 2 3 9 5 12 11 11 14 15 16 10 21 28 33 31 30 31 27 24 19 18 16 14 14 13 13 14 13 12 13 11 11 11 11 11 12 11 12 13 12 10 10 10 9 11
1 3 4 3 6 2 3 13 14 11 9 5 15 18 6 23 34 30 27 25 32 28 25 19 17 16 15 14 14 13 13 13 14 14 13 12 13 12 13 12 12 11 11 11 11 11 12 11 12
9 5 10 3 8 10 5 5 12 14 4 6 14 11 10 16 31 28 27 35 31 29 24 19 16 15 15 13 13 14 14 14 14 14 14 14 13 13 12 12 12 11 10 11 11 12 11 12 12
9 3 11 7 9 5 16 9 12 17 12 8 16 8 19 19 31 27 26 32 30 28 22 22 17 15 14 13 13 13 14 14 15 14 13 15 15 14 13 14 12 11 10 11 11 11 11 14 15
12 6 8 3 6 4 18 16 16 15 13 16 13 17 28 35 31 27 24 27 31 27 25 21 20 17 17 14 13 14 15 15 14 12 14 16 12 13 10 10 12 11 11 13 12 10 7 6 7
8 7 6 8 12 9 9 18 19 11 16 12 14 25 35 36 29 26 21 25 25 25 27 26 25 22 21 18 15 14 15 14 13 12 10 10 12 11 9 9 10 7 8 11 15 15 11 2 6
19 15 12 16 10 18 16 16 18 10 17 19 21 25 28 31 26 23 27 29 25 26 24 27 30 21 17 19 18 17 18 15 12 8 9 9 11 8 9 6 6 3 5 8 4 9 14 17 4
19 20 17 2 10 8 9 14 5 15 10 11 24 26 24 25 23 26 28 30 26 26 26 27 24 19 17 16 18 12 18 21 14 10 5 5 9 5 7 3 10 2 3 11 8 16 15 16 3
19 20 7 6 12 7 16 8 6 13 19 8 25 28 23 24 27 30 26 28 25 25 25 28 27 21 22 14 15 18 17 18 17 13 7 12 4 5 4 4 4 6 10 4 8 9 8 17 10
17 18 16 2 10 11 13 9 15 18 16 22 25 28 25 23 27 29 27 27 25 26 28 24 26 27 19 13 2 13 10 16 12 11 11 7 8 5 4 4 4 4 6 8 7 7 2 9 15
14 19 11 14 10 10 9 5 9 23 16 25 24 26 26 23 31 28 26 24 24 24 24 24 20 13 12 11 9 9 6 7 13 15 8 5 5 4 2 4 8 5 4 7 6 4 6 14 10
12 17 16 17 16 13 15 10 13 15 6 23 25 23 25 25 29 27 28 28 26 25 26 24 20 21 15 11 6 9 16 7 14 10 9 5 5 5 4 4 6 7 8 7 6 6 4 10 12
14 15 20 21 24 18 18 10 10 16 19 23 21 24 22 21 20 28 29 26 29 24 29 25 19 21 18 13 14 14 8 8 10 12 10 9 4 4 2 2 5 7 3 7 7 4 4 6 9
16 17 18 18 18 22 15 6 14 9 10 25 23 23 22 20 19 26 28 27 30 25 26 26 20 22 21 19 14 10 8 7 11 12 11 11 7 10 5 3 4 7 9 5 5 7 2 5 6
21 19 19 17 17 20 14 12 5 11 9 15 21 22 23 25 22 28 29 28 30 28 25 24 22 26 24 20 15 14 15 9 14 14 11 9 9 8 5 8 5 5 3 6 4 3 1 4 6
21 20 19 14 17 19 20 17 18 10 16 22 23 24 24 25 26 25 29 31 30 31 30 25 24 29 26 21 20 16 19 18 16 16 15 9 7 8 8 6 8 6 11 7 4 4 4 6 3
19 19 17 19 14 12 13 19 17 15 16 17 25 24 23 25 27 24 26 30 30 32 33 30 26 28 27 20 21 16 13 13 17 19 14 12 10 6 5 6 8 7 4 6 7 3 2 4 7
19 16 18 19 17 12 16 15 26 21 21 5 24 24 24 24 23 23 25 29 32 33 34 33 29 28 30 25 22 18 14 13 18 20 16 19 14 11 9 7 6 7 4 9 5 5 1 2 3
18 17 14 17 18 18 18 15 17 29 18 17 28 23 25 24 25 25 26 32 34 36 36 36 34 28 29 31 24 24 19 17 13 15 21 22 17 14 13 11 8 5 8 7 7 6 8 6 2
18 14 19 16 15 16 21 19 16 15 20 14 13 19 16 26 25 26 34 34 32 34 37 36 37 34 30 36 28 27 26 18 15 17 23 20 20 17 12 12 11 9 5 10 8 7 6 5 1
17 15 12 13 13 17 20 18 16 20 26 34 20 12 33 26 25 25 26 28 33 36 39 39 40 38 35 32 33 25 31 29 19 17 18 20 20 22 21 17 14 12 11 8 10 9 7 8 3
19 18 14 18 14 18 20 20 18 24 16 33 33 29 9 26 25 25 27 32 38 39 40 40 41 39 39 34 36 31 28 32 27 14 18 14 16 21 25 24 18 15 12 11 10 9 10 9 9
21 20 22 23 20 17 17 18 24 21 21 13 16 20 23 11 16 25 24 31 36 36 40 41 42 40 40 41 35 35 29 29 26 21 21 17 20 13 22 25 19 15 15 12 13 12 10 9 11
14 14 14 15 22 23 18 20 14 20 18 14 14 14 14 12 18 10 22 29 34 38 38 38 38 41 40 40 38 36 37 34 28 32 24 24 19 20 20 22 20 19 17 16 15 15 13 12 13
13 16 14 14 13 19 16 16 17 13 22 19 20 18 23 30 17 8 15 27 34 36 36 39 37 39 39 38 38 36 36 36 38 27 33 25 28 17 19 16 18 19 20 18 17 19 15 17 16
16 20 18 13 17 15 14 17 22 17 14 17 16 13 23 22 21 20 11 40 36 37 38 39 39 38 41 40 38 38 36 37 36 39 28 33 27 27 18 21 17 19 19 20 21 21 19 17 19

GFSSGP_925_spd_057.txt.gz
Wind_Speed
8 8 5 3 1 2 4 3 2 7 6 4 15 12 8 10 2 3 28 25 32 25 22 18 15 15 14 14 15 16 15 15 15 14 13 14 14 14 14 15 14 15 14 15 15 14 14 14 14
12 9 5 2 1 2 3 4 9 7 12 18 17 15 10 5 9 15 21 33 31 27 21 20 17 16 15 15 14 14 14 13 14 13 14 13 13 14 14 14 14 15 15 15 15 14 13 14 14
11 7 1 1 3 2 2 10 5 12 16 9 6 8 6 6 20 16 28 34 30 23 22 21 18 16 15 15 14 14 14 13 14 13 13 13 13 13 13 14 14 14 14 14 13 13 13 13 15
7 2 1 2 9 5 2 11 10 2 13 13 15 11 9 17 16 22 40 34 31 28 22 21 19 17 16 16 14 14 14 14 14 13 13 13 13 12 13 13 14 13 13 13 12 11 12 13 17
13 2 2 3 8 2 3 11 13 8 8 14 23 14 9 17 28 43 36 33 36 31 26 22 19 17 17 16 15 15 15 14 14 13 14 14 12 13 13 14 13 13 12 11 11 11 12 16 17
1 1 3 1 6 2 6 7 8 13 13 19 22 14 6 31 34 30 33 33 36 30 27 23 20 17 17 16 15 15 14 15 14 15 14 13 13 14 14 14 13 13 12 11 12 13 14 17 17
3 3 4 3 7 2 6 12 7 9 11 12 11 11 10 22 30 31 28 38 33 31 29 23 21 18 17 17 15 15 14 15 15 16 15 14 14 14 13 13 12 12 12 11 12 12 14 15 13
3 3 3 3 3 3 7 2 7 4 5 8 14 8 17 21 33 32 31 36 34 29 27 25 22 19 18 18 16 15 15 15 15 16 14 15 15 14 13 14 12 12 12 13 12 11 10 11 11
15 2 5 6 5 2 1 4 7 10 11 5 7 12 27 33 28 38 35 35 33 28 29 23 22 19 18 19 16 16 15 15 14 15 16 16 15 14 11 14 13 11 10 12 12 11 9 11 12
12 4 8 5 4 7 7 11 10 10 11 6 11 22 27 30 25 30 29 29 31 31 31 29 24 22 18 17 18 18 16 15 16 15 14 7 12 11 12 13 12 14 11 11 10 10 7 7 6
13 14 15 17 7 14 17 15 11 9 11 7 19 23 23 22 23 23 30 31 33 35 33 34 28 23 23 20 19 17 18 15 12 11 9 12 11 13 12 11 11 14 12 10 9 6 7 8 9
15 18 20 21 12 14 16 5 4 2 6 4 20 27 23 19 19 22 28 28 31 33 32 36 31 28 22 21 21 19 17 15 14 11 10 8 11 13 8 10 12 8 9 7 11 14 12 13 14
15 17 19 5 13 21 15 13 10 8 8 7 16 21 22 16 19 28 32 30 26 37 39 34 33 27 23 19 18 17 19 18 15 13 11 12 8 9 9 12 8 8 7 6 9 6 4 5 11
15 17 16 11 12 19 18 9 7 9 14 10 20 23 20 16 20 24 30 27 36 36 38 36 33 28 25 14 17 16 18 16 21 13 10 8 9 7 7 11 8 8 3 9 9 13 8 8 9
13 12 13 8 8 7 12 4 4 13 14 20 19 20 19 15 24 20 21 28 31 37 40 33 29 26 19 10 16 12 15 20 18 16 10 9 8 6 10 6 7 11 10 7 7 7 17 9 10
10 8 6 10 7 7 8 7 18 16 13 17 20 17 19 18 24 24 23 27 36 40 37 31 26 28 19 17 16 17 23 15 24 17 13 11 10 8 10 8 6 9 9 9 7 8 19 16 14
7 6 8 13 14 6 8 12 17 24 17 17 21 21 18 15 22 27 25 34 37 41 38 30 27 29 21 16 15 16 11 17 16 14 15 11 7 9 9 11 10 10 8 6 5 4 7 11 14
9 8 8 12 17 15 15 14 18 18 19 14 18 22 21 18 20 27 29 34 40 45 38 35 31 27 23 17 17 15 11 13 13 13 12 9 8 8 12 13 10 6 12 6 5 5 5 10 9
16 15 14 11 16 17 18 20 21 22 23 18 14 17 23 20 24 24 28 33 40 43 38 32 35 28 23 21 19 13 18 15 15 16 15 9 8 6 3 9 12 8 11 11 5 7 3 5 6
19 16 16 15 13 8 20 18 16 22 22 20 12 24 26 20 18 21 27 32 36 38 38 33 32 33 28 25 24 17 19 18 15 16 13 13 12 8 8 10 13 7 11 8 7 3 5 5 7
16 11 12 11 16 8 12 5 6 12 15 17 5 5 12 24 19 14 21 32 34 36 40 37 35 37 32 27 25 17 20 18 20 19 18 16 15 10 10 8 9 10 10 9 7 5 3 2 8
10 10 12 13 8 2 5 3 7 7 6 12 12 4 10 16 22 15 19 28 34 37 42 39 34 39 34 29 30 23 17 18 21 24 20 20 16 12 10 11 10 9 9 8 9 6 2 3 5
13 10 10 10 7 7 13 1 7 15 7 9 11 12 22 15 25 23 24 29 35 37 39 42 37 39 38 32 30 26 19 15 24 23 27 22 18 15 12 13 10 11 6 10 7 4 6 2 2
12 10 11 6 4 7 11 4 1 13 18 16 22 25 28 18 24 26 33 29 30 37 37 41 41 41 39 37 31 29 24 20 16 27 23 22 22 19 16 14 12 11 10 9 8 6 4 5 2
7 2 3 3 5 8 7 5 8 16 19 24 29 23 20 18 17 24 23 27 28 36 37 39 42 40 42 40 34 31 29 26 20 20 21 29 25 22 20 18 15 14 12 11 11 11 8 8 5
7 9 5 8 6 7 8 6 7 11 25 26 26 21 24 18 6 20 24 31 31 37 39 38 40 39 40 43 43 33 32 31 26 15 27 30 26 26 26 22 19 16 15 11 11 11 12 9 9
6 5 9 5 12 4 6 8 10 12 11 26 21 17 10 9 7 8 12 34 34 33 39 42 40 40 41 43 45 42 34 36 33 26 18 25 24 24 27 28 24 19 17 16 14 12 10 9 8
8 4 5 4 6 6 6 9 5 6 18 24 22 22 17 18 11 4 6 14 31 34 36 36 38 39 39 39 42 43 41 40 38 33 26 19 24 19 12 32 28 23 20 17 16 14 12 12 12
1 2 1 0 1 4 6 8 8 3 18 23 29 26 22 18 20 16 13 18 20 34 33 38 37 39 38 40 37 38 39 41 39 35 33 25 22 18 17 29 28 25 23 18 18 18 15 17 16
11 3 0 3 7 3 3 8 11 12 18 5 11 22 25 24 17 17 18 21 28 25 38 38 38 42 42 40 38 37 38 40 42 39 37 34 28 26 18 25 27 26 26 23 21 21 19 18 17

GFSSGP_925_spd_060.txt.gz
Wind_Speed
8 9 8 1 2 1 3 3 1 10 4 6 16 3 4 5 1 2 22 24 33 30 24 22 20 18 16 17 18 16 15 15 15 14 16 14 14 15 14 13 14 14 14 14 15 14 13 14 15
12 10 2 1 1 1 1 5 1 9 10 17 11 7 5 3 5 14 15 33 34 30 25 23 20 19 17 17 17 16 15 15 15 14 14 14 14 13 13 14 14 14 15 15 14 15 14 14 15
13 7 0 1 1 2 1 10 8 5 4 5 5 8 4 4 14 21 23 37 33 28 25 22 20 19 18 18 16 15 14 15 14 15 14 13 13 13 13 14 14 13 13 14 14 14 14 14 15
8 2 1 1 6 5 3 3 3 5 10 7 10 8 4 8 19 17 34 35 34 28 24 22 20 18 17 16 16 15 14 15 14 14 13 13 13 13 13 14 13 13 12 12 12 14 15 17 17
2 1 2 2 4 1 10 9 7 9 7 6 4 6 8 13 21 38 36 34 32 28 25 22 20 18 18 17 16 16 15 14 14 14 13 12 13 13 13 13 12 11 11 11 12 13 15 16 16
1 1 2 1 4 6 5 5 8 5 10 10 10 10 3 25 36 31 31 34 31 30 26 22 19 19 17 16 17 17 15 14 14 14 13 12 14 13 13 12 11 10 11 12 13 13 15 16 15
3 2 3 3 3 6 5 3 4 11 12 7 7 6 6 20 26 30 32 35 32 30 27 23 21 18 17 17 17 16 16 15 14 14 13 14 14 13 12 11 10 9 10 12 13 14 15 15 16
2 1 3 2 4 5 7 8 3 7 7 8 11 7 11 20 27 29 32 33 33 31 28 25 22 21 19 17 17 17 16 15 14 13 13 13 13 13 13 13 11 9 9 9 10 14 15 15 15
3 3 2 4 4 5 6 5 3 3 10 5 3 12 24 32 29 31 28 27 27 27 28 26 23 22 20 18 18 18 16 15 14 13 14 15 15 14 13 12 10 11 11 11 10 14 16 14 12
5 4 5 5 5 6 9 4 8 6 9 7 3 18 26 31 30 29 26 25 24 28 27 25 23 21 21 19 19 20 18 17 18 17 14 14 13 12 14 13 9 10 11 12 13 12 12 12 9
5 6 5 13 15 6 3 2 5 6 7 8 20 22 21 24 29 28 26 31 33 34 30 27 24 22 21 21 21 21 20 19 17 15 12 11 12 12 14 13 11 11 9 9 9 10 12 12 11
6 12 14 9 12 6 4 5 4 4 4 8 19 23 21 20 25 28 27 27 28 31 31 30 25 23 21 22 23 24 24 19 16 14 11 10 11 14 10 12 9 7 5 7 10 10 11 10 13
11 19 14 13 19 19 16 17 4 4 8 9 17 18 20 17 22 30 31 28 30 28 30 31 29 25 22 24 23 21 20 17 15 16 13 14 11 11 6 11 7 7 8 6 6 9 11 13 15
7 8 9 19 17 12 11 6 4 8 10 11 17 19 16 11 19 29 28 26 31 31 36 33 31 25 22 24 22 20 16 15 16 18 16 14 9 13 7 12 7 9 6 6 7 6 6 8 12
12 9 8 13 22 12 10 2 10 12 10 13 14 17 15 8 20 26 26 30 33 35 37 35 34 28 24 20 19 18 19 18 16 17 16 12 11 12 8 10 8 10 6 9 9 7 10 11 15
4 3 4 8 20 11 7 5 4 12 12 12 16 16 15 7 13 24 21 31 39 35 41 38 34 31 23 18 19 18 17 22 21 18 16 16 13 9 10 10 9 11 11 11 8 8 11 7 15
6 2 4 9 13 11 9 5 11 13 21 17 17 17 15 8 10 20 16 32 33 44 40 38 35 28 22 16 15 17 17 22 23 17 14 14 13 11 10 8 12 11 9 10 9 8 13 13 12
3 3 4 5 5 10 6 6 13 13 15 20 19 19 18 15 13 21 19 35 35 42 42 39 37 29 23 17 14 16 19 20 22 18 15 13 11 14 11 13 12 9 8 10 10 9 9 14 12
3 4 9 16 13 6 10 15 20 16 13 18 17 16 19 15 15 22 21 33 37 42 39 38 39 31 28 23 20 19 21 20 18 18 15 12 11 12 17 14 11 7 12 8 7 6 4 8 10
5 7 14 15 8 6 14 18 18 20 16 16 16 16 18 17 16 19 26 34 35 38 41 39 37 37 31 27 23 18 19 16 19 18 15 13 12 10 13 16 13 11 11 9 8 6 4 8 9
8 7 12 12 3 8 8 6 13 9 10 11 11 11 5 16 18 15 21 33 33 35 40 42 39 37 32 28 24 17 17 19 18 20 18 16 15 12 12 15 13 9 14 11 9 6 8 10 7
7 7 14 11 2 3 5 3 6 11 10 9 10 15 15 15 18 16 23 32 38 35 41 43 41 37 32 29 27 24 21 19 22 23 20 18 17 14 13 11 13 13 12 12 10 7 5 7 6
13 13 11 2 1 4 2 4 5 15 15 16 20 20 19 21 20 21 24 33 36 38 38 43 41 39 34 31 31 29 21 24 22 23 23 21 19 17 13 13 14 15 12 11 11 8 6 6 3
12 6 5 5 3 2 5 6 5 15 23 23 19 21 20 23 19 17 28 34 33 36 36 40 42 41 38 35 32 34 29 21 22 27 28 24 23 21 16 15 15 15 11 14 11 9 8 6 4
5 6 3 4 2 5 3 3 7 24 19 26 28 28 26 17 17 11 17 30 33 35 35 37 41 40 41 38 35 35 32 26 20 30 31 29 27 23 23 20 17 16 16 14 14 11 10 9 6
3 9 6 6 2 4 3 4 5 14 20 26 33 25 14 14 11 14 20 28 38 39 38 37 38 39 43 42 38 36 34 31 26 23 31 32 32 28 26 25 21 18 18 15 15 14 12 11 10
3 2 7 6 1 4 4 7 5 12 5 14 20 16 19 17 15 16 26 31 35 39 41 41 40 39 43 45 43 40 37 35 33 23 26 31 32 30 30 26 24 21 20 18 15 15 13 13 12
1 3 3 4 4 4 5 5 4 12 15 6 13 20 18 17 16 13 22 34 31 39 41 40 42 41 44 44 44 44 42 39 38 33 25 26 27 31 28 30 28 24 22 20 18 15 14 15 13
7 6 5 5 5 5 3 4 2 9 14 15 16 21 17 17 16 11 15 26 27 32 35 37 37 39 36 39 41 40 42 42 40 38 35 29 24 29 28 28 32 29 25 23 21 18 15 15 14
5 8 7 4 1 3 4 4 2 11 16 18 16 4 8 8 4 6 14 21 27 31 34 37 38 40 42 41 38 39 43 46 43 42 42 37 31 24 30 26 28 35 30 25 24 21 19 18 17

GFSSGP_925_spd_063.txt.gz
Wind_Speed
7 9 7 2 1 1 3 2 2 4 2 6 17 6 5 5 1 3 17 22 34 28 24 20 17 16 17 17 17 15 15 14 14 14 13 13 13 12 12 12 13 12 12 13 12 12 13 14 14
11 10 1 1 1 2 3 4 2 7 9 13 6 6 5 4 4 10 16 33 33 28 24 22 18 17 17 17 15 14 14 13 13 13 12 12 12 11 11 11 12 12 11 11 12 12 12 13 13
15 4 2 1 1 3 2 2 8 9 12 5 4 7 4 3 8 20 21 39 32 28 24 21 19 16 16 16 15 13 13 13 13 12 12 11 11 10 12 11 11 10 11 11 12 12 13 13 13
8 1 0 0 4 4 3 7 3 2 8 11 1 7 5 10 17 13 36 37 32 28 24 21 19 17 16 15 14 13 13 12 12 12 12 11 12 11 11 11 10 10 10 10 10 11 13 12 12
2 0 2 3 3 2 4 7 2 3 4 2 5 4 8 10 14 32 33 35 32 27 24 20 18 17 16 15 14 13 13 12 12 11 11 10 11 11 11 10 10 9 9 9 10 11 13 12 10
1 1 2 2 3 3 3 3 5 3 4 4 6 7 3 20 31 29 28 32 30 28 24 21 17 16 15 14 14 14 13 12 11 12 10 11 10 11 11 10 10 10 10 10 10 12 13 14 15
1 2 2 5 1 3 3 4 2 8 9 6 8 4 6 18 27 27 30 29 29 26 24 21 18 17 15 15 14 14 14 13 12 10 11 11 10 10 9 10 10 11 11 12 13 13 14 14 13
2 0 4 3 3 1 5 3 3 8 3 6 11 5 11 19 28 26 27 28 28 26 23 22 19 17 17 15 14 14 13 14 12 11 12 10 9 8 9 10 10 11 13 12 13 13 15 14 12
3 1 3 3 3 2 7 5 2 5 6 4 3 6 22 30 29 27 23 23 22 23 24 22 21 18 18 16 14 13 13 13 12 12 11 11 10 9 9 10 8 11 12 14 12 12 12 11 9
3 1 6 5 0 5 10 5 10 5 9 7 12 21 28 27 30 26 24 22 21 25 24 22 22 20 19 18 16 16 14 15 15 14 13 11 10 9 9 8 8 9 12 14 13 11 9 9 7
5 4 3 2 3 6 9 6 6 10 9 6 19 23 23 26 25 24 24 27 28 30 26 24 23 20 20 20 19 18 17 17 16 15 12 9 8 9 9 9 9 10 12 11 12 11 9 6 8
4 7 9 4 3 6 7 5 6 6 4 11 20 25 23 19 20 25 23 22 25 29 27 26 23 22 20 21 20 19 19 17 15 13 11 9 8 9 9 8 7 7 8 6 8 10 9 7 9
8 6 7 9 10 6 9 5 5 6 3 12 19 22 20 17 22 23 26 22 25 28 28 28 26 23 21 22 21 20 19 17 14 12 11 11 10 10 8 7 5 5 6 8 10 12 11 6 7
3 6 10 8 6 5 3 2 4 7 7 15 21 19 18 18 24 22 21 22 25 29 30 29 26 24 22 23 22 20 17 14 12 13 13 12 10 10 8 9 4 6 5 4 5 9 6 5 9
10 9 10 6 9 3 4 4 5 13 13 17 20 18 16 18 24 23 24 27 33 33 31 29 27 24 22 23 21 18 15 12 12 14 14 12 9 11 9 10 6 6 2 4 4 6 6 3 9
4 4 1 3 10 3 5 4 8 13 15 17 18 17 18 17 24 27 27 30 33 30 33 29 28 25 23 22 19 18 16 15 15 14 16 12 10 9 8 10 7 7 6 5 3 7 9 6 8
6 1 1 1 15 4 7 4 10 12 16 15 17 18 18 12 20 25 28 33 33 37 35 32 31 26 24 21 18 17 16 17 16 15 15 13 11 9 8 9 9 10 7 6 3 11 9 8 10
2 2 0 2 4 3 10 8 11 14 15 20 18 17 18 17 16 24 29 34 33 36 37 36 35 30 24 20 19 17 15 16 19 18 12 12 11 11 9 8 11 11 10 9 7 7 8 8 7
3 3 4 2 6 6 12 8 17 15 12 15 17 17 18 18 15 23 29 35 35 34 36 37 36 35 27 23 21 20 15 16 19 19 14 9 8 11 9 12 11 9 8 9 7 5 4 8 8
5 4 4 7 5 4 4 6 8 12 11 11 12 12 14 14 13 17 26 28 29 35 39 39 40 36 32 27 24 23 17 17 19 16 13 11 8 9 14 12 11 7 11 7 7 5 3 6 9
3 6 3 6 5 2 5 2 5 3 1 6 9 11 9 17 17 13 24 28 30 30 36 41 43 39 35 29 24 19 19 16 16 17 15 14 12 9 12 13 11 8 9 8 7 5 4 7 9
6 5 5 5 1 3 3 3 7 6 6 8 12 14 16 20 18 12 22 28 31 34 37 42 43 42 37 30 26 25 23 16 16 18 17 15 14 12 10 11 12 8 10 10 8 6 4 9 7
10 6 7 4 4 2 2 3 5 8 11 20 17 17 16 18 19 18 22 29 33 35 37 38 41 43 39 35 32 27 23 21 17 16 17 16 15 15 13 12 13 11 11 11 11 8 6 6 6
3 1 4 4 4 1 6 5 3 8 17 14 13 17 18 16 14 11 23 28 31 35 37 37 40 43 42 37 34 30 26 21 20 16 20 20 18 17 16 15 12 12 14 12 12 12 9 6 4
5 6 2 2 2 5 2 4 8 13 13 19 22 20 19 13 13 15 16 25 30 33 36 36 39 39 42 39 36 31 30 25 19 19 22 23 22 20 20 17 15 15 14 12 13 12 11 9 6
5 9 6 5 5 4 1 5 2 8 13 9 14 18 16 16 15 17 17 29 32 35 36 38 37 37 42 41 37 32 31 30 25 20 19 26 27 25 23 22 18 15 15 14 14 14 12 11 10
3 3 5 8 2 3 2 5 3 13 12 10 14 14 16 17 17 19 18 29 32 36 37 40 39 38 43 45 40 36 31 33 32 26 20 22 27 28 26 23 21 20 16 17 16 17 16 14 13
5 3 2 3 6 4 2 4 3 13 15 15 7 16 18 14 16 15 17 28 33 37 39 40 43 44 48 46 43 40 36 34 34 31 26 20 24 27 27 26 23 22 20 18 18 17 16 15 15
7 6 4 3 3 6 4 1 5 6 8 10 9 11 14 10 7 10 15 20 29 32 34 34 34 36 36 41 44 41 40 36 35 33 31 28 20 23 25 27 25 25 23 21 20 19 16 16 16
16 4 4 4 5 3 3 2 7 7 8 11 13 7 6 5 5 6 7 13 9 15 24 29 30 33 34 39 42 42 43 41 39 37 36 32 30 23 21 24 25 26 28 26 24 22 20 19 17

GFSSGP_925_spd_066.txt.gz
Wind_Speed
9 9 5 1 1 1 3 1 3 3 3 0 15 6 8 4 4 3 13 17 32 26 20 17 14 15 13 13 12 13 12 11 12 12 12 11 11 11 11 12 11 9 11 11 11 12 11 13 14
11 8 1 1 1 2 2 4 3 10 9 12 7 7 5 3 3 7 12 31 31 27 22 18 15 16 14 13 12 12 11 11 11 10 10 11 10 10 11 12 12 11 10 12 10 10 11 13 12
12 2 1 1 1 3 2 3 6 3 14 2 4 8 4 2 6 17 22 35 31 27 23 19 15 15 16 13 12 11 11 10 10 10 9 9 9 11 11 11 11 12 11 14 11 10 11 11 11
6 0 1 1 4 4 4 7 1 6 6 7 3 7 4 3 15 10 35 34 31 26 23 20 16 15 15 13 11 11 10 10 10 9 8 8 8 9 10 10 11 11 12 12 12 12 11 9 10
1 1 0 2 3 2 2 5 2 7 5 2 3 4 6 2 9 30 34 33 30 25 22 19 16 15 15 12 10 11 10 10 10 9 8 8 7 8 9 9 9 10 12 12 12 12 11 11 14
1 1 1 3 2 3 3 2 8 4 6 8 7 9 4 18 25 27 31 31 27 25 22 19 16 14 13 12 11 10 11 10 10 8 8 9 7 8 9 10 11 12 12 12 12 12 12 13 12
1 1 2 3 2 2 3 2 2 6 6 5 13 6 5 13 25 25 30 28 25 22 21 17 15 14 13 12 11 11 11 11 9 10 8 8 8 8 10 10 11 12 12 12 12 10 12 13 13
2 0 3 2 4 3 3 3 1 4 3 6 11 6 8 15 25 28 29 27 22 21 20 19 16 15 14 13 11 11 11 10 10 10 9 9 7 8 9 10 11 11 11 12 12 12 11 12 11
2 1 2 3 3 2 8 3 4 4 6 3 4 9 20 27 29 26 23 24 20 19 19 18 17 15 15 14 12 11 11 10 10 10 9 8 8 8 10 10 11 10 10 11 11 10 10 8 8
1 0 4 3 1 3 8 8 9 4 7 7 12 22 28 26 27 24 22 22 21 18 20 20 18 18 16 16 14 14 12 12 11 11 10 10 9 9 10 10 10 10 9 10 9 8 6 5 5
3 3 2 1 3 6 7 3 7 6 5 5 21 24 22 24 23 22 21 22 22 20 22 21 20 19 18 17 16 15 14 13 12 11 10 9 9 9 9 11 10 10 9 8 9 7 5 2 5
1 7 6 3 5 4 5 7 3 7 2 18 23 23 22 18 21 23 21 20 23 20 21 22 20 19 18 17 17 16 15 14 12 10 8 7 7 6 7 8 9 9 6 5 3 4 3 1 4
2 6 7 8 4 3 7 5 4 6 5 19 21 19 18 17 21 20 21 19 24 25 24 24 21 20 18 18 18 18 17 14 12 9 6 4 4 4 5 4 5 5 6 5 5 4 5 2 3
3 6 11 9 2 6 5 3 3 4 11 17 21 19 17 17 22 18 19 20 26 26 26 25 22 21 19 19 18 18 16 13 10 8 7 6 5 6 6 3 3 5 4 4 5 4 2 3 3
5 4 7 4 3 4 7 4 5 10 17 21 21 17 16 17 21 22 24 26 30 30 27 26 24 22 20 21 19 18 15 11 9 7 8 8 7 7 3 3 3 5 2 3 4 3 0 1 2
3 3 3 2 4 3 2 3 3 10 16 20 23 19 17 16 24 23 25 27 27 29 28 27 25 24 21 22 20 16 14 11 8 8 9 9 6 7 6 6 4 3 3 4 3 5 3 2 1
5 2 0 4 5 4 2 3 5 9 14 18 18 17 17 16 19 24 26 29 31 32 30 29 27 25 24 22 20 16 13 12 9 10 9 10 5 6 5 6 6 6 5 2 2 5 4 2 2
3 3 2 2 3 1 3 7 6 10 12 14 16 18 17 17 17 25 26 31 32 33 32 31 29 26 24 22 20 17 14 13 12 13 9 9 8 7 5 6 8 7 6 4 2 3 4 2 2
2 3 2 3 3 2 5 7 10 10 10 12 13 13 16 17 20 25 26 29 31 30 32 30 31 27 25 24 22 20 18 15 13 13 12 7 8 8 7 8 9 9 6 5 4 3 4 3 2
4 2 2 4 3 4 1 5 5 11 11 12 15 16 13 12 13 19 25 27 31 35 36 34 32 31 29 27 25 22 19 13 13 15 13 10 8 7 9 8 9 8 7 7 6 4 2 3 3
2 3 2 3 5 2 2 1 3 3 1 6 9 12 10 15 15 17 22 27 29 30 38 39 37 35 33 28 23 20 17 12 12 14 14 12 9 4 9 9 8 6 11 7 6 3 1 3 4
1 6 4 2 2 2 1 3 3 4 6 5 9 10 12 13 14 15 22 24 28 33 37 40 40 37 36 31 27 26 23 19 17 16 15 12 11 7 5 10 10 8 7 8 6 4 1 4 3
6 7 6 4 3 2 3 3 4 3 7 14 12 14 15 13 15 14 20 26 29 28 36 40 42 40 39 35 32 27 24 21 17 16 15 12 10 8 8 8 9 8 8 8 7 4 1 2 2
5 5 7 5 3 2 5 5 5 2 6 4 15 14 16 15 15 14 23 26 28 30 31 34 38 41 41 38 34 31 27 24 19 17 15 15 12 11 11 9 9 9 10 8 9 8 6 3 3
5 6 1 2 2 5 1 4 4 8 8 12 11 16 14 16 17 15 16 23 26 27 30 32 38 39 42 41 38 34 30 27 25 21 17 17 16 15 14 13 12 11 9 10 9 10 9 7 5
6 8 5 5 5 4 1 4 4 4 9 9 4 11 13 15 14 16 16 24 27 31 34 34 36 36 40 44 42 38 34 30 26 22 21 17 18 18 15 14 13 9 9 9 9 11 11 8 7
4 3 3 7 2 3 2 5 4 18 16 19 14 5 13 16 17 14 17 25 27 30 33 36 36 37 39 44 44 41 36 33 30 24 21 17 17 19 20 17 15 14 12 10 11 12 12 11 11
5 1 2 3 4 3 3 3 4 14 17 20 19 12 8 10 13 13 12 21 25 28 33 35 37 40 43 44 44 42 39 35 32 28 24 20 14 16 19 20 18 16 16 13 12 12 11 13 14
6 5 5 4 3 6 4 3 5 7 10 15 16 14 5 7 6 6 7 15 21 23 25 29 31 33 32 33 38 38 39 37 33 33 30 25 20 15 18 20 18 19 18 16 16 14 13 13 13
5 3 3 4 3 2 4 2 5 8 9 12 17 16 17 13 9 6 9 9 13 20 22 25 27 28 33 39 38 40 41 39 37 35 35 31 28 24 16 17 16 17 20 19 19 18 16 16 15

GFSSGP_925_spd_069.txt.gz
Wind_Speed
9 9 5 2 2 1 2 4 5 8 6 2 17 7 9 1 1 2 13 14 25 22 17 15 15 14 14 14 15 12 13 14 13 12 12 12 12 11 11 11 9 10 10 11 12 11 12 12 12
10 6 1 1 2 2 2 4 14 9 3 18 10 10 5 4 3 9 16 24 26 22 17 15 15 12 14 13 14 10 12 12 12 11 12 11 11 12 12 12 13 11 10 10 11 11 12 12 12
9 1 1 1 1 1 2 3 10 6 8 8 5 6 3 2 4 23 15 27 25 20 17 15 16 13 13 13 13 10 11 11 12 10 11 12 12 12 12 13 13 12 12 12 12 12 11 10 13
4 2 1 1 3 2 4 8 7 9 3 5 7 7 4 4 17 10 27 27 24 20 17 15 15 14 13 12 11 10 11 10 10 10 11 12 12 11 12 12 12 12 13 12 13 11 9 9 10
2 1 1 2 2 1 8 9 8 9 5 2 2 4 4 7 7 25 26 25 24 20 17 14 14 14 13 11 11 10 9 10 10 11 11 11 12 11 12 11 11 12 13 13 12 11 11 12 14
1 0 1 4 7 5 6 9 6 8 7 6 7 8 4 10 20 24 23 23 22 20 17 14 14 13 11 11 10 11 9 10 9 10 12 12 13 13 13 12 13 13 13 13 13 13 13 13 15
1 1 3 4 6 3 4 3 15 9 8 8 13 5 5 11 23 22 22 21 20 18 16 14 12 11 11 11 10 10 10 10 10 10 11 12 13 14 13 14 14 13 12 12 12 14 14 14 13
1 1 3 3 9 5 6 3 1 8 5 14 11 6 10 18 26 22 21 19 18 17 15 13 12 11 11 10 11 11 11 9 11 11 12 13 13 13 15 15 14 12 12 11 12 14 14 13 13
1 2 2 5 8 5 8 5 2 3 13 3 8 7 20 29 27 24 22 18 16 15 15 13 12 11 11 11 11 11 10 11 12 10 10 11 11 12 13 14 13 12 12 11 12 11 11 13 12
2 2 2 2 4 4 8 7 6 4 11 7 13 18 30 30 28 26 23 21 18 17 15 14 13 12 12 10 11 11 10 9 9 9 10 11 11 11 12 12 12 11 10 10 8 8 9 10 9
2 2 2 4 5 7 11 10 12 8 6 7 20 24 27 30 27 24 22 20 19 17 15 15 14 13 13 11 11 10 10 10 10 11 10 11 10 10 10 9 9 9 8 7 5 5 6 7 6
3 6 6 1 2 3 5 9 8 10 3 9 19 25 30 24 25 25 23 20 18 17 15 15 15 14 13 12 11 11 10 10 9 9 10 10 9 9 9 8 8 7 6 5 4 5 6 6 4
9 5 5 5 5 4 6 8 4 10 9 18 23 23 23 22 24 22 20 19 17 16 16 16 15 15 14 13 12 11 10 10 8 8 8 8 6 6 6 6 6 5 5 5 6 7 8 6 5
2 6 12 5 3 5 7 5 5 8 16 20 23 23 22 21 25 21 20 21 20 18 18 18 16 15 14 14 15 13 10 9 7 5 5 4 5 5 3 4 4 4 5 5 5 5 7 7 7
3 6 4 5 5 5 9 6 5 15 20 19 17 20 21 22 25 24 24 23 21 19 17 18 17 15 14 14 15 12 10 8 5 4 3 3 2 2 1 3 3 6 4 4 3 3 6 6 5
3 3 3 5 6 4 5 3 7 19 20 20 19 19 19 21 26 23 22 19 18 18 19 18 17 16 15 14 16 12 11 8 5 4 4 3 1 0 3 5 4 4 6 5 4 3 4 6 5
2 5 4 3 3 5 5 4 8 16 15 17 18 20 20 19 22 22 21 20 20 19 20 19 18 18 17 15 14 13 11 9 6 5 3 3 2 1 3 4 5 5 6 5 4 5 4 3 4
8 5 3 4 4 2 2 3 8 13 14 15 16 18 19 19 20 22 20 20 18 19 19 19 18 17 18 14 14 11 9 10 9 6 4 4 4 3 3 6 5 7 5 5 5 5 5 4 2
3 3 3 2 2 2 3 6 6 13 14 16 18 19 20 20 23 23 22 21 18 17 19 21 21 20 19 17 15 12 11 9 9 9 8 5 6 5 4 5 9 7 5 4 5 5 3 2 1
4 4 2 1 4 3 3 6 3 11 15 17 19 20 20 20 19 22 23 22 22 23 22 21 21 23 22 18 15 10 11 9 8 9 9 7 4 5 7 7 9 8 6 6 5 4 3 3 3
6 6 4 0 3 2 1 2 1 4 8 13 16 18 19 20 22 20 24 25 25 23 24 25 26 26 24 18 16 14 11 9 9 10 11 8 5 4 9 9 8 6 6 5 6 4 2 3 2
8 7 5 3 2 3 2 1 2 5 10 12 15 18 19 21 20 19 25 25 26 27 27 25 27 27 26 25 18 17 15 12 11 12 11 9 8 6 7 10 8 6 8 7 6 4 1 3 4
4 7 4 3 2 2 4 4 4 3 2 10 13 16 21 21 22 22 27 29 28 26 25 27 27 25 24 27 22 17 16 14 10 10 12 11 10 8 7 7 10 10 7 9 8 5 2 2 3
10 7 4 3 2 5 5 4 4 5 7 7 10 17 19 21 21 23 29 28 28 27 25 23 24 31 27 26 27 22 18 16 13 12 12 11 10 9 9 8 9 8 7 9 7 7 5 3 2
9 10 5 6 5 6 2 6 7 7 8 10 14 15 21 20 20 20 23 28 28 27 24 23 23 25 27 28 27 28 22 21 20 17 14 12 11 11 11 11 10 9 8 9 7 9 8 5 4
12 13 5 7 8 9 3 7 7 10 9 12 12 6 13 19 20 21 25 30 29 28 27 25 23 25 26 27 30 31 28 22 20 19 16 14 13 12 11 12 10 8 9 9 9 8 7 8 6
6 8 1 4 2 8 4 3 5 15 18 19 19 13 5 14 19 20 24 29 30 29 28 27 25 25 27 30 28 29 29 28 22 20 21 16 15 12 13 12 11 10 9 8 9 8 9 9 7
1 4 7 3 7 9 3 4 5 16 18 19 20 19 10 8 14 15 20 24 26 28 28 27 27 27 31 30 29 28 28 30 27 24 24 20 18 16 13 15 15 13 12 12 11 10 9 10 8
1 3 2 1 2 6 7 5 6 10 12 14 16 18 18 11 4 9 12 17 21 22 24 26 25 24 25 26 28 27 26 28 28 25 26 25 22 17 14 15 15 15 15 14 14 12 11 11 10
8 4 1 7 6 2 1 5 7 10 12 13 16 17 19 19 17 14 3 4 13 16 18 21 23 24 26 27 28 29 32 28 25 29 28 29 26 23 18 15 15 15 16 16 16 13 13 12 11

GFSSGP_925_spd_072.txt.gz
Wind_Speed
10 8 4 4 4 5 4 6 5 12 9 3 13 6 9 4 5 5 24 22 25 21 18 17 16 15 15 16 13 15 14 14 12 13 13 13 12 12 12 10 10 11 11 12 12 13 13 14 14
10 7 5 3 5 4 4 7 8 3 7 16 8 10 5 10 9 17 22 27 25 22 19 17 16 14 14 15 13 14 13 14 13 13 12 13 12 13 13 13 12 11 11 12 12 13 13 13 15
9 5 4 3 4 1 5 6 8 8 10 10 6 8 4 4 8 24 26 29 24 20 19 17 16 15 13 14 12 13 12 14 12 13 13 13 13 13 13 13 13 13 12 12 12 12 13 15 14
7 5 4 3 3 3 6 10 13 6 4 4 10 9 7 1 22 15 29 27 23 20 17 18 16 14 13 13 12 13 12 12 13 13 13 13 13 13 13 13 13 13 12 12 12 13 13 13 15
7 3 3 2 4 5 9 12 10 7 3 6 4 8 7 14 11 27 27 25 22 19 17 15 15 13 12 11 11 11 12 11 13 13 12 13 13 13 12 14 13 14 14 13 12 12 14 15 15
2 3 2 6 9 9 11 12 9 8 7 6 7 8 5 11 23 27 25 23 20 19 18 14 14 12 11 11 11 10 11 11 12 14 13 14 14 14 14 14 14 14 14 13 14 15 16 17 16
5 2 5 8 7 9 8 11 9 11 9 6 7 8 10 18 25 25 23 21 18 17 16 14 12 10 10 10 11 10 11 12 13 13 14 14 14 15 15 15 15 14 14 16 18 16 15 15 15
3 4 3 8 9 8 8 8 11 9 8 13 10 6 17 25 26 24 22 21 17 15 15 14 12 11 10 9 10 11 11 12 13 12 13 15 16 16 15 16 15 14 16 16 18 17 15 15 15
4 4 7 11 12 8 8 4 5 3 9 3 7 6 26 31 27 25 23 21 18 15 13 12 13 11 9 10 11 11 11 13 14 12 13 11 13 13 14 14 14 13 14 15 15 15 14 15 15
3 2 11 8 11 11 9 7 7 6 7 5 7 12 30 32 28 27 24 22 19 16 14 13 12 12 11 11 11 10 10 10 11 11 11 12 11 12 13 12 12 12 13 14 13 13 13 10 9
5 2 3 9 10 10 12 10 8 8 9 8 13 23 29 31 28 26 23 21 20 17 14 13 12 12 11 11 11 10 11 11 12 12 11 11 12 11 11 11 10 10 10 10 9 9 10 9 10
4 3 1 5 6 6 7 9 9 12 1 6 14 24 30 25 25 25 23 20 19 17 14 13 12 12 10 10 9 11 11 12 12 12 11 11 12 12 10 10 9 8 9 8 8 8 8 8 9
7 4 2 4 3 2 4 9 4 11 13 13 19 25 25 22 24 23 21 19 17 16 14 14 13 12 10 10 10 10 11 11 12 11 10 10 10 10 9 8 7 6 7 8 9 9 8 9 10
4 8 6 4 1 5 7 8 9 11 14 17 22 24 23 22 25 22 20 19 18 16 16 15 14 12 11 9 10 10 10 11 10 9 8 7 8 8 7 8 7 6 7 8 8 9 8 9 10
6 9 8 2 5 8 8 9 6 14 15 19 21 21 21 22 24 22 19 18 18 17 16 16 15 13 13 11 10 10 9 9 9 8 7 6 5 5 6 6 6 6 5 5 6 7 7 8 8
11 8 11 7 7 6 9 9 13 15 16 17 19 20 19 20 24 21 20 18 18 17 17 16 15 15 14 12 11 9 8 8 7 6 6 5 3 5 5 6 7 5 6 6 5 6 7 7 7
11 12 12 8 4 8 8 12 13 15 15 16 11 16 18 19 21 21 20 18 18 18 18 17 15 15 14 13 12 9 8 7 6 6 5 3 2 6 6 6 5 5 6 5 6 6 5 7 7
16 14 12 9 9 9 9 12 13 15 17 15 16 17 18 19 21 23 20 18 16 17 17 17 16 15 15 13 11 10 9 8 6 5 4 3 3 5 6 8 6 7 6 7 7 6 5 5 4
11 15 14 6 8 6 4 5 10 15 16 18 15 15 18 19 24 25 22 19 17 17 18 18 18 17 17 16 15 12 11 8 7 6 4 3 4 2 7 7 8 6 6 6 6 7 5 6 4
10 13 10 6 6 6 7 6 7 14 15 16 15 18 19 20 20 24 22 22 19 19 20 19 19 18 18 17 15 12 9 8 7 7 7 5 5 5 5 6 8 7 7 6 6 3 6 4 2
13 14 12 6 7 4 5 8 8 8 12 11 15 17 18 20 21 20 23 24 21 20 20 20 19 18 18 16 15 11 9 6 7 8 8 7 6 5 8 8 8 7 6 8 5 4 1 6 2
14 9 5 9 8 10 8 7 8 10 11 10 12 14 16 19 20 22 24 26 24 22 20 19 19 18 18 17 15 13 12 10 9 9 9 8 7 6 8 9 8 6 7 6 6 4 1 3 7
5 9 12 9 10 2 10 9 9 7 11 10 12 15 17 16 15 21 26 27 25 23 21 20 18 19 18 18 16 15 13 11 8 8 8 8 8 6 7 10 9 7 8 7 6 5 2 4 2
9 10 8 7 10 11 11 13 8 5 3 1 12 18 17 18 20 22 26 27 27 25 23 21 21 21 20 19 19 17 13 12 10 11 9 9 10 9 9 8 10 10 7 8 7 6 4 3 2
14 14 9 9 9 9 15 9 11 7 6 5 4 10 19 18 19 20 20 26 27 27 25 23 22 22 22 22 20 20 17 14 12 10 11 10 10 10 10 10 9 8 9 9 8 8 7 5 4
18 18 8 11 12 13 8 10 7 9 9 9 10 3 15 19 19 20 22 26 27 26 24 23 22 21 23 24 23 20 18 16 16 15 12 13 10 9 10 11 10 9 9 10 9 9 10 8 5
19 18 13 7 4 12 12 12 13 7 11 14 16 11 3 15 16 18 22 24 26 27 27 25 22 20 21 23 22 21 20 20 18 15 13 14 11 10 10 12 12 10 10 11 10 10 9 8 9
6 13 10 9 12 14 12 17 9 7 11 14 17 18 13 4 10 13 18 21 23 25 26 25 24 22 21 20 22 22 22 20 19 17 16 14 13 13 12 14 13 12 12 10 10 10 10 11 10
9 10 10 12 8 13 9 7 6 7 10 12 14 15 17 20 17 14 9 15 15 19 22 23 24 23 21 20 21 22 22 22 20 20 18 18 16 15 16 15 15 14 13 13 12 10 9 11 11
3 4 9 11 13 8 7 7 7 9 12 11 13 14 16 17 17 18 25 29 20 11 17 20 21 23 23 22 20 23 22 21 21 21 21 19 19 18 16 14 16 16 16 15 14 13 11 12 12

GFSSGP_925_spd_075.txt.gz
Wind_Speed
8 7 9 6 5 6 3 4 3 11 9 6 13 10 14 21 10 10 32 27 27 24 21 18 15 15 13 12 14 12 11 11 11 12 11 12 12 12 12 11 13 13 13 14 14 14 16 16 16
10 6 7 5 7 3 4 7 9 6 6 14 8 12 13 15 12 25 25 27 26 24 22 18 16 15 14 12 13 12 12 12 12 12 11 13 13 13 14 13 12 13 13 14 14 14 15 16 16
8 6 4 3 8 3 7 9 7 7 12 7 10 14 11 8 24 23 31 28 26 24 23 19 17 15 14 12 12 13 12 12 12 13 13 13 13 14 13 13 13 13 13 13 13 14 16 15 16
9 4 5 5 7 6 9 13 13 4 7 3 12 12 9 13 23 30 29 27 24 24 21 18 17 14 12 12 12 12 12 12 12 12 13 12 12 13 14 14 13 13 13 13 13 15 15 16 14
6 4 5 4 7 7 14 15 10 11 3 6 5 10 14 17 21 30 26 26 23 26 20 16 16 14 12 12 11 12 12 13 13 12 12 12 12 11 13 13 15 14 14 13 13 13 13 15 15
2 4 3 3 14 12 13 10 7 6 6 7 18 17 9 15 28 28 24 23 23 21 22 16 15 13 11 11 11 12 12 13 13 13 13 12 12 12 13 13 15 14 14 15 16 18 16 14 14
8 5 5 4 14 10 15 13 11 12 9 6 14 9 13 21 28 27 23 23 19 25 19 16 14 11 11 11 12 12 13 12 13 13 13 13 12 13 14 15 15 16 17 18 17 17 15 14 14
7 3 3 7 11 12 10 14 13 11 10 10 16 9 21 26 28 25 23 22 20 22 16 18 14 12 12 10 11 12 12 13 12 12 13 18 19 16 15 17 17 17 18 18 17 16 16 15 16
10 3 5 8 11 14 17 10 12 5 10 4 6 13 28 31 28 25 22 21 17 12 16 13 16 13 14 12 11 10 12 13 14 12 11 12 15 15 14 17 16 16 16 16 16 16 16 20 18
3 2 10 9 16 12 11 9 10 8 11 12 9 27 32 30 27 25 22 21 20 17 14 13 15 14 13 14 12 10 12 11 10 10 6 7 17 16 15 13 14 16 16 16 16 14 10 13 13
2 1 4 12 14 18 12 6 5 5 8 12 17 25 27 28 26 24 22 21 19 17 16 18 12 13 15 12 12 10 12 10 9 7 7 11 12 15 13 13 12 9 10 9 9 5 7 5 7
8 10 6 10 11 16 17 13 9 4 4 2 14 24 25 24 23 24 22 20 20 16 13 14 13 14 12 11 10 9 13 12 12 11 10 10 11 9 8 14 11 7 10 7 9 12 11 8 10
6 7 5 5 8 7 6 10 12 8 9 8 16 24 24 22 24 23 20 19 19 16 14 15 13 10 8 8 11 11 12 18 10 12 5 8 12 9 9 5 9 9 9 7 9 10 10 10 10
9 6 4 5 6 6 8 11 10 15 15 12 20 25 23 22 24 21 20 17 18 17 14 15 13 10 9 8 7 9 4 11 13 11 8 7 9 8 9 7 8 7 9 8 10 6 9 8 10
5 11 10 9 8 8 8 10 7 15 15 17 21 23 22 21 24 21 20 18 17 17 15 16 14 14 11 11 11 7 10 10 15 10 8 6 7 4 6 6 8 7 8 7 7 7 6 12 9
13 15 14 11 10 11 12 8 17 16 15 17 20 21 20 19 23 22 19 18 19 18 17 16 15 15 13 12 11 8 7 4 8 10 9 5 4 6 3 6 5 7 7 8 5 5 2 11 10
14 14 16 13 13 14 11 15 18 16 14 16 12 19 18 18 19 22 19 19 19 17 18 17 14 15 14 12 10 9 8 7 5 4 10 7 5 5 4 6 5 4 3 4 8 5 6 7 11
18 20 19 14 11 12 13 3 17 18 17 18 16 9 16 17 18 23 21 19 20 18 18 17 15 15 14 13 10 10 9 9 6 6 5 5 7 5 5 5 7 6 9 6 9 1 8 3 8
16 18 15 11 16 15 14 13 16 19 18 15 12 12 16 15 21 23 22 19 21 20 19 18 17 16 15 14 14 11 11 9 8 8 6 4 5 7 6 8 6 6 8 10 6 6 2 2 2
18 19 15 13 6 11 7 8 16 15 20 19 19 15 17 16 19 22 23 21 19 21 20 19 18 17 16 14 13 10 12 11 11 10 6 4 5 6 6 10 10 6 8 5 3 3 7 6 2
16 15 15 15 10 15 12 11 14 15 16 20 15 18 16 18 18 18 21 22 19 20 20 21 20 18 17 14 12 7 4 2 5 5 7 7 5 6 5 6 4 7 5 11 5 4 2 2 2
18 16 12 10 16 12 15 7 19 20 16 18 16 19 18 18 17 17 21 23 23 21 21 21 20 19 19 15 15 12 12 12 11 11 10 8 7 6 8 8 5 8 5 12 7 3 3 2 6
12 13 8 11 15 13 15 9 4 21 20 16 16 14 19 22 20 16 22 25 20 24 23 22 20 19 19 18 12 13 15 10 11 8 11 7 8 7 9 10 8 7 8 5 6 4 4 3 3
7 9 11 12 14 15 10 17 11 8 8 15 16 13 14 13 23 19 22 26 24 25 25 23 22 20 18 18 16 13 11 11 6 12 9 9 9 9 8 10 9 8 7 7 7 6 4 6 4
13 14 10 11 12 11 18 16 12 11 8 6 15 16 18 12 14 18 12 30 27 25 27 25 22 21 20 19 17 16 13 10 9 3 9 11 12 11 13 10 10 9 7 7 8 8 5 4 4
17 20 12 12 13 14 16 11 10 11 11 8 2 14 19 20 21 21 23 28 27 26 28 26 25 22 21 20 19 17 16 14 14 11 12 9 12 14 16 11 10 10 10 8 9 9 9 10 7
18 19 24 14 14 14 13 15 12 13 12 12 11 10 15 17 17 22 23 27 28 24 29 26 25 22 21 21 20 18 18 17 15 13 11 10 10 8 11 10 11 10 9 10 10 11 12 9 9
12 14 20 11 17 15 16 19 11 12 10 11 12 14 18 18 14 15 11 10 29 27 27 27 25 23 21 20 20 20 20 18 16 13 14 12 9 10 7 13 11 11 10 9 10 13 11 11 10
12 12 16 13 16 13 10 9 12 12 9 11 11 12 16 16 15 16 20 18 24 22 22 28 27 24 22 20 19 18 19 20 19 18 16 16 13 10 9 6 10 10 11 12 12 12 8 11 12
14 15 17 12 19 15 7 8 12 13 13 14 11 11 14 15 15 14 21 24 23 25 25 11 23 26 24 22 20 19 18 19 20 19 19 17 17 15 14 12 13 14 14 13 14 14 12 12 13

GFSSGP_925_spd_078.txt.gz
Wind_Speed
7 8 10 11 4 6 3 6 3 10 15 11 18 16 17 16 6 14 31 28 27 24 21 18 17 14 13 15 14 13 12 12 12 13 13 13 12 12 11 12 13 14 15 16 17 17 17 17 16
10 9 7 3 5 3 3 7 5 5 9 15 22 20 19 22 26 26 26 29 28 24 21 19 19 15 14 14 13 13 12 11 12 12 13 13 13 13 13 11 13 14 15 16 16 17 17 16 16
10 4 3 3 7 3 6 6 4 2 10 12 14 12 7 22 26 26 36 33 28 27 23 20 19 15 14 13 13 13 12 12 12 13 13 13 13 13 13 12 13 14 15 16 16 16 17 15 16
6 3 4 3 9 4 12 11 4 1 7 12 18 13 22 26 31 32 33 31 30 27 22 20 20 16 14 12 13 12 12 12 12 13 12 13 13 14 13 13 14 15 15 15 16 16 15 14 19
6 2 4 2 9 13 16 11 6 3 7 13 14 20 21 28 32 29 32 34 30 26 22 19 18 16 14 13 13 12 12 12 12 12 12 12 12 13 14 14 16 15 14 13 14 16 14 17 18
2 3 2 2 12 12 11 9 6 6 14 16 24 20 15 32 29 30 33 33 28 25 22 18 16 15 14 14 13 12 12 12 13 13 12 12 14 14 14 15 15 14 15 15 15 15 14 16 17
10 4 2 4 12 8 8 10 10 10 16 16 16 19 13 25 25 31 42 29 29 26 22 17 15 15 14 13 12 12 11 12 11 12 13 14 14 15 15 15 15 16 16 16 16 14 14 16 16
3 4 2 2 11 15 12 13 11 3 14 11 11 16 20 26 27 30 27 25 26 25 23 24 17 15 15 13 13 12 12 11 11 13 13 17 17 16 17 18 16 16 16 15 16 15 18 21 20
4 3 3 0 13 12 15 14 13 9 8 9 4 21 28 30 28 31 29 31 19 18 26 22 22 21 18 13 12 12 12 12 13 13 13 16 18 15 13 15 15 15 15 15 16 15 18 19 17
5 3 8 12 19 16 15 12 14 10 3 8 12 26 31 29 27 27 25 32 26 17 21 30 24 22 18 13 16 13 11 7 6 8 9 12 19 16 14 15 15 14 13 14 13 15 16 11 9
9 4 6 13 18 17 15 10 4 5 10 15 23 27 26 27 23 24 24 26 20 21 28 24 17 20 21 12 20 12 19 17 9 7 7 17 16 15 17 18 15 14 13 3 6 7 7 2 10
4 9 9 13 18 16 15 11 8 13 6 8 23 25 23 22 17 23 20 22 24 29 27 25 23 16 13 9 12 13 15 13 10 9 10 10 12 13 8 13 10 8 10 5 9 5 5 9 14
8 17 13 10 21 21 16 14 9 7 3 10 21 23 23 19 19 22 21 22 24 29 29 28 20 13 7 11 11 12 14 16 10 8 4 11 11 8 14 8 11 8 7 10 9 9 8 10 11
11 13 8 11 13 11 14 16 14 3 8 14 21 23 21 19 22 15 21 22 22 16 29 25 21 15 9 14 12 14 13 10 12 11 8 6 10 6 6 10 8 14 13 12 11 7 10 9 8
12 20 10 9 12 12 16 12 8 17 17 19 24 22 21 17 25 18 19 22 23 17 24 22 18 16 6 11 14 16 3 13 17 10 7 3 12 5 3 8 11 6 8 9 5 5 9 14 8
14 12 14 17 14 15 14 9 15 17 16 19 25 22 19 17 18 20 15 21 22 17 16 18 23 20 12 12 9 7 9 14 13 9 10 3 8 5 12 3 12 9 6 10 7 3 8 11 11
13 14 20 1 14 18 11 10 14 13 18 19 20 21 17 15 13 22 18 21 21 23 14 15 22 21 17 14 10 7 7 9 3 10 9 10 9 8 7 6 7 5 5 11 6 5 5 6 4
18 19 13 20 17 17 14 10 13 16 17 17 16 17 16 18 14 16 21 23 23 23 16 15 17 22 16 15 9 10 12 7 8 9 11 7 6 5 4 9 12 5 4 12 3 3 4 6 4
20 18 18 16 11 15 16 18 21 14 16 17 18 6 12 12 25 15 20 22 25 24 20 16 14 22 16 15 12 14 14 9 10 7 7 9 8 6 9 7 10 2 9 11 5 4 1 5 4
22 21 16 12 15 22 19 14 13 15 20 21 20 11 8 8 10 18 23 23 21 26 24 20 15 20 18 16 16 20 15 12 10 11 6 8 8 8 3 8 6 8 10 11 3 3 5 6 5
20 18 11 17 7 19 16 17 22 24 19 21 19 18 16 15 12 19 17 22 20 20 26 24 19 22 21 17 14 9 10 11 7 11 13 12 8 9 7 8 4 7 3 7 6 3 4 4 2
17 19 20 22 21 11 17 9 21 22 21 20 20 21 20 18 15 13 26 26 26 28 24 26 21 23 23 15 14 12 13 17 16 13 14 15 12 11 6 9 5 6 2 10 8 2 1 5 8
16 18 15 9 16 12 18 8 12 9 23 22 22 24 22 19 19 18 22 25 27 27 25 27 25 22 21 19 12 12 8 6 5 9 15 11 11 9 11 10 7 6 7 11 5 5 4 5 8
18 16 14 5 11 12 16 15 11 9 10 12 20 18 7 17 20 20 24 29 24 28 27 28 26 23 21 22 14 15 9 9 12 8 16 11 13 10 11 10 10 5 6 9 10 4 0 5 6
18 15 8 9 10 9 17 14 11 14 10 8 19 23 24 26 9 19 16 26 29 28 30 30 28 24 22 23 18 15 13 8 14 12 16 14 13 15 17 14 12 10 7 8 8 8 3 4 4
19 18 10 16 13 13 18 14 12 22 28 34 15 15 18 24 21 9 20 23 23 27 27 32 31 26 24 24 20 19 14 10 12 15 15 12 7 9 5 11 11 10 8 8 8 8 10 6 6
19 18 20 18 19 15 10 13 17 16 11 12 14 21 20 20 14 3 27 25 22 30 27 33 34 30 27 25 22 21 20 17 13 16 14 9 6 13 13 12 12 10 11 9 11 12 12 9 12
3 14 17 14 10 18 12 19 14 17 13 12 13 16 16 16 15 15 20 11 33 28 29 32 34 32 29 26 25 23 22 20 18 10 9 6 12 13 6 13 13 12 12 10 11 11 11 11 12
8 13 11 16 15 15 6 6 13 13 12 9 13 17 15 15 14 6 18 19 15 15 3 19 31 30 25 25 26 25 25 23 19 16 11 15 7 4 16 19 12 12 13 12 13 13 8 13 14
14 14 16 13 20 14 8 4 11 13 13 10 10 14 18 16 13 13 16 11 12 25 18 12 15 10 25 25 24 25 25 23 22 20 17 15 15 14 11 9 10 17 13 14 14 13 12 14 13

GFSSGP_925_spd_081.txt.gz
Wind_Speed
7 9 6 3 1 4 3 7 1 6 6 20 8 14 9 9 6 6 30 32 28 27 23 18 14 15 14 15 14 13 14 14 13 15 14 13 14 14 16 16 16 17 18 18 18 18 18 19 21
8 9 9 3 1 3 3 4 8 5 3 19 19 21 21 12 17 23 25 32 27 27 23 20 16 17 15 14 14 13 13 13 13 14 14 15 14 15 15 16 16 17 17 17 17 17 16 19 19
11 10 1 2 3 6 7 7 2 3 7 13 7 13 10 16 20 17 36 34 29 26 24 21 18 17 15 14 14 12 13 13 14 13 14 14 14 14 15 16 17 17 17 18 16 16 17 16 18
5 2 2 2 6 2 6 4 2 2 11 9 18 14 15 27 18 36 38 34 33 26 25 21 18 18 16 15 14 13 13 13 13 12 12 14 14 14 16 15 16 16 16 16 17 15 19 18 17
13 1 2 2 11 5 5 3 2 9 7 7 26 24 22 27 38 41 38 38 33 28 25 20 18 16 15 15 13 13 13 13 14 13 12 13 14 15 16 16 15 15 15 16 15 17 18 17 20
2 1 2 1 8 9 4 2 2 8 8 16 25 22 12 34 36 35 40 38 30 30 25 20 19 16 15 14 14 13 11 13 14 12 12 13 14 15 15 15 14 14 14 14 14 16 17 18 19
3 1 2 3 11 8 7 6 3 9 16 17 19 26 14 20 38 38 37 32 33 28 25 21 19 15 15 14 14 13 12 13 13 13 14 13 14 15 15 15 16 15 16 15 14 16 18 19 17
2 2 3 5 7 4 8 7 6 10 13 18 22 14 17 26 33 36 37 37 32 29 25 21 19 17 16 14 13 13 13 13 14 13 14 15 14 15 16 17 16 15 15 13 13 14 16 18 18
2 3 2 5 13 9 11 7 9 4 7 9 11 17 21 35 36 32 29 32 31 28 27 24 22 18 15 14 13 13 13 14 14 15 18 17 16 16 15 18 16 15 14 14 13 13 14 16 16
7 3 3 4 11 12 14 7 12 3 4 6 20 22 26 44 34 30 24 26 29 31 24 27 22 17 17 16 17 17 18 14 8 15 17 14 11 13 15 16 16 16 15 16 15 13 11 8 9
6 5 7 14 17 16 15 8 9 8 7 20 22 24 20 36 35 30 24 33 32 24 32 29 24 20 19 17 18 16 14 12 11 10 14 14 14 12 15 14 14 16 15 14 13 15 7 2 3
8 12 14 15 18 16 12 14 9 6 2 14 23 20 16 22 26 28 25 24 34 31 29 29 25 21 19 14 17 18 18 17 11 11 13 15 17 15 13 9 10 8 7 12 9 3 4 6 3
3 4 2 13 16 15 13 16 17 10 10 19 21 19 11 8 25 30 25 29 38 35 33 30 22 20 15 11 16 16 14 14 16 10 10 17 14 11 11 8 6 5 6 8 12 4 3 11 12
6 7 9 13 14 16 14 13 8 6 16 19 20 15 11 10 14 24 29 32 31 33 31 25 21 15 14 19 21 23 17 15 13 11 14 15 17 11 12 11 10 6 8 9 7 6 6 10 8
21 7 16 6 21 11 19 7 8 10 8 20 19 14 12 13 15 19 31 33 36 35 32 25 23 18 16 18 18 17 11 17 13 11 13 15 13 9 6 12 13 12 12 11 7 8 8 11 9
7 7 4 8 18 16 9 6 8 7 10 16 19 14 12 13 18 21 26 38 37 33 30 27 24 20 18 13 20 10 13 13 12 9 11 10 9 9 10 11 10 9 9 7 9 10 8 6 8
6 6 9 5 15 18 6 9 8 9 13 19 18 15 11 12 10 22 29 31 36 31 27 26 23 21 15 15 13 13 16 15 11 11 6 8 8 7 7 7 9 7 8 9 5 3 5 6 6
6 8 7 12 7 14 17 14 10 11 5 20 18 16 11 13 9 26 30 33 28 25 21 23 26 24 17 18 12 13 14 13 9 14 10 10 8 6 5 10 11 8 13 12 6 8 8 4 6
10 8 13 6 8 13 18 3 20 13 4 20 17 15 14 12 15 15 25 30 31 27 23 20 28 25 20 19 11 13 12 13 11 7 9 9 8 9 7 8 8 7 10 11 10 7 6 4 2
15 12 5 7 13 12 10 11 13 10 9 19 16 12 16 13 13 15 24 27 33 30 28 19 26 26 22 18 14 18 16 13 10 10 8 7 9 9 10 8 7 5 8 8 6 1 2 2 4
13 8 6 9 8 17 2 5 9 10 13 13 11 8 9 16 16 13 22 26 31 33 30 25 26 24 21 16 14 8 14 14 15 14 11 11 6 11 7 10 6 13 6 7 5 3 2 4 1
8 10 13 18 12 9 16 5 6 11 16 16 15 12 9 8 14 12 20 21 29 32 32 28 24 25 22 18 12 16 14 10 10 11 15 13 9 10 5 7 6 8 5 6 6 3 3 5 8
9 10 2 8 5 4 17 1 7 17 13 15 11 12 13 12 10 12 18 26 29 31 33 31 26 26 24 22 11 16 15 13 7 12 15 15 12 10 9 8 6 7 6 10 5 4 2 5 7
10 9 8 8 7 5 9 15 4 16 17 15 5 10 13 14 10 11 20 25 29 34 28 32 29 27 23 25 15 13 15 10 12 16 12 15 12 10 11 11 10 7 8 7 7 4 1 1 5
5 4 3 1 2 3 13 1 1 13 14 14 14 22 14 17 18 16 13 22 23 27 26 33 32 28 25 25 19 15 10 8 11 10 11 15 12 13 13 14 12 11 9 11 7 6 4 3 2
7 6 4 4 3 6 6 6 4 9 16 18 8 13 10 9 3 9 15 28 28 30 33 32 34 30 28 24 23 19 14 12 10 17 14 13 14 15 15 13 14 12 12 11 9 10 10 5 4
8 10 10 3 6 2 6 7 10 9 9 14 14 13 14 10 10 5 3 3 17 29 28 32 33 32 29 27 25 24 21 19 15 16 12 14 17 13 15 15 11 12 12 10 11 11 7 9 8
9 3 6 1 2 3 7 7 9 10 14 13 12 11 12 12 9 11 8 12 11 4 10 29 32 34 32 28 26 25 24 22 20 13 13 20 15 14 11 18 15 14 14 12 10 8 11 11 11
1 2 1 2 1 5 4 3 7 13 14 14 10 9 9 11 11 7 5 11 16 15 15 8 11 19 28 32 28 25 23 21 21 18 14 14 12 13 18 19 16 14 12 13 14 12 12 9 13
4 6 8 4 6 4 3 2 7 10 12 14 11 10 8 9 8 9 13 14 13 18 16 16 11 15 10 7 22 27 26 23 21 21 20 16 16 16 14 14 16 17 17 15 14 14 14 12 17

GFSSGP_925_spd_084.txt.gz
Wind_Speed
6 6 6 1 2 4 2 4 4 2 5 6 21 6 11 9 3 3 25 17 26 25 20 16 15 14 15 15 14 14 15 16 17 16 15 15 17 17 17 17 17 17 17 18 18 19 19 20 21
8 7 1 2 2 3 2 3 4 3 12 16 9 14 8 3 8 16 18 28 29 25 20 16 17 17 14 13 14 14 14 15 16 16 17 15 16 17 17 16 17 16 17 16 17 18 18 18 18
9 7 1 2 2 2 3 5 5 5 8 11 6 11 5 9 16 15 26 31 30 25 20 17 18 15 15 15 14 14 14 15 16 16 15 15 16 16 16 17 17 17 17 16 17 16 16 17 14
6 4 2 1 8 8 5 5 3 11 12 15 13 12 9 11 9 21 33 33 30 25 21 18 17 15 14 14 14 14 14 14 14 14 16 15 15 16 15 16 16 16 15 16 16 16 17 16 15
3 1 2 3 5 7 5 0 3 1 2 11 18 10 7 14 30 36 33 31 31 27 22 18 17 15 14 14 14 14 13 14 14 14 15 15 14 15 15 15 15 15 15 15 16 18 17 17 21
1 2 2 2 5 5 3 2 4 2 13 17 19 14 5 32 36 33 34 31 31 28 23 19 17 15 13 13 13 13 14 13 12 13 14 15 15 15 13 13 14 14 14 15 17 19 18 17 19
1 1 2 7 8 6 6 6 4 16 21 12 16 14 12 24 30 35 35 31 30 27 23 20 17 15 14 13 13 14 14 12 12 13 14 14 14 13 12 13 13 13 13 15 16 17 17 15 16
2 1 2 3 9 4 7 3 4 11 11 16 20 10 20 23 34 35 33 31 29 25 22 20 17 16 15 15 13 14 14 12 13 13 13 14 14 13 13 14 13 12 11 12 15 17 15 16 16
3 1 1 3 11 10 8 5 4 4 18 18 5 19 25 36 36 31 27 27 26 22 22 19 18 17 16 17 15 15 15 14 14 14 14 15 15 14 15 13 12 11 11 12 15 16 15 15 15
2 2 3 4 7 15 14 10 6 4 16 9 20 20 35 36 33 30 26 24 24 23 22 21 19 17 18 19 19 18 15 12 15 17 16 13 13 14 14 12 12 13 12 12 14 14 12 12 14
2 3 6 6 12 15 13 10 7 6 6 17 24 25 25 31 30 28 26 29 31 26 24 22 20 19 19 21 22 17 14 13 14 14 13 12 13 13 13 14 13 12 11 12 9 9 7 7 8
3 4 3 8 14 14 12 16 9 2 2 17 20 26 27 21 24 26 25 27 31 29 24 23 22 21 19 19 20 17 15 14 10 10 12 14 14 15 11 9 9 8 7 8 5 5 6 3 1
2 4 2 9 14 13 16 13 8 11 5 11 23 24 19 20 25 24 25 25 28 30 28 26 24 20 17 18 19 16 13 12 13 8 12 13 13 12 9 6 4 4 4 6 3 3 10 12 14
8 9 10 7 12 10 13 10 9 3 4 18 20 22 18 19 23 21 25 27 29 30 30 27 24 21 14 15 16 14 12 14 11 8 13 12 11 11 10 6 6 5 6 5 3 4 5 9 16
4 6 13 14 10 7 16 6 9 16 14 21 17 14 19 23 25 26 31 31 36 31 31 26 23 19 16 17 18 15 14 14 12 14 10 11 13 7 11 6 6 7 6 5 3 3 6 8 12
4 3 5 10 14 14 5 8 4 6 12 17 18 12 9 14 29 25 34 33 35 36 32 28 22 23 22 22 21 18 13 13 10 11 12 11 8 8 8 11 9 5 4 5 2 5 4 3 4
1 5 3 5 18 10 2 10 11 9 6 17 16 10 9 14 26 32 30 33 39 37 33 27 25 23 19 19 13 16 16 15 12 10 10 10 7 9 7 7 8 7 5 7 4 8 4 0 4
6 4 2 9 16 7 7 10 18 16 12 17 16 11 11 12 18 33 34 36 38 35 34 30 27 23 20 16 12 12 16 14 12 12 9 8 8 8 5 10 8 8 8 9 4 6 6 3 6
3 4 4 8 16 8 7 15 19 14 6 15 13 12 11 14 20 32 35 34 33 34 34 32 27 21 24 18 17 15 14 12 10 14 10 9 10 9 5 8 8 4 9 9 3 5 2 3 3
6 3 1 6 10 7 10 9 6 8 12 15 16 13 13 11 13 23 29 31 35 36 33 31 29 25 24 20 15 14 12 10 10 8 7 10 10 11 8 10 10 10 8 7 6 3 1 1 4
7 4 4 6 9 7 13 6 9 8 4 10 11 13 14 18 16 15 24 28 31 33 32 32 32 28 23 22 14 11 11 10 11 10 9 11 9 11 9 10 9 10 7 7 5 2 1 1 4
8 8 8 14 5 6 2 4 7 7 10 12 11 12 11 15 10 15 23 23 32 31 30 30 32 28 23 19 18 9 16 15 14 13 11 10 10 13 10 10 8 9 6 5 5 3 3 4 9
11 6 8 10 7 7 2 4 6 9 12 9 7 7 4 11 10 11 21 27 31 33 31 30 31 27 22 17 16 15 17 14 9 14 14 11 11 12 11 13 9 10 7 7 5 5 3 5 7
10 2 3 4 4 3 7 5 3 13 16 15 5 8 11 9 13 13 20 26 28 32 32 32 32 29 24 21 15 13 15 14 9 12 17 14 12 13 11 13 11 8 9 10 8 4 2 2 4
4 6 1 1 1 5 9 8 7 11 17 18 16 17 11 9 11 13 16 23 25 28 30 33 32 30 26 22 19 13 15 14 13 12 15 17 15 14 12 15 14 11 12 8 11 6 4 3 1
5 8 5 5 4 5 8 4 4 6 7 7 4 7 3 1 6 9 16 21 25 27 32 31 33 31 28 23 22 18 15 12 11 16 17 18 15 14 12 13 13 10 10 10 10 9 8 6 6
3 3 7 2 1 2 5 4 7 11 12 13 12 11 8 8 7 9 11 11 16 21 27 35 35 33 29 26 24 22 18 16 14 13 16 16 15 16 14 17 16 14 12 12 11 12 10 11 8
7 4 2 3 2 3 3 3 2 2 5 8 10 9 8 10 11 8 11 13 10 15 15 18 28 35 32 28 26 26 22 20 18 14 14 15 18 18 20 20 19 15 14 15 14 14 14 11 11
4 2 5 4 4 5 5 1 4 6 5 6 5 6 7 8 7 7 7 9 16 12 13 13 11 20 21 23 23 23 26 25 23 20 16 16 18 17 19 18 18 17 18 14 16 14 12 12 12
5 2 5 5 4 2 4 2 4 10 7 5 4 6 7 6 6 7 9 7 17 14 18 18 13 13 10 10 16 21 23 23 24 25 21 16 17 18 17 16 17 16 18 16 16 16 14 14 12

GFSSGP_925_spd_087.txt.gz
Wind_Speed
6 6 4 1 2 3 2 1 1 2 8 7 16 4 5 6 2 3 14 13 23 21 17 14 13 13 15 14 14 13 13 14 13 14 15 14 14 15 15 15 15 17 19 19 20 20 19 18 19
9 7 2 1 2 2 1 3 3 1 4 18 15 9 4 3 4 11 11 23 25 22 17 14 14 14 13 14 14 13 12 13 13 13 13 14 15 14 15 15 15 17 18 18 18 18 18 17 16
10 3 1 1 1 5 4 2 4 5 10 17 6 5 3 3 12 11 19 28 26 21 17 16 13 13 12 12 12 13 13 14 13 13 13 13 14 14 14 14 15 16 16 17 17 17 15 13 12
6 0 2 1 8 1 2 10 1 2 9 6 11 9 5 11 10 13 30 29 25 21 18 16 13 13 12 13 13 14 13 12 13 14 14 13 14 14 14 13 14 14 15 15 15 15 12 8 11
1 1 2 3 6 3 4 4 7 5 2 5 7 6 5 5 17 31 31 28 25 21 19 16 14 13 13 12 12 13 13 13 13 13 14 14 14 14 13 13 13 14 14 15 15 14 13 14 18
1 1 1 1 5 5 2 2 2 4 7 10 12 9 4 23 27 25 30 27 23 21 19 17 14 12 12 12 12 13 13 13 13 13 13 14 14 13 13 12 13 13 13 14 15 16 15 15 15
2 2 1 5 6 4 4 4 3 10 11 6 11 5 7 16 23 28 29 27 22 19 19 17 14 12 12 11 10 12 11 12 12 13 13 13 13 11 10 10 12 11 11 14 15 15 12 11 11
2 1 1 5 9 5 5 2 8 11 6 14 9 5 10 15 23 26 28 27 22 19 17 16 15 14 12 11 10 11 11 11 11 12 12 12 11 10 12 11 12 10 9 12 14 10 11 11 11
1 2 1 3 10 8 7 6 3 1 12 5 3 7 19 27 25 23 24 24 20 17 16 15 15 14 14 13 12 11 12 12 12 12 11 13 12 12 12 11 10 9 9 11 11 10 10 11 10
2 1 2 4 8 11 9 7 6 9 13 13 16 16 28 29 26 21 20 20 22 18 17 15 15 15 15 15 15 14 13 13 14 13 13 13 12 12 12 10 10 9 9 9 9 8 8 8 9
2 2 4 5 16 15 13 7 3 17 8 20 21 21 23 26 20 19 16 19 26 21 17 16 16 15 16 16 15 14 13 12 13 13 11 12 12 12 13 12 12 10 11 11 9 8 6 7 7
2 2 3 10 16 14 15 11 8 10 3 17 22 23 25 19 20 21 20 21 23 22 19 17 16 16 16 17 15 15 15 13 9 7 8 11 12 13 12 10 8 7 7 8 6 2 2 8 11
3 3 6 14 12 12 13 11 9 10 4 19 22 23 21 19 20 19 20 19 23 23 20 19 18 17 16 15 14 13 12 10 9 10 9 11 12 10 9 6 4 4 3 2 2 6 7 5 5
7 1 7 9 12 13 10 8 10 11 6 23 21 21 18 18 22 20 21 23 23 23 23 22 20 17 16 14 13 12 11 11 6 7 9 8 6 4 4 2 0 0 2 3 5 5 4 6 9
10 5 9 4 9 7 9 6 6 5 13 21 20 18 14 18 21 24 27 29 32 26 25 24 21 17 16 14 14 11 8 11 8 7 10 6 5 2 4 1 1 1 3 2 2 4 5 5 7
6 6 3 6 7 8 2 6 1 1 7 20 20 16 15 15 20 21 23 28 30 29 27 26 23 20 13 14 15 11 14 12 10 9 8 7 5 4 2 3 4 3 1 2 2 2 5 5 5
4 5 5 8 14 8 1 6 8 9 8 17 18 16 16 14 18 23 26 29 32 32 28 25 23 21 18 17 15 11 14 12 10 9 11 8 5 5 5 4 2 2 1 2 2 1 3 4 2
3 0 4 7 13 11 7 6 13 9 5 14 15 16 16 16 18 26 29 29 31 31 30 24 26 24 22 18 15 14 12 11 10 9 8 8 6 5 4 5 6 4 5 4 2 1 3 4 4
3 2 5 6 11 8 7 5 14 6 2 12 10 9 14 18 18 27 29 32 29 32 31 28 28 24 25 20 17 14 12 10 9 8 7 6 8 7 3 9 7 2 2 3 1 1 2 6 3
2 2 1 7 8 4 8 6 10 11 6 7 11 8 15 14 14 22 27 28 32 37 34 30 28 26 24 22 17 12 11 10 7 8 9 8 7 8 4 6 9 4 3 4 3 4 5 3 3
1 3 3 4 5 4 9 1 9 8 2 2 5 3 13 18 18 16 23 28 30 32 36 34 31 26 24 20 16 11 9 6 12 9 8 9 7 9 7 7 7 6 6 6 3 3 5 3 5
2 6 3 10 5 4 4 4 5 9 8 5 8 8 12 17 16 19 25 24 29 34 36 36 31 27 26 22 17 14 13 11 11 10 8 8 8 9 9 7 7 6 4 5 3 1 3 3 8
8 5 7 9 5 6 3 2 3 13 10 14 15 13 14 16 16 18 26 29 30 33 37 37 34 29 25 23 19 15 12 14 8 11 9 9 9 10 9 10 7 9 4 4 5 4 0 3 5
5 2 6 5 4 1 7 6 4 7 17 15 13 13 17 17 17 22 25 26 22 23 29 35 35 32 27 22 21 18 13 13 11 8 12 13 11 11 11 13 12 9 8 7 7 5 3 1 3
4 6 1 3 1 5 6 4 2 8 6 15 15 11 11 8 11 13 16 29 31 27 30 34 36 34 29 24 21 18 14 14 13 10 13 15 13 13 14 16 16 12 9 9 9 7 4 2 2
7 9 5 6 5 4 5 5 3 8 8 11 9 8 6 6 7 12 18 25 26 27 31 33 36 34 30 26 23 18 15 15 13 12 11 13 13 14 12 13 17 14 10 10 10 10 8 6 5
4 3 7 6 3 4 1 2 1 8 12 11 10 10 9 9 7 4 9 21 27 29 28 34 35 35 33 28 24 22 18 16 15 13 15 16 15 15 15 14 15 15 13 12 12 12 10 10 10
7 6 4 3 4 3 3 1 4 2 4 5 8 7 7 7 7 7 7 10 19 26 20 21 21 26 30 26 23 23 22 19 17 14 13 18 15 17 15 15 17 17 15 14 13 12 11 11 10
3 2 6 5 4 5 4 5 1 5 5 5 5 5 6 7 5 5 7 7 13 25 18 13 13 16 21 24 22 20 22 20 19 18 14 14 14 16 17 17 19 19 17 15 15 13 12 12 13
6 3 3 5 3 3 3 4 2 5 7 6 6 5 6 5 4 4 5 7 9 18 25 21 18 13 5 11 17 17 19 20 21 20 19 16 15 16 18 16 17 17 17 17 16 15 15 14 14

GFSSGP_925_spd_090.txt.gz
Wind_Speed
6 6 2 2 3 3 2 3 1 8 6 4 10 4 3 3 1 3 15 12 22 20 17 14 10 10 10 11 9 9 10 12 11 12 12 12 12 13 13 15 17 18 19 18 17 16 17 17 17
11 7 2 1 4 2 2 4 3 2 7 15 6 7 4 3 4 9 11 23 22 21 18 14 13 11 11 9 10 10 10 10 10 11 12 13 13 13 13 15 16 18 17 18 16 16 17 17 17
11 3 2 3 3 3 1 4 3 3 13 15 3 7 3 2 8 11 18 26 22 20 17 16 12 11 10 10 9 10 10 11 11 10 12 12 13 13 13 15 16 16 17 16 15 14 12 11 11
4 2 1 3 4 0 3 6 1 2 7 7 6 7 5 7 11 9 29 26 22 18 17 14 13 11 11 9 10 9 10 10 12 11 11 12 13 13 13 15 15 16 16 15 13 10 8 9 7
1 1 2 4 5 4 2 2 3 1 3 6 2 4 5 4 9 28 28 24 21 18 16 13 13 11 11 10 10 9 10 10 12 11 11 12 12 13 14 15 16 14 15 13 11 11 10 12 13
1 1 2 3 6 5 1 2 3 2 3 7 7 6 3 13 24 22 26 23 19 18 15 12 11 11 11 10 10 10 11 11 12 11 12 12 12 12 13 14 15 14 13 12 12 13 14 13 11
1 1 1 5 9 5 5 6 3 6 7 5 7 6 6 9 16 23 24 22 18 17 16 12 11 11 10 10 10 11 11 11 12 12 12 11 11 11 12 13 14 13 12 11 11 12 11 10 9
1 0 0 4 10 5 7 4 6 7 4 8 9 7 8 10 20 23 22 21 17 16 14 13 12 11 11 11 11 10 11 11 11 12 12 11 10 12 12 11 13 13 11 11 10 10 9 9 9
2 2 1 4 8 7 7 6 3 3 10 2 2 11 16 23 23 23 22 18 16 14 13 12 10 11 12 12 11 12 11 12 12 12 11 12 12 12 14 13 12 11 11 10 8 8 9 10 7
2 2 2 3 5 11 8 10 6 6 6 9 13 19 23 24 24 20 18 15 17 15 13 12 10 11 13 12 13 12 13 13 13 12 13 12 13 13 14 12 10 11 10 9 8 6 5 5 6
2 3 1 4 9 14 7 5 1 13 4 14 17 17 18 19 16 15 15 20 20 16 14 12 11 11 12 11 11 12 14 14 14 14 12 13 13 13 14 13 12 11 10 9 6 4 2 2 2
2 3 1 9 14 12 12 5 10 4 5 14 20 19 18 15 16 16 17 20 17 16 15 13 12 12 12 12 11 11 12 13 12 10 12 12 13 12 12 12 11 9 7 7 4 2 5 7 8
3 0 9 13 16 13 15 9 8 3 12 14 19 18 14 13 13 15 18 19 16 17 16 16 15 14 13 12 12 12 12 10 10 11 11 12 10 10 9 8 7 7 4 4 5 5 5 3 5
2 4 14 9 11 8 11 7 12 10 11 16 18 15 13 15 17 16 18 21 20 19 18 17 17 15 14 13 11 9 9 9 8 9 10 9 6 4 4 6 6 6 4 5 5 7 6 6 5
5 5 6 9 8 6 13 5 5 8 15 18 16 15 13 14 17 17 19 22 24 22 21 20 19 16 14 12 10 10 8 7 6 8 8 5 3 3 3 4 5 5 4 5 7 7 6 4 4
5 4 5 6 8 3 2 8 6 11 21 18 17 14 13 11 18 18 21 22 22 22 22 21 19 18 16 13 11 9 7 7 5 7 8 5 3 3 2 5 5 6 5 4 4 4 6 5 4
7 4 3 5 4 5 3 3 6 11 18 16 16 16 13 13 15 21 24 25 23 22 23 23 20 18 16 14 15 10 11 8 8 5 7 6 4 3 3 3 2 4 4 5 5 3 5 5 4
4 2 3 7 7 2 4 2 12 8 15 16 14 15 14 12 13 25 27 27 26 24 22 22 19 16 13 17 18 13 13 10 8 8 7 5 4 2 3 1 1 1 1 3 5 4 5 5 6
5 6 4 1 11 11 14 3 8 6 5 16 15 14 16 15 18 23 26 28 26 25 24 23 21 18 19 19 19 15 15 12 9 8 6 4 6 5 2 3 4 1 2 4 4 5 6 7 7
3 2 2 4 10 5 2 4 8 10 3 10 13 16 16 13 12 19 23 26 29 30 27 24 23 25 23 20 18 16 13 10 8 8 7 7 7 8 3 4 5 1 2 1 2 5 6 6 6
1 3 3 5 4 4 8 4 5 3 1 1 2 12 12 15 14 13 21 25 29 31 32 28 29 26 26 20 17 12 10 7 9 7 7 8 8 8 7 5 5 3 4 3 2 3 6 6 6
4 6 3 11 5 4 2 4 5 8 9 5 8 8 13 14 14 17 21 22 28 33 33 30 30 27 24 22 19 15 14 9 8 9 6 8 7 9 10 7 6 5 4 5 2 3 6 5 9
7 5 5 4 4 4 4 2 2 11 12 16 13 10 10 13 16 17 26 28 28 28 33 35 31 28 25 23 20 15 13 10 6 7 8 7 8 8 10 7 6 7 4 4 3 1 2 5 7
5 4 6 5 3 1 6 5 3 6 12 15 12 12 10 14 14 19 25 25 24 21 25 32 32 31 28 26 22 18 12 10 10 7 11 8 8 8 11 8 8 7 5 3 4 3 2 2 5
4 6 2 3 2 5 4 5 3 4 8 10 15 8 8 10 12 13 18 19 17 21 30 30 33 34 30 27 24 20 17 11 10 8 8 12 12 11 12 9 10 9 6 6 6 6 3 1 2
6 8 5 5 4 4 3 5 3 3 8 5 9 10 9 7 9 12 17 24 30 29 26 29 32 35 34 28 24 20 17 13 11 9 7 10 14 11 12 12 12 12 9 7 8 9 8 6 3
4 4 6 7 3 3 2 3 2 4 8 10 10 11 10 7 5 7 12 19 22 24 24 29 32 33 36 31 23 18 16 14 13 10 9 9 12 11 12 11 11 14 13 9 9 10 10 9 8
5 5 4 3 4 2 3 4 4 4 5 6 8 8 7 8 7 5 7 17 22 26 26 20 27 24 29 30 25 20 17 14 12 11 10 10 13 13 15 13 14 12 15 13 12 11 11 10 8
2 1 6 6 4 5 4 6 3 5 8 8 7 6 5 5 4 4 6 3 22 24 21 18 19 21 21 21 22 18 18 17 15 13 11 11 10 10 14 13 13 14 14 14 13 13 12 11 10
2 3 4 5 4 1 3 4 3 4 6 7 7 6 4 4 3 3 6 5 12 21 19 18 16 13 16 19 10 17 16 16 15 15 13 11 11 11 11 12 12 13 14 15 14 13 13 12 11

GFSSGP_925_spd_093.txt.gz
Wind_Speed
5 4 2 2 1 3 4 4 2 13 9 7 11 4 6 7 3 7 12 9 16 16 13 12 10 10 11 10 10 10 11 10 12 11 12 12 13 14 15 15 16 17 18 18 18 18 19 17 17
7 2 1 2 2 4 4 2 13 7 12 18 4 10 4 5 5 11 10 16 16 16 13 11 13 12 11 11 10 11 10 10 11 12 12 12 13 13 15 15 16 17 18 17 18 18 18 18 16
7 3 2 3 2 4 6 5 6 6 14 14 6 5 3 4 8 14 14 18 16 14 12 12 11 11 11 11 10 11 11 9 10 11 12 12 13 14 15 15 15 16 17 16 15 14 13 12 13
2 1 3 2 2 3 4 7 7 12 12 3 10 7 6 3 12 8 21 18 17 13 12 9 10 10 10 11 11 10 10 11 10 11 12 13 13 14 15 15 15 16 15 14 12 11 11 8 7
1 0 1 3 3 3 4 7 5 11 11 7 1 6 6 4 9 22 19 17 16 15 11 10 10 10 10 10 11 10 11 12 10 11 12 12 13 14 15 15 15 15 14 12 12 13 13 14 12
1 0 3 5 5 1 4 4 6 7 8 9 8 9 6 8 21 18 18 16 14 14 12 10 9 9 10 10 11 11 11 12 11 12 12 13 14 15 15 15 15 14 13 13 15 16 14 11 10
1 1 1 7 8 6 4 6 8 6 9 5 12 8 7 13 19 18 17 15 14 12 12 10 9 9 10 10 11 11 11 12 12 12 13 13 13 14 14 15 15 14 13 13 15 13 11 11 11
1 2 3 5 10 5 7 5 5 10 6 11 10 8 9 16 20 19 16 14 13 12 11 10 9 9 10 9 11 12 11 13 13 13 12 14 14 13 13 16 14 13 12 12 12 12 11 10 11
3 2 2 5 13 9 10 7 8 7 13 7 3 12 19 24 22 20 18 14 13 11 10 9 9 8 10 10 11 13 12 13 13 13 13 14 14 14 13 14 13 12 12 11 11 11 10 9 9
3 2 1 3 10 13 14 13 11 9 12 10 14 20 23 23 23 20 18 16 13 12 11 9 9 10 9 11 12 12 11 12 12 12 14 13 14 14 13 12 13 13 11 9 8 8 6 6 7
2 2 1 5 11 17 17 11 7 16 7 10 22 24 22 23 20 18 16 15 14 13 11 10 10 11 10 12 10 10 10 12 13 13 13 13 13 13 13 11 12 11 9 6 5 4 3 2 1
3 5 3 10 18 13 13 11 12 6 1 15 22 25 24 20 19 18 17 14 14 13 12 11 11 11 10 10 10 10 11 11 10 11 14 14 13 13 13 11 11 10 8 7 5 6 6 5 4
4 2 7 16 15 15 10 11 11 6 14 19 22 20 19 18 18 16 15 14 12 13 12 12 12 13 12 11 10 9 9 8 10 12 14 14 11 12 11 10 8 8 6 7 8 8 9 8 2
2 6 13 17 16 14 13 11 5 3 17 19 19 18 17 17 18 16 15 15 13 13 13 13 13 14 14 12 12 10 9 11 10 10 11 11 9 8 8 8 8 7 7 6 7 8 9 9 8
7 16 13 14 13 7 16 6 5 9 16 19 18 16 15 15 15 15 17 16 15 14 13 14 13 13 14 12 10 10 7 8 9 9 8 7 7 7 7 7 8 8 7 7 7 9 8 6 6
3 9 10 10 12 1 1 10 12 16 16 19 18 16 14 15 16 14 15 15 15 14 15 14 13 12 13 11 11 8 7 6 7 10 7 5 5 6 6 7 7 7 7 6 6 6 6 5 4
2 7 5 12 12 9 5 2 8 13 19 20 17 16 15 13 16 16 16 16 16 16 15 14 12 12 11 12 9 8 7 6 7 7 7 5 5 4 7 6 6 5 6 6 5 5 5 3 3
6 5 7 11 12 7 12 6 10 15 19 20 18 16 16 16 18 20 18 18 16 16 16 15 13 12 12 10 12 8 9 8 7 6 8 6 5 5 5 3 4 4 2 4 5 5 5 5 5
10 7 5 3 10 12 7 8 12 14 16 16 17 17 16 16 21 20 20 19 19 17 16 17 16 15 14 11 12 9 9 9 8 8 6 5 5 4 3 2 4 3 4 5 5 4 5 5 8
7 8 6 3 14 5 9 1 3 9 16 17 18 19 18 16 15 19 21 21 20 20 17 17 18 17 15 15 13 9 12 8 7 7 6 5 5 5 2 5 4 3 4 3 4 4 3 5 7
4 6 7 5 13 12 11 3 7 9 9 15 18 19 18 20 18 17 21 22 20 20 20 18 19 19 19 15 14 13 12 10 8 7 8 7 6 7 4 3 4 2 2 2 3 4 5 5 5
8 8 5 12 10 4 7 1 6 11 14 14 19 19 20 19 18 20 23 22 23 22 19 20 22 22 22 18 13 14 11 10 8 8 7 7 8 7 8 5 4 2 3 5 3 3 5 5 6
2 5 6 9 5 9 6 7 4 10 15 19 19 17 19 19 20 19 25 26 25 22 22 21 22 23 21 23 18 13 11 6 5 7 8 8 8 8 9 7 6 6 4 5 4 2 4 5 6
6 8 8 5 4 4 11 6 6 8 21 17 17 16 14 17 19 21 23 20 21 19 18 20 20 23 21 21 19 16 12 10 8 7 8 8 8 8 11 9 8 9 6 4 4 4 4 4 5
7 8 3 6 5 3 3 8 3 10 4 11 16 19 16 15 16 15 17 21 20 21 20 26 19 21 24 22 18 18 13 10 9 9 7 10 10 9 11 10 11 8 7 5 5 5 4 3 3
12 13 5 8 6 9 5 9 2 2 5 10 15 17 17 18 16 17 21 21 25 22 16 23 19 22 22 22 21 19 16 10 7 7 5 6 9 7 8 9 8 10 8 6 7 6 6 4 2
6 10 5 3 1 7 4 3 4 4 1 3 7 14 17 17 16 16 20 23 24 26 24 20 19 19 20 19 17 18 17 15 10 9 7 4 7 8 9 10 9 10 10 9 7 7 8 7 6
6 11 9 3 8 10 5 4 3 9 6 6 9 9 7 8 12 11 16 18 20 23 22 12 17 13 16 17 18 17 15 13 11 10 8 6 6 9 9 10 10 10 10 12 11 9 10 10 8
6 6 1 5 3 9 7 5 1 5 11 9 6 7 6 6 7 7 9 12 14 20 26 22 17 14 15 19 19 18 16 15 14 10 8 6 7 8 9 10 11 13 12 13 14 11 11 12 10
2 4 4 9 7 0 3 3 2 2 8 10 10 8 6 5 4 5 6 8 14 18 23 21 16 13 16 19 23 20 15 16 16 15 12 9 7 6 6 7 10 11 11 12 14 13 10 12 11

GFSSGP_925_spd_096.txt.gz
Wind_Speed
2 2 4 6 4 2 9 7 14 12 15 9 10 5 11 11 8 11 22 13 16 16 14 11 9 8 9 9 9 10 10 11 11 11 12 13 14 16 16 17 17 16 17 17 18 18 17 17 17
3 3 5 3 2 11 8 11 15 11 13 16 8 7 5 12 11 17 16 17 17 16 15 11 10 10 10 11 11 11 11 11 11 11 12 12 14 17 17 16 16 16 17 17 17 18 17 17 16
3 2 3 3 2 9 11 13 12 15 20 9 6 10 7 6 16 10 21 18 16 13 13 11 12 10 10 10 11 12 11 11 12 10 11 12 14 15 15 15 16 16 16 14 15 15 15 14 15
3 3 2 3 11 7 15 14 15 19 13 3 11 10 8 8 8 16 19 17 16 13 13 10 11 10 11 11 12 12 12 11 12 11 12 13 14 14 14 14 15 15 14 12 13 12 10 10 13
4 3 2 4 8 10 12 13 17 19 11 12 1 8 13 8 14 21 19 16 15 13 12 11 11 11 12 12 11 12 12 12 12 12 12 13 14 15 15 14 14 15 16 14 14 15 16 15 12
2 2 2 6 9 9 8 11 17 16 12 10 14 17 11 12 21 19 17 15 13 13 12 11 10 12 11 11 12 12 13 12 13 13 13 14 15 15 14 15 15 15 17 18 16 15 14 12 12
3 2 1 5 10 8 10 10 12 12 10 9 10 13 11 17 18 18 16 14 12 12 12 11 11 10 12 12 13 12 13 13 14 14 15 15 16 15 14 14 14 14 15 14 15 14 14 14 12
4 3 5 3 11 8 11 11 10 12 9 10 12 8 14 22 20 17 15 14 12 11 12 11 10 9 11 10 12 13 13 14 15 15 15 15 15 16 15 14 14 12 12 13 14 13 13 13 13
5 2 3 7 11 10 14 14 11 6 12 6 3 12 26 26 23 19 16 14 13 11 10 10 11 10 10 12 12 12 13 13 14 15 16 13 14 13 13 14 12 12 11 12 12 12 12 13 12
4 3 4 3 9 16 18 14 12 12 12 11 16 24 29 26 23 20 17 16 13 12 10 10 10 11 10 11 11 12 11 11 11 12 11 12 12 12 14 12 13 12 11 10 8 8 10 9 8
1 2 0 6 13 18 17 13 11 13 11 15 21 25 26 25 21 19 16 14 14 13 11 12 11 11 12 12 12 11 11 11 11 11 10 12 12 11 12 11 10 9 7 6 6 6 5 5 7
5 1 3 9 16 17 16 12 11 11 6 14 22 26 26 22 21 19 17 15 14 12 12 13 12 11 12 12 12 12 12 11 11 11 12 12 12 12 11 10 8 7 6 5 6 8 5 4 5
7 0 7 15 16 13 11 11 13 6 9 17 26 24 21 19 19 17 16 14 14 13 13 13 13 10 12 11 12 12 11 11 12 12 12 11 11 11 10 8 7 6 6 7 7 8 8 7 8
3 4 14 17 18 12 12 15 10 10 17 21 22 20 18 18 19 17 16 15 14 13 14 14 13 12 12 12 11 11 10 12 13 12 10 10 8 8 7 7 6 6 6 6 7 7 8 7 8
10 13 13 16 15 13 14 10 10 15 19 20 20 18 16 17 18 17 16 15 15 14 15 15 14 13 13 12 11 11 11 11 11 10 7 7 7 7 6 5 5 5 5 5 6 6 7 8 8
8 15 14 15 15 6 2 13 10 8 18 20 19 16 15 14 17 16 16 15 15 15 16 15 14 14 13 10 10 10 10 9 8 7 6 6 6 6 6 6 6 4 4 5 6 6 8 7 7
3 10 12 14 10 8 5 4 15 9 8 19 17 16 15 14 17 16 16 14 16 16 16 15 13 13 12 11 9 8 7 8 8 7 6 6 5 5 7 6 5 3 3 4 4 6 4 5 4
5 9 17 15 12 12 8 5 9 11 12 19 18 17 16 16 16 18 17 15 16 16 15 15 13 12 11 9 8 7 8 8 7 7 7 5 5 5 5 5 5 3 3 5 5 4 4 3 3
15 9 10 12 18 13 13 7 10 14 13 18 19 17 17 16 18 19 18 17 16 16 16 15 14 11 10 9 10 10 9 8 7 7 6 5 5 4 4 5 4 2 3 4 3 2 3 5 4
12 15 9 10 15 9 13 10 6 10 14 19 19 19 18 17 17 19 19 19 18 17 16 16 15 12 10 9 10 8 8 8 8 7 6 6 6 6 5 7 5 4 6 3 3 2 1 4 6
9 10 12 16 12 8 14 7 5 3 7 14 20 19 18 19 18 17 20 20 19 19 18 17 16 14 12 10 10 7 8 7 8 8 7 7 7 7 5 6 5 4 3 4 2 3 3 5 4
10 2 4 16 12 4 5 2 4 1 8 14 17 18 17 17 17 18 20 20 20 19 19 17 16 15 13 13 10 10 9 6 8 7 7 7 8 8 7 6 6 5 5 4 3 2 2 4 4
4 3 5 11 8 13 8 3 4 4 11 17 20 21 21 21 19 18 21 23 22 20 19 18 16 15 14 13 10 10 10 6 8 8 6 6 7 7 9 7 6 5 6 5 4 2 2 2 3
0 7 6 6 8 6 12 5 7 8 17 13 19 20 20 21 20 21 22 21 21 19 18 17 17 16 15 14 13 10 6 8 6 7 7 8 8 8 9 9 8 7 5 5 4 4 3 1 2
11 10 6 7 7 2 13 8 7 21 14 18 19 21 20 18 18 18 16 17 19 21 19 18 17 16 16 14 13 11 10 7 6 7 7 7 6 6 9 10 8 8 6 5 4 5 3 2 1
19 15 8 8 11 7 8 6 5 7 8 6 9 22 20 19 18 18 20 19 18 22 20 17 17 15 16 15 14 12 10 9 9 8 6 8 7 7 6 10 9 10 7 6 5 6 7 6 4
15 17 16 11 2 10 12 6 4 5 5 7 14 18 22 22 18 18 18 20 20 21 20 12 15 11 14 15 14 13 11 9 8 6 6 6 5 6 8 10 10 10 11 9 7 8 8 7 8
12 15 16 10 12 12 7 10 6 11 9 4 7 16 19 18 17 15 18 20 19 21 21 10 11 11 10 13 14 12 11 9 8 9 9 6 4 6 6 9 9 9 10 10 8 8 9 9 9
12 12 14 16 15 10 12 12 5 6 10 10 7 4 2 8 12 11 12 16 19 19 19 23 11 8 8 11 13 14 12 9 8 9 9 7 6 7 9 9 11 10 10 10 10 8 7 9 10
18 17 18 13 17 11 12 3 4 6 9 10 9 9 8 7 5 5 12 12 13 20 21 25 18 15 14 10 12 12 12 13 11 11 11 10 9 8 6 6 9 10 10 11 11 11 9 10 10

GFSSGP_925_spd_099.txt.gz
Wind_Speed
5 6 8 9 3 6 13 15 14 15 17 11 11 11 14 16 14 13 20 17 17 18 13 11 8 8 9 10 10 11 12 11 13 13 14 15 16 16 18 17 19 18 18 18 17 17 17 16 15
6 5 9 5 3 8 12 15 17 13 14 11 10 17 14 17 20 20 18 18 14 16 15 12 11 10 10 11 11 11 11 12 12 13 13 15 16 16 17 16 17 18 18 17 17 18 16 15 15
3 4 5 4 3 5 14 15 16 18 15 11 9 10 11 19 17 18 23 21 16 16 14 12 12 11 11 11 11 10 11 12 12 12 13 14 15 16 15 17 17 17 16 15 14 14 16 16 15
5 2 1 4 6 10 16 15 19 20 9 5 17 15 17 17 17 22 22 20 16 20 16 12 11 11 12 13 12 11 11 12 12 13 14 14 14 14 15 16 16 14 12 12 12 12 12 14 14
6 3 1 1 10 17 15 18 18 15 11 10 7 21 18 13 23 23 19 18 18 23 15 12 12 13 12 12 12 12 12 12 13 13 13 13 14 15 15 15 15 15 14 14 15 16 15 14 13
4 2 4 8 13 12 15 18 18 15 13 16 21 20 15 20 21 21 21 17 19 23 16 13 12 12 12 12 13 12 12 14 13 14 14 14 15 15 16 16 16 17 16 15 14 15 15 14 14
2 3 5 7 13 13 17 18 16 14 9 15 17 19 15 20 19 18 17 12 16 20 15 16 13 12 13 13 13 13 13 14 14 15 15 16 15 16 15 15 15 14 14 13 14 15 16 14 14
5 3 2 4 15 16 12 14 17 12 10 12 20 12 19 22 21 19 16 14 16 15 11 15 18 13 14 12 13 13 14 15 14 15 16 15 15 15 14 15 14 13 13 13 13 15 16 17 15
4 3 5 6 16 13 17 15 12 8 10 8 5 21 24 24 21 20 16 14 16 14 12 18 14 12 13 13 12 14 14 14 16 14 13 12 14 13 12 12 12 11 12 13 14 13 12 16 18
6 3 9 2 9 18 18 15 14 11 10 10 14 25 28 23 19 20 16 15 13 12 14 16 13 13 14 15 14 13 13 11 11 14 11 12 11 10 12 9 10 11 10 11 11 10 9 3 5
1 2 6 6 10 20 21 14 12 16 11 16 21 24 24 24 19 18 16 14 14 12 14 15 13 12 12 13 15 12 14 12 11 9 13 14 13 14 13 10 10 5 6 5 4 2 6 7 9
1 6 5 3 11 20 17 16 13 11 12 17 22 24 23 19 18 17 16 16 14 13 13 15 14 9 13 13 12 13 13 13 15 11 11 10 11 11 8 9 9 2 11 5 10 9 6 8 8
6 2 4 5 17 16 14 12 13 12 8 20 23 22 20 17 18 17 16 15 15 15 14 16 14 7 10 10 12 13 13 13 12 12 8 10 11 10 9 5 8 6 6 6 8 7 7 8 8
4 7 8 11 14 9 11 15 11 9 13 22 23 21 19 17 18 16 16 15 15 15 15 15 14 13 7 11 11 10 11 13 14 12 10 6 10 9 9 6 7 6 6 7 7 5 2 9 10
6 4 11 5 15 7 5 13 10 14 18 23 22 19 18 16 18 16 16 15 15 15 16 14 14 13 14 13 14 9 14 13 13 12 7 6 6 1 6 6 6 8 6 7 5 7 5 8 8
10 14 8 13 16 6 4 12 14 16 19 22 21 18 16 15 18 17 16 16 16 17 16 15 16 15 14 12 9 9 9 13 11 10 8 6 6 5 2 7 6 5 1 5 2 6 6 6 8
9 6 12 14 14 8 5 13 8 14 18 20 18 17 16 15 19 18 16 17 16 17 16 13 14 15 12 12 10 7 6 4 8 8 9 7 6 3 6 4 5 3 2 3 6 5 3 3 4
11 3 19 15 11 14 9 2 3 7 5 17 16 18 16 17 18 19 18 18 17 17 16 14 14 14 10 11 8 9 9 6 7 7 12 7 6 4 3 5 3 6 5 5 8 8 4 3 3
3 3 6 16 14 10 10 7 3 8 6 10 16 15 17 18 23 21 20 19 18 18 17 15 12 13 8 10 11 11 10 9 7 8 7 5 5 5 4 5 4 3 5 9 3 5 2 3 2
19 18 9 19 23 8 13 5 4 9 10 11 10 19 19 21 20 21 21 20 20 18 17 15 15 13 12 10 5 5 4 7 7 9 7 6 6 4 5 1 4 2 7 2 1 5 6 7 3
15 11 2 6 13 13 14 5 5 5 12 19 20 18 17 17 23 20 22 22 21 20 18 16 14 13 11 7 7 3 3 4 6 6 9 8 6 6 2 4 2 2 4 9 3 2 5 3 4
14 18 9 17 18 8 5 5 12 8 7 9 20 16 18 18 11 20 23 20 21 22 18 17 15 13 11 9 11 7 4 4 7 7 8 11 7 7 6 5 4 5 6 6 3 1 6 7 4
5 16 27 22 12 18 14 6 10 14 5 7 18 10 18 15 14 8 25 23 21 21 20 17 15 14 11 11 6 8 9 6 5 4 8 4 8 8 9 6 6 5 6 5 2 2 6 5 10
5 10 8 12 10 2 14 12 12 12 10 5 16 15 16 22 24 28 25 24 20 22 21 20 17 15 13 11 9 5 2 4 3 3 3 9 12 10 10 9 7 6 4 3 4 4 3 6 7
13 15 6 7 2 5 14 9 7 19 20 16 19 22 18 10 18 15 15 15 18 20 21 22 18 16 15 12 10 9 7 3 4 5 7 9 10 11 15 11 8 8 6 3 4 5 3 3 4
16 18 7 7 6 7 16 5 13 23 24 23 25 22 22 23 14 12 22 21 20 23 22 21 20 16 15 14 10 9 8 8 6 5 6 5 7 9 14 10 8 8 7 6 5 7 8 8 4
15 17 15 7 5 6 7 9 5 16 18 14 16 23 19 18 24 22 21 29 9 12 15 19 18 17 16 14 12 9 8 9 3 2 5 7 9 5 5 12 9 9 10 8 5 8 6 6 6
16 15 16 11 14 8 6 5 7 17 17 16 15 15 23 22 18 15 19 20 20 19 10 15 20 9 11 13 13 12 11 10 7 7 7 10 10 5 5 7 8 8 9 10 8 12 11 9 8
14 12 14 17 14 12 6 4 4 13 18 13 9 13 17 20 18 11 12 20 22 21 25 25 21 10 8 10 10 13 12 12 10 8 9 9 9 6 3 4 7 7 9 10 11 13 6 9 11
17 17 16 12 18 14 9 2 12 11 11 15 9 6 6 10 7 10 11 21 23 24 23 20 23 19 9 4 7 7 12 13 10 10 9 10 8 7 5 9 9 11 11 13 13 12 12 11 12

GFSSGP_925_spd_102.txt.gz
Wind_Speed
9 11 13 12 1 4 12 16 14 18 15 17 21 16 18 13 12 14 25 20 25 21 17 15 13 12 11 12 11 11 12 13 13 15 15 16 19 19 18 18 17 18 18 19 18 19 17 16 16
10 14 10 4 1 2 11 13 16 14 16 24 19 20 22 24 26 21 23 25 21 22 18 15 15 14 12 13 13 12 13 13 14 15 15 16 18 18 17 18 17 19 20 19 19 18 16 15 16
6 4 3 4 1 4 12 14 15 16 10 22 7 10 14 20 20 25 25 22 21 23 19 17 15 14 14 13 13 13 13 14 15 15 15 16 18 18 18 18 16 16 17 16 17 17 16 14 15
7 2 0 2 7 9 16 17 18 12 19 21 18 16 22 26 28 28 23 22 18 23 19 17 15 14 13 14 13 13 14 14 15 15 15 16 17 18 17 15 14 14 14 13 15 16 14 13 15
1 3 2 2 6 19 16 20 16 12 14 14 21 21 23 31 28 21 21 21 22 21 20 16 16 14 13 13 14 13 14 14 15 15 15 16 17 17 16 15 15 16 17 17 17 15 14 14 16
1 2 2 5 11 19 17 18 14 14 15 4 20 20 19 29 20 17 21 11 23 24 21 17 16 15 14 14 13 13 14 14 15 16 16 16 17 17 17 18 19 18 17 16 15 15 14 16 17
1 2 4 7 10 19 19 18 15 18 14 20 17 22 12 19 17 19 26 23 22 21 20 18 16 15 15 14 14 14 14 14 15 16 17 17 17 16 16 17 16 16 16 15 15 16 16 17 18
4 2 4 5 11 15 20 15 18 18 10 17 17 20 12 16 24 18 29 22 17 23 24 23 19 15 16 13 14 15 14 15 15 16 15 18 16 15 16 16 15 15 14 15 15 17 19 21 18
5 4 5 5 17 16 23 15 9 11 13 16 8 22 23 21 22 20 26 20 16 23 26 21 23 18 15 13 13 14 14 15 16 15 17 18 16 13 11 12 14 15 16 17 17 17 17 13 11
8 4 11 15 9 16 19 16 13 11 9 11 21 27 29 27 22 18 14 24 20 25 22 21 17 18 19 14 15 12 15 12 11 6 10 9 12 13 9 11 13 12 8 10 13 15 15 12 5
5 4 9 14 6 15 21 14 17 9 10 12 23 22 19 23 22 18 15 18 23 31 25 23 16 20 17 18 18 15 16 17 11 8 8 13 14 10 9 11 7 11 6 5 4 6 9 3 4
10 5 13 12 20 19 17 14 18 14 9 21 21 21 19 18 18 19 16 19 23 22 22 18 12 14 13 17 16 16 17 18 12 8 9 12 12 11 4 8 5 8 6 16 11 8 9 13 11
6 3 6 4 16 20 17 19 15 3 14 23 22 20 19 17 18 18 21 18 19 19 21 18 10 12 5 11 14 12 20 20 15 13 10 11 12 5 12 6 5 14 8 6 10 7 3 9 10
3 3 9 6 9 17 20 16 18 11 14 23 22 20 17 17 19 17 18 20 19 18 23 19 12 7 10 16 14 14 15 16 14 11 10 14 11 4 8 5 3 11 5 7 8 12 6 11 11
4 6 3 6 13 8 8 14 8 14 21 23 21 18 15 15 20 18 16 18 21 17 25 19 16 10 9 13 11 8 10 16 13 15 9 4 9 8 10 5 12 3 5 5 6 3 9 14 10
3 9 8 2 4 9 7 6 2 13 20 22 21 17 16 14 19 17 16 18 20 20 21 17 21 16 12 9 2 7 7 11 8 10 8 4 7 5 4 6 4 2 4 7 6 6 1 10 10
9 6 10 8 12 9 5 8 10 15 18 21 17 15 16 14 18 18 19 20 22 20 16 19 18 21 14 9 6 7 7 6 13 9 8 5 5 6 3 3 5 2 11 6 7 6 7 1 8
7 7 13 11 10 14 13 5 5 7 13 14 14 11 13 14 17 18 23 22 24 20 14 25 19 19 14 8 5 2 9 7 9 11 9 7 6 4 2 3 5 5 8 6 7 10 3 6 5
9 3 4 8 17 12 12 5 4 5 5 6 17 13 12 16 22 21 22 26 23 22 15 19 23 16 13 11 14 10 8 10 11 6 9 7 6 3 2 2 7 5 8 10 4 6 10 5 5
16 16 6 7 13 10 12 10 1 8 5 4 5 11 17 15 18 17 20 25 24 24 20 16 19 17 16 12 5 5 10 8 10 14 9 9 7 5 1 4 7 4 4 4 2 2 7 1 3
11 16 8 2 12 19 15 6 8 4 12 11 12 9 11 13 14 18 20 22 26 26 24 24 17 16 15 10 9 4 7 2 10 6 9 7 9 7 3 2 3 5 1 2 5 1 7 9 3
13 19 16 14 12 9 9 5 6 9 13 13 19 12 13 11 22 20 23 24 27 26 23 23 22 16 13 12 11 13 12 8 6 11 3 6 10 9 8 6 6 1 14 14 10 1 4 8 11
15 22 21 23 11 9 13 5 7 18 18 19 20 17 16 20 20 11 25 22 32 29 28 24 19 17 14 12 10 8 8 8 9 5 6 14 13 9 9 8 7 5 6 10 9 6 6 10 11
21 11 16 12 5 7 18 14 12 17 20 19 21 15 15 17 18 14 13 34 25 30 28 26 23 18 13 13 9 7 5 3 4 4 10 10 9 8 9 8 4 1 6 7 5 4 6 8 10
15 15 4 2 4 5 6 11 9 22 22 25 17 9 16 9 6 16 12 17 30 28 30 30 26 20 16 14 12 8 5 3 2 3 6 4 2 13 10 11 9 7 6 6 3 1 3 8 10
13 18 4 1 6 2 12 7 11 22 18 22 20 22 11 16 13 9 8 11 25 26 19 30 24 22 19 17 14 12 8 5 6 7 2 2 7 8 9 13 11 9 8 5 4 1 5 8 8
12 14 14 12 3 7 7 11 18 19 14 19 19 25 19 18 15 10 12 23 32 14 7 33 26 23 20 17 15 11 7 8 2 3 3 3 7 8 3 5 10 8 6 6 5 5 5 8 10
15 11 13 6 5 6 1 4 5 21 17 16 16 21 24 23 20 16 15 24 18 13 16 27 23 25 21 19 17 15 12 9 6 4 4 3 2 4 12 13 13 8 8 11 10 9 5 8 11
11 12 10 15 13 5 4 6 8 19 18 17 15 19 26 26 23 16 9 18 27 29 33 33 26 24 16 11 11 13 10 10 9 7 5 2 2 1 9 9 11 12 12 12 13 13 11 6 11
16 15 15 9 15 11 8 8 8 13 11 12 7 15 6 17 25 14 21 36 34 25 19 26 27 25 20 17 11 5 12 12 12 8 1 4 5 4 6 10 10 10 12 12 13 13 11 10 11

GFSSGP_925_spd_105.txt.gz
Wind_Speed
8 7 4 3 3 0 4 6 11 14 13 17 17 14 17 9 8 10 25 31 30 25 20 16 13 12 12 12 12 12 12 14 14 17 18 18 17 18 19 20 19 19 17 18 17 15 17 18 18
8 9 4 3 3 2 5 10 18 17 14 20 23 22 24 21 18 21 25 33 28 26 19 17 15 13 13 13 12 12 12 13 15 16 17 16 17 18 19 19 19 19 17 17 15 14 17 17 18
6 5 4 3 3 2 5 12 11 12 13 15 12 14 10 19 14 17 32 32 32 27 20 19 17 16 15 14 13 13 13 14 15 16 16 17 16 18 18 17 18 18 16 16 14 13 16 18 17
2 2 4 2 3 5 11 12 18 14 8 18 15 14 22 31 17 30 37 35 28 24 23 19 16 17 15 15 14 14 14 14 15 16 17 16 16 16 15 15 15 14 13 13 13 13 17 18 15
7 1 3 2 3 7 14 11 13 15 12 18 22 15 12 23 34 32 29 30 26 24 24 21 18 17 16 15 15 15 15 15 16 17 16 17 16 14 14 15 15 15 15 13 12 14 18 17 18
3 2 2 3 3 14 12 8 13 13 16 23 23 18 7 26 32 26 21 25 25 24 24 21 19 17 17 16 16 16 15 15 16 17 17 17 16 16 16 16 15 13 13 12 12 16 17 17 17
4 2 3 5 14 13 13 9 13 13 19 19 17 12 6 20 35 26 29 30 24 23 23 22 20 18 17 16 17 17 16 16 17 16 16 17 16 16 17 15 14 13 12 11 13 16 17 18 17
4 3 1 2 10 10 9 9 13 20 12 25 20 9 7 22 33 33 28 28 30 25 24 21 20 18 17 17 15 16 16 16 16 15 16 16 17 16 16 16 14 14 13 13 13 14 16 16 14
4 4 2 4 8 10 16 9 6 11 15 15 9 16 16 30 27 31 22 24 30 26 22 23 21 17 15 17 15 15 15 16 16 16 16 16 18 16 14 14 14 12 11 15 16 14 14 13 11
4 3 7 8 5 3 15 11 10 9 11 19 19 19 26 22 32 28 24 25 24 25 23 25 21 16 16 16 17 17 17 16 15 16 16 11 13 12 11 12 13 9 6 8 7 8 6 7 11
4 3 6 7 16 15 9 12 5 13 9 23 22 19 19 25 26 22 23 34 27 25 24 25 20 21 18 20 20 18 13 14 13 16 15 11 12 11 10 13 10 7 5 11 10 7 4 4 7
3 14 11 4 16 7 14 13 9 11 15 25 22 21 20 16 14 15 24 30 28 29 24 24 20 20 16 17 16 18 17 14 15 14 14 13 16 12 11 6 7 9 10 9 9 9 8 3 3
7 8 14 16 22 16 8 13 7 9 26 21 16 11 19 16 19 27 34 32 32 28 24 23 18 15 15 16 18 21 11 13 13 9 9 11 12 9 14 10 12 9 3 4 3 4 6 2 11
1 6 14 14 7 13 17 9 7 4 23 22 19 12 12 15 15 31 29 32 30 28 22 21 14 14 15 16 13 18 13 14 13 12 12 12 14 15 12 7 5 10 4 9 6 10 8 7 8
6 6 9 10 6 5 17 10 9 15 21 21 18 14 13 11 28 23 28 31 33 28 22 21 14 13 16 18 14 10 14 11 14 14 9 10 10 8 12 7 5 7 7 10 7 5 8 9 10
1 1 4 7 4 9 8 5 12 17 17 18 16 13 14 16 21 28 32 32 33 28 24 21 16 12 14 15 7 16 21 17 9 10 9 6 8 10 3 5 0 4 8 3 13 14 9 13 11
2 2 4 7 4 7 1 5 7 19 20 17 14 9 13 13 19 25 33 31 35 27 25 21 19 17 12 12 9 10 10 14 13 14 9 8 5 4 1 3 3 3 6 2 3 4 10 16 14
6 4 2 8 8 16 0 4 4 9 11 16 15 10 14 17 13 24 30 34 31 25 22 27 21 14 12 10 10 10 13 12 13 10 10 8 6 5 5 7 1 1 3 5 9 10 7 6 5
8 9 9 10 9 7 12 4 0 9 9 9 10 7 10 15 19 27 32 34 29 25 25 23 25 19 14 14 9 10 11 11 8 10 8 6 6 2 1 2 2 3 4 7 7 10 15 5 5
10 5 7 12 10 7 9 5 3 4 3 2 7 7 2 14 14 23 31 28 29 25 28 25 24 22 16 10 5 6 6 4 10 9 8 6 4 2 3 5 4 2 6 5 6 9 15 7 5
8 4 8 7 8 1 2 5 2 0 2 3 5 4 3 2 13 19 28 28 30 27 31 28 23 20 19 13 8 9 8 6 9 8 7 6 5 4 3 1 3 1 1 3 4 9 11 14 13
4 9 11 13 9 3 5 1 3 6 9 6 6 7 2 3 7 16 27 30 32 33 30 27 24 18 15 16 13 12 14 8 9 9 8 7 7 6 3 1 2 3 3 3 5 9 11 13 18
6 17 7 8 8 6 2 4 3 4 10 15 15 12 4 6 3 14 18 29 31 34 34 32 25 19 18 17 12 10 10 8 9 9 10 13 8 5 6 3 3 4 4 1 6 7 11 10 14
25 18 11 4 2 3 10 5 7 13 25 28 16 12 9 3 3 6 17 26 30 31 32 32 28 23 19 17 13 12 12 15 11 8 8 4 7 8 8 8 8 7 6 4 1 7 6 8 10
20 12 4 1 2 4 5 6 12 17 16 17 19 13 10 5 2 7 10 9 30 30 29 31 31 25 21 18 16 15 12 10 8 8 11 7 7 9 8 7 7 8 3 6 2 8 5 6 9
17 12 6 6 4 2 3 2 6 14 19 14 17 13 9 9 6 3 21 19 16 24 31 29 30 28 23 20 19 14 10 10 7 5 6 9 9 7 9 11 9 7 6 3 5 6 4 6 8
7 4 10 7 1 4 2 2 11 4 5 12 13 13 13 9 7 6 7 17 17 4 29 30 31 27 24 22 20 17 15 10 9 10 6 7 9 10 10 13 13 10 11 10 8 5 5 6 10
6 5 3 2 4 3 5 3 5 4 4 11 13 14 19 15 13 9 9 18 28 6 17 30 27 27 27 23 21 19 16 12 9 10 9 6 5 7 12 11 10 10 10 9 9 6 5 6 8
3 3 5 5 5 5 5 5 9 11 4 8 12 16 17 16 21 9 11 18 23 28 21 24 24 24 26 26 24 19 15 14 12 11 9 6 3 2 8 9 8 9 10 9 11 13 11 10 9
6 7 7 4 4 4 5 3 4 15 23 18 15 18 20 22 18 13 18 21 24 21 26 18 24 22 27 20 27 23 20 17 14 12 12 10 8 5 4 4 5 9 7 10 11 11 11 7 11

GFSSGP_925_spd_108.txt.gz
Wind_Speed
4 2 3 1 2 3 3 9 13 12 8 4 12 5 10 8 3 3 14 24 27 23 18 15 13 11 11 12 11 11 12 14 16 16 19 18 16 16 17 17 17 16 15 15 16 17 16 16 17
3 2 2 1 4 5 4 14 17 12 14 20 16 18 10 6 8 11 17 22 28 24 21 18 14 12 12 12 12 12 12 14 16 17 17 17 17 17 16 15 15 16 13 14 14 15 15 14 16
2 2 2 3 2 1 6 8 15 12 13 14 7 11 6 5 14 17 21 29 26 23 19 17 15 15 13 13 13 13 14 14 15 15 15 15 16 16 17 15 14 13 12 12 13 12 15 14 15
2 1 3 3 2 3 7 8 12 18 18 16 15 10 8 16 11 21 30 30 25 22 19 17 16 15 14 13 14 14 14 15 15 15 15 15 15 14 13 12 11 11 11 10 13 15 13 15 15
1 2 3 2 2 1 8 9 14 13 9 18 19 12 5 16 31 36 33 29 26 23 19 17 17 15 14 13 14 14 14 15 16 15 15 14 13 13 12 11 10 10 9 10 13 14 15 17 17
2 3 2 1 2 4 6 10 17 17 13 16 17 12 6 27 34 31 31 27 26 25 21 18 17 16 14 14 15 14 15 16 16 14 14 13 12 14 12 11 10 11 9 11 13 14 15 14 18
2 2 1 2 5 5 8 11 15 18 16 8 15 14 7 18 30 32 27 27 24 24 22 19 18 16 15 15 15 15 14 16 16 15 15 14 14 14 12 11 9 8 8 10 12 14 13 13 15
3 3 1 3 11 5 9 4 19 20 6 14 19 7 10 13 33 31 27 24 25 23 22 21 20 18 17 16 15 15 16 16 15 16 16 16 14 12 11 11 9 8 8 9 11 13 12 12 13
4 3 2 4 5 1 6 10 8 13 16 10 4 15 21 27 34 30 26 24 23 22 22 22 20 19 20 17 16 17 16 17 17 17 15 16 14 12 10 10 9 11 10 9 10 12 11 10 11
4 2 7 8 6 6 8 6 12 10 16 9 18 17 27 27 29 29 22 21 22 24 24 22 19 19 20 19 17 18 17 17 17 18 17 14 13 13 11 11 11 8 8 7 5 4 4 4 4
5 5 9 14 14 8 6 11 8 20 12 21 21 21 21 26 24 21 24 24 26 27 22 22 19 21 20 20 20 19 17 16 17 17 14 13 12 12 10 8 7 9 6 4 5 3 3 1 4
4 8 11 8 12 6 8 7 11 19 12 20 20 25 22 19 21 23 25 23 26 28 25 22 21 20 21 22 20 16 17 15 14 13 10 13 11 10 9 4 4 6 6 5 3 4 4 5 3
6 11 11 2 8 7 9 9 14 18 17 18 17 17 19 19 20 30 29 27 26 27 27 23 20 19 18 17 15 14 16 14 14 13 9 15 10 9 7 2 3 4 5 6 6 7 6 4 0
8 10 8 3 3 6 5 6 5 16 22 22 17 14 20 16 27 29 25 24 26 29 25 24 19 17 18 15 15 13 13 15 11 9 10 13 9 6 6 1 2 3 4 4 8 7 5 4 2
9 7 12 7 8 3 15 9 12 23 19 21 18 16 14 22 33 30 32 30 32 31 28 26 18 15 19 17 12 14 16 15 11 12 10 11 8 7 5 3 3 11 9 6 6 8 8 5 4
1 3 5 8 10 6 7 15 17 21 22 18 17 16 16 24 32 32 32 31 33 30 27 24 19 20 21 16 16 18 16 12 16 14 10 7 6 5 1 5 10 7 8 7 6 10 12 8 6
1 3 3 9 7 3 1 1 15 17 17 16 12 8 17 18 23 31 32 34 35 29 28 23 20 18 15 18 19 16 18 18 14 11 9 9 7 5 4 5 7 7 2 4 4 6 4 13 10
3 2 10 7 6 5 9 7 4 7 17 18 12 11 17 16 18 31 32 36 33 31 28 24 19 19 14 18 15 17 17 14 12 11 10 8 5 4 5 4 2 4 5 7 8 10 12 2 6
4 7 10 4 3 6 8 10 5 5 8 6 7 14 17 17 25 33 34 31 34 31 28 25 24 21 17 16 13 15 17 18 15 13 11 9 6 4 1 4 3 4 5 9 11 13 16 9 7
11 14 5 3 2 0 2 9 8 5 2 3 6 13 17 11 16 25 30 28 31 34 32 29 24 23 18 15 11 13 13 13 14 10 10 9 6 3 1 3 2 2 4 7 12 15 15 12 13
6 8 8 5 6 2 5 4 5 4 5 3 2 3 5 12 18 17 26 26 32 35 34 32 26 22 19 17 12 13 11 10 10 10 8 9 6 2 1 2 1 2 1 4 10 13 14 14 13
3 9 15 11 2 1 2 3 7 6 10 3 6 4 6 9 15 18 23 25 30 33 33 32 28 24 20 18 13 14 14 13 14 13 11 9 9 8 4 1 3 1 2 1 6 9 12 12 15
6 8 17 8 2 3 4 2 1 3 7 10 7 8 7 8 16 18 23 26 28 34 36 32 30 25 22 19 16 14 13 11 12 11 13 11 11 8 8 6 5 3 1 2 4 6 7 10 11
21 16 10 7 1 1 4 2 1 5 13 16 10 11 8 7 8 16 23 26 25 29 33 34 29 25 22 21 15 15 13 13 12 13 12 14 15 10 7 9 9 3 3 1 2 3 3 4 7
3 6 4 2 1 4 8 4 6 10 11 14 10 10 9 6 8 8 15 22 23 27 32 33 28 26 24 21 19 16 14 14 12 12 11 13 15 15 13 8 11 5 4 5 4 1 2 1 2
13 6 5 7 4 2 8 3 5 4 11 19 14 13 11 8 6 7 13 23 24 26 30 32 32 27 25 23 20 19 15 14 12 12 14 13 14 14 16 14 12 8 6 5 4 2 3 0 0
7 5 5 6 3 3 1 4 9 3 2 6 15 16 13 10 7 7 16 21 25 27 28 33 34 30 28 27 23 21 18 17 15 13 10 12 12 12 15 17 15 13 10 8 7 7 4 3 3
13 8 3 2 5 3 2 2 6 9 5 6 12 16 16 15 7 7 12 23 25 28 27 25 32 32 30 28 26 24 21 16 12 12 11 8 10 10 13 15 13 12 12 10 8 9 7 6 5
2 4 4 5 5 5 5 5 9 13 9 13 13 15 18 19 13 8 11 18 28 26 26 24 20 31 31 29 26 24 21 19 14 13 12 10 8 7 12 12 9 11 10 10 10 12 9 9 10
7 8 6 5 3 2 4 6 7 14 11 14 13 12 11 18 14 11 17 22 23 24 18 20 20 26 30 28 25 23 21 18 17 14 12 12 9 6 7 9 10 10 9 7 10 11 10 10 8

GFSSGP_925_spd_111.txt.gz
Wind_Speed
4 4 2 2 3 3 2 3 2 7 9 7 17 4 6 3 1 4 9 28 17 17 13 9 9 9 11 11 13 13 15 13 15 15 15 13 13 13 13 13 13 14 13 14 16 15 14 14 13
2 6 1 1 4 4 3 2 5 4 6 17 8 6 7 4 4 8 14 21 19 17 14 11 8 10 10 12 12 13 15 15 15 15 14 13 13 13 12 11 12 11 12 13 14 13 13 12 10
1 5 1 3 3 3 4 2 9 9 5 6 5 7 4 2 6 12 9 18 22 17 14 13 11 10 11 11 12 13 14 14 13 14 13 14 12 12 12 12 11 11 11 12 12 11 12 12 13
1 1 1 4 3 2 5 8 4 5 8 7 10 8 5 4 10 9 24 24 21 17 14 12 13 11 11 12 12 13 14 14 13 13 13 13 11 11 11 10 10 9 10 11 11 11 10 11 11
2 2 4 3 2 2 6 7 10 6 4 7 4 5 3 2 11 25 25 23 21 18 15 14 13 12 12 13 13 13 14 15 14 14 12 11 10 9 8 7 7 8 9 10 11 12 11 11 11
3 2 2 3 3 5 5 7 10 12 12 14 11 7 2 15 25 24 25 22 20 19 16 15 13 12 13 13 13 13 14 14 14 12 11 10 10 9 8 9 9 7 8 9 10 12 10 12 12
1 2 1 2 6 4 7 9 11 13 12 6 12 5 3 8 19 24 23 21 21 18 17 15 14 12 13 14 14 14 14 14 12 12 11 11 11 9 8 7 7 7 8 9 10 9 9 11 10
2 2 2 3 5 4 8 4 14 17 4 13 11 6 6 10 18 22 22 22 19 17 16 17 15 14 15 14 13 13 13 13 13 12 12 11 11 9 8 8 8 8 8 8 9 9 9 9 8
3 3 2 3 1 2 3 6 4 6 14 4 2 7 13 24 24 25 21 20 18 16 16 16 16 16 15 14 12 13 12 12 12 11 12 11 11 10 9 9 9 8 8 7 6 6 5 5 5
3 2 2 2 3 5 7 13 8 7 12 8 14 16 23 26 27 22 17 16 19 17 17 16 16 17 16 15 14 14 13 14 14 12 11 10 10 9 10 9 9 8 7 8 7 5 3 1 2
4 5 6 7 6 3 6 2 4 17 6 15 21 19 19 22 18 19 17 21 24 22 19 18 18 18 18 16 16 16 14 14 14 12 10 9 9 8 7 5 4 5 4 3 2 1 1 5 8
4 6 6 7 4 2 4 6 3 16 8 17 20 23 22 15 18 18 20 18 19 23 21 19 18 18 17 18 17 16 14 14 14 13 9 9 8 8 6 2 1 2 3 1 2 4 6 7 8
3 6 7 3 4 2 4 8 3 13 18 18 21 19 19 16 18 17 21 22 23 23 21 20 20 17 18 18 16 14 13 13 12 10 7 10 8 7 5 6 3 3 4 4 3 7 7 7 6
5 8 5 2 4 3 3 5 3 10 17 20 20 19 17 17 21 21 20 21 26 23 24 23 20 19 18 15 14 14 14 13 11 10 7 10 7 4 4 4 4 4 4 5 4 5 6 8 8
12 7 4 1 1 3 4 7 7 16 17 21 19 16 17 19 24 26 26 27 30 28 26 24 21 18 17 16 12 13 13 14 12 8 9 9 6 3 4 3 3 5 7 5 5 3 6 8 4
5 4 2 3 3 1 6 4 2 18 20 20 19 16 17 18 28 27 27 28 29 28 25 24 21 21 19 16 14 14 14 11 13 11 9 8 7 6 3 3 3 11 9 7 4 4 5 2 1
6 2 3 3 8 3 2 3 6 14 20 18 18 16 16 16 20 23 26 31 33 31 29 23 20 22 19 14 14 17 16 10 12 10 7 8 9 7 6 4 5 5 4 8 5 8 3 5 4
2 4 7 3 4 3 5 7 6 4 14 19 15 13 18 19 18 27 27 31 34 33 30 25 24 23 19 14 15 16 15 14 14 10 10 7 6 7 6 5 4 6 5 7 6 9 8 3 4
5 5 10 3 3 3 3 3 9 9 3 11 10 17 17 20 19 26 26 29 31 31 30 28 26 22 22 19 16 13 15 15 13 11 9 8 7 5 5 3 5 6 6 9 11 11 10 10 4
9 9 4 4 3 1 5 9 6 9 4 2 7 18 19 15 15 20 24 24 29 34 32 29 26 24 22 18 18 14 18 15 11 7 7 9 7 5 3 5 7 5 6 8 10 11 10 9 8
2 6 7 6 6 3 1 3 4 6 1 4 4 11 19 20 19 16 22 25 28 32 33 31 29 28 23 18 16 16 14 13 13 11 10 7 6 5 2 2 2 2 4 7 9 10 10 10 13
5 6 8 14 6 2 1 3 6 7 6 4 3 4 14 20 18 19 23 24 26 31 31 32 31 28 24 21 16 18 16 15 12 13 12 10 8 7 4 1 2 1 3 5 7 7 9 10 7
4 12 11 5 4 5 5 2 3 9 7 7 8 6 7 20 21 22 26 28 30 29 34 33 28 26 25 23 20 18 16 15 12 13 13 11 10 10 8 6 7 4 5 6 5 6 5 7 9
17 9 6 0 2 2 5 3 4 7 19 13 7 7 7 15 18 21 27 26 24 26 31 33 29 27 25 23 20 17 16 15 13 16 15 15 14 10 12 11 9 6 5 5 6 4 2 3 6
6 5 2 1 2 3 4 2 9 9 9 18 14 7 9 7 15 15 14 21 22 27 30 35 32 30 26 24 22 19 17 16 16 15 16 14 17 17 13 11 12 9 5 8 5 4 4 1 1
7 6 5 6 4 3 3 5 5 6 9 15 5 8 10 8 14 16 21 23 27 30 30 32 34 31 27 25 24 20 18 16 16 13 13 14 15 18 16 14 12 13 8 6 9 6 5 4 3
6 4 4 7 3 3 3 6 5 9 5 15 20 22 15 10 7 16 20 25 28 27 32 36 36 33 28 26 23 21 19 17 16 13 12 15 14 13 14 15 15 14 11 10 8 6 4 3 3
7 6 2 2 5 3 4 6 4 8 11 12 14 20 20 22 11 7 16 25 29 34 36 36 36 34 30 26 24 20 19 16 15 14 14 11 12 12 12 15 15 13 13 11 10 8 6 4 2
1 2 5 5 4 5 3 6 8 14 13 15 14 19 19 20 18 10 10 21 29 32 35 36 34 34 30 26 24 21 19 16 14 12 11 10 7 9 11 13 15 13 13 13 12 11 10 9 6
2 0 4 5 4 2 4 6 4 8 7 10 12 14 13 16 15 15 13 15 23 28 31 33 31 31 29 27 23 22 19 17 16 15 14 13 11 9 7 11 13 10 11 9 11 11 12 11 9

GFSSGP_925_spd_114.txt.gz
Wind_Speed
6 3 1 2 4 5 2 2 4 6 7 2 8 4 4 3 2 4 6 19 18 17 12 13 11 10 9 11 11 12 12 14 15 15 13 12 12 13 13 14 15 13 14 14 16 14 13 13 15
5 5 1 1 4 4 2 2 5 3 5 11 6 7 4 3 3 6 13 16 19 16 13 11 11 9 11 11 12 12 12 14 14 13 12 11 12 13 12 12 13 13 13 13 14 12 12 11 12
4 4 1 3 3 4 4 3 5 6 6 7 4 6 3 2 5 8 11 18 19 14 12 10 9 8 10 9 11 12 12 13 12 12 12 12 11 12 13 13 12 13 12 12 13 15 14 17 15
4 2 1 3 7 1 4 7 6 6 5 5 10 6 5 1 6 5 23 18 18 14 12 9 10 8 10 10 10 11 11 11 12 12 12 12 12 10 12 12 12 12 11 11 13 13 14 15 17
2 1 3 3 3 3 4 5 2 4 4 4 2 4 4 4 6 17 19 19 17 15 13 10 11 11 10 10 11 11 12 11 11 12 11 10 10 9 9 10 11 11 11 11 12 14 15 14 14
2 0 4 3 3 3 3 5 4 4 4 6 7 6 2 8 16 17 18 17 14 15 13 13 9 12 11 11 12 12 12 11 11 9 9 9 9 9 10 12 11 11 11 11 11 13 16 13 10
3 2 2 4 5 4 5 5 4 6 7 5 5 5 2 4 14 17 16 15 15 13 12 12 11 11 11 11 11 12 12 11 11 9 9 10 10 9 10 11 11 11 10 10 10 11 12 11 8
3 2 2 2 8 3 7 3 5 6 4 7 8 5 5 7 16 17 15 14 14 14 12 13 11 11 11 11 11 11 11 11 10 10 11 11 10 9 10 12 12 11 10 10 9 10 9 8 9
1 3 2 2 5 3 9 5 6 6 10 2 2 5 12 22 19 17 15 13 13 13 14 14 13 12 13 11 11 12 11 10 10 10 9 10 9 9 12 11 11 11 11 10 9 7 6 5 4
2 2 2 4 3 3 2 11 8 6 6 4 10 15 24 22 20 17 14 12 14 15 15 15 14 14 13 11 12 13 12 12 11 10 9 9 10 10 12 12 11 11 12 11 8 6 3 2 2
2 2 6 3 4 4 4 6 2 14 3 8 17 15 18 18 16 14 13 18 19 16 15 15 15 14 14 13 13 12 11 11 12 10 9 8 8 8 7 7 7 7 7 6 5 3 1 4 5
2 4 7 6 10 3 1 5 5 6 5 14 17 20 18 14 14 14 14 18 18 18 16 15 16 15 13 12 12 11 11 12 12 9 7 5 5 6 4 3 3 3 4 4 3 3 4 5 5
3 3 7 9 13 4 1 3 2 8 14 15 16 18 16 14 14 15 17 16 18 19 17 17 16 16 14 14 13 12 11 11 10 7 4 4 3 3 2 7 6 5 4 3 3 4 6 6 3
2 5 8 5 6 2 2 2 3 6 15 17 18 16 15 15 19 15 18 18 19 20 18 18 17 15 15 15 13 11 11 11 10 7 5 5 4 2 2 5 5 5 4 3 3 4 5 8 5
10 4 9 8 3 3 7 5 3 2 15 19 16 14 13 15 18 20 22 24 23 21 20 21 19 17 17 14 13 12 13 10 10 7 7 7 4 3 3 2 4 7 6 4 4 2 3 4 4
3 4 3 6 5 1 4 5 4 11 17 18 15 14 14 12 20 18 20 25 25 23 22 21 20 18 17 15 12 12 11 11 10 7 7 6 4 4 2 3 7 4 7 5 4 1 1 2 2
6 3 5 4 5 2 6 4 8 5 18 17 16 14 14 12 14 18 24 26 27 26 24 23 21 20 19 15 13 12 10 9 9 8 7 6 8 5 5 5 4 6 7 7 6 5 4 3 2
2 4 3 4 3 7 7 8 6 5 5 16 16 13 14 14 16 21 25 29 27 26 25 23 22 22 21 16 14 15 12 9 10 7 5 8 6 5 4 4 4 5 5 6 5 8 7 4 3
4 3 5 3 5 4 2 1 5 7 4 6 9 12 14 16 18 21 23 24 27 25 24 24 22 24 24 19 18 16 15 11 9 7 8 6 7 4 3 4 3 4 5 8 7 8 8 7 2
5 7 2 1 4 2 4 3 2 6 3 4 4 13 15 11 10 17 22 22 28 29 28 25 25 25 22 21 18 18 17 14 11 8 6 6 7 5 4 4 7 5 5 6 8 8 5 7 4
4 5 5 3 5 3 3 4 5 4 5 6 7 8 13 17 14 14 20 24 25 30 32 30 27 25 23 20 18 15 15 12 11 10 10 8 7 5 5 4 4 5 4 5 8 9 7 6 9
3 7 9 10 5 2 3 2 4 9 6 7 12 9 15 16 16 16 21 22 26 32 34 31 29 26 24 21 20 19 18 16 13 12 11 9 8 9 6 4 5 4 5 5 6 7 7 7 5
5 11 6 2 3 2 4 2 3 11 13 15 16 8 16 16 19 18 24 28 28 27 35 33 29 28 25 23 20 20 18 15 12 13 13 11 10 9 7 6 6 5 4 5 4 5 6 6 5
11 7 7 5 3 2 7 5 5 11 22 14 13 11 12 17 18 20 27 22 22 23 30 32 31 28 26 24 21 20 20 18 15 15 15 13 12 10 10 9 7 5 4 4 4 3 4 4 4
5 7 3 2 0 5 4 4 8 17 14 19 18 13 12 15 15 14 14 20 22 27 31 32 32 31 27 25 22 20 18 17 16 15 15 15 14 13 12 10 11 8 4 6 5 5 4 3 3
4 6 6 6 4 2 1 5 6 9 17 16 19 15 12 12 14 15 21 24 26 29 31 33 35 33 30 28 24 20 18 17 16 15 13 13 14 15 15 13 11 12 9 7 10 7 6 6 6
6 5 5 5 2 1 4 6 5 2 8 11 15 15 11 12 13 15 17 22 25 27 31 37 38 35 32 28 23 20 17 15 14 14 11 11 13 12 14 16 15 13 12 9 8 8 6 6 7
5 7 2 2 4 4 4 5 5 11 9 15 11 14 11 11 13 15 19 22 26 31 39 36 37 38 34 28 24 20 18 15 13 12 11 11 10 12 12 12 16 15 15 12 12 11 9 8 6
2 2 1 4 4 5 2 6 5 11 15 19 24 24 23 19 17 16 21 26 30 29 31 37 35 36 34 30 25 21 17 15 11 10 10 10 6 8 10 12 12 16 14 14 14 13 12 12 9
4 6 6 4 4 2 3 6 7 6 7 19 12 15 18 19 17 14 18 20 24 27 28 33 34 35 34 29 25 22 18 15 13 11 9 9 10 9 9 10 11 14 11 12 14 14 14 15 14

GFSSGP_925_spd_117.txt.gz
Wind_Speed
5 3 2 1 1 3 5 4 3 9 10 3 9 4 5 6 3 8 13 15 20 16 12 9 8 9 6 7 10 11 14 14 15 14 14 14 16 16 16 15 14 15 15 15 13 14 15 16 17
6 2 1 1 2 5 4 1 8 10 7 13 10 10 4 5 4 11 14 18 20 18 14 8 7 7 5 9 10 11 13 14 13 13 12 14 16 15 14 15 14 15 14 14 13 12 12 15 17
6 1 2 2 2 4 5 5 9 7 12 9 4 7 3 4 8 15 13 20 20 18 13 10 9 8 8 9 10 11 13 13 12 13 14 14 15 15 14 14 14 15 14 16 17 17 16 15 16
3 1 1 2 7 3 4 12 13 13 10 5 10 10 6 8 6 8 19 19 18 15 13 11 9 8 9 9 12 11 11 11 12 14 13 14 13 14 14 14 13 13 14 15 15 16 16 16 15
1 0 1 3 4 4 9 13 9 8 5 7 5 7 8 4 9 18 17 17 15 14 11 10 9 8 8 10 10 12 11 11 12 12 12 12 12 12 12 13 13 13 14 15 15 15 16 15 13
1 1 3 3 6 9 7 6 8 6 7 7 11 11 4 5 12 16 15 14 12 12 11 9 10 9 8 9 10 10 11 11 11 11 11 11 12 13 12 13 14 13 13 13 16 15 12 11 12
0 1 3 6 8 9 4 5 7 9 8 5 10 8 4 6 12 15 15 13 12 11 11 9 9 9 8 9 9 10 10 10 10 10 10 12 13 13 14 14 14 13 12 11 12 13 11 9 10
2 1 5 3 11 6 7 3 8 6 5 11 8 6 9 10 14 15 14 13 12 11 11 10 10 9 9 8 9 9 10 9 10 12 11 13 14 14 13 14 13 12 11 10 10 9 8 9 8
0 1 4 4 7 3 9 5 5 3 12 4 3 8 13 19 17 16 14 12 11 10 11 10 10 9 10 9 9 10 10 10 10 10 10 11 11 12 12 13 13 12 10 9 8 6 5 5 6
3 1 3 7 8 5 4 10 7 7 10 4 10 14 20 18 17 16 15 14 12 11 11 11 10 9 10 9 9 9 9 8 8 9 10 11 11 11 11 11 12 11 11 9 6 4 2 4 3
4 2 7 6 8 6 3 5 6 13 8 7 21 19 19 18 15 13 14 14 14 12 10 11 10 10 10 9 9 9 9 8 9 9 9 10 10 9 8 8 8 9 7 5 3 1 2 4 3
2 7 6 8 7 3 5 3 5 11 3 12 20 21 19 16 15 14 14 14 14 14 12 11 11 10 11 10 9 9 9 8 8 8 6 6 6 7 5 4 4 5 5 3 2 2 4 6 6
2 7 4 6 10 10 10 7 1 8 10 17 18 18 16 15 15 13 11 13 14 14 14 12 12 11 10 12 9 10 10 9 8 7 4 4 3 4 7 7 6 5 4 3 2 3 6 8 7
3 10 9 5 8 6 7 6 3 10 16 17 19 17 16 16 18 14 13 14 14 14 14 13 12 12 11 11 12 10 9 8 7 4 3 4 3 2 3 5 4 4 3 2 3 3 6 7 6
11 8 8 4 6 4 5 4 6 12 17 17 18 16 15 17 17 15 14 13 15 14 14 14 13 12 13 12 11 10 9 7 6 5 3 3 2 1 1 2 3 4 3 2 2 2 4 3 6
2 2 3 4 5 3 2 3 6 8 17 18 19 15 15 16 18 15 14 13 14 14 14 14 14 14 13 12 11 10 9 7 5 3 3 3 2 3 3 2 3 2 2 2 2 1 2 3 5
3 2 3 3 3 5 5 3 5 5 15 18 18 17 15 14 16 16 16 15 15 15 14 15 14 14 14 13 10 9 8 6 4 5 3 4 5 3 3 5 1 3 4 3 3 3 4 4 4
3 2 2 3 2 2 8 7 3 6 16 18 17 16 16 16 18 20 17 15 15 16 15 15 15 14 15 11 12 10 6 7 7 6 6 6 5 4 2 3 3 4 4 3 4 5 4 3 3
3 3 3 4 3 1 2 2 12 1 8 13 10 11 16 17 18 18 18 17 16 16 17 17 16 16 15 12 9 8 11 8 8 8 7 7 6 4 3 3 3 3 4 5 3 4 4 4 2
5 5 3 3 4 4 7 5 5 5 4 9 11 11 17 14 14 18 20 20 19 19 19 18 18 18 20 16 15 11 12 8 8 8 8 8 7 4 2 3 5 3 2 3 3 2 1 3 2
5 8 6 1 6 0 1 4 6 8 5 7 8 13 17 18 18 17 21 22 20 20 20 18 19 19 21 18 15 14 13 11 9 10 9 8 8 5 3 3 4 4 3 1 2 2 2 2 4
6 9 5 9 8 2 3 3 8 12 12 13 14 14 14 19 19 17 22 23 24 22 20 20 18 19 21 20 14 16 15 13 12 11 11 10 9 7 5 5 4 5 5 4 2 1 1 2 2
2 7 9 7 3 2 7 4 3 13 15 20 18 19 16 19 20 20 26 28 26 22 22 22 21 20 19 21 17 15 16 13 12 12 12 11 10 10 8 7 7 6 5 6 4 2 1 1 2
14 10 9 6 2 4 5 8 6 10 23 24 19 20 23 20 22 23 28 24 23 21 22 23 23 24 22 21 20 18 17 15 12 13 11 11 9 10 11 9 8 7 6 7 6 5 3 1 2
4 7 2 5 4 5 1 6 13 15 20 21 18 22 22 21 22 20 19 25 25 25 25 24 24 24 23 21 19 18 17 16 15 12 13 12 13 13 13 11 12 11 8 8 9 7 7 4 3
12 7 5 7 4 1 3 7 5 6 18 15 13 16 18 22 21 21 25 27 28 27 25 24 25 25 23 21 21 20 18 13 12 11 9 9 10 11 13 14 12 13 12 8 9 7 6 7 5
6 8 2 1 1 4 4 6 13 7 11 15 15 17 18 17 21 22 26 26 28 27 26 27 26 25 23 22 20 19 18 16 12 13 12 9 11 9 13 15 15 13 12 11 8 8 9 7 7
5 8 4 3 4 5 4 5 7 6 10 11 13 18 21 16 18 19 23 27 27 27 26 24 25 27 26 23 21 19 16 16 14 12 12 11 10 10 10 11 13 13 13 13 12 10 10 9 8
6 5 3 2 2 4 4 3 2 11 14 14 13 16 20 16 16 16 19 23 27 25 24 24 23 23 24 24 21 19 17 16 15 12 11 10 10 6 9 9 11 13 14 15 14 13 12 12 10
5 6 12 8 10 3 4 6 8 10 10 13 15 18 18 17 14 13 17 19 22 26 24 23 22 22 23 22 22 23 19 16 15 13 10 8 7 6 6 7 10 11 13 14 14 13 13 14 15

GFSSGP_925_spd_120.txt.gz
Wind_Speed
4 2 2 5 5 2 8 6 7 9 8 4 6 1 12 12 9 9 24 17 21 15 12 11 11 10 11 10 12 14 15 16 17 17 17 17 17 17 15 16 16 16 16 15 16 16 17 17 17
4 2 3 3 5 6 6 7 7 8 9 9 8 7 5 12 12 18 20 20 20 13 12 10 11 10 10 11 11 13 14 14 15 16 17 16 15 15 15 16 15 16 15 15 13 14 17 16 16
4 2 1 0 2 7 8 6 9 8 11 5 4 8 5 8 18 22 21 21 18 13 10 10 10 9 9 11 11 14 13 14 14 16 15 15 14 14 15 15 15 17 18 18 17 15 15 16 15
3 5 3 1 6 5 9 9 11 10 8 1 7 11 9 12 12 15 22 19 16 13 10 7 8 8 7 10 11 12 12 14 16 16 15 13 14 14 15 14 14 16 16 16 17 17 16 15 14
5 3 1 4 5 7 10 10 8 9 5 5 6 10 12 8 13 22 22 17 14 11 10 9 9 9 9 9 9 11 12 13 14 15 14 13 13 12 13 14 13 15 16 15 16 16 15 14 14
4 3 4 2 9 11 9 7 7 6 8 7 13 15 10 12 18 19 18 14 12 11 10 10 10 9 9 9 9 11 12 13 14 14 13 12 13 12 13 13 13 13 14 16 15 14 14 15 15
4 3 2 10 12 11 8 5 5 7 9 9 12 12 12 14 16 16 15 13 12 11 11 11 11 9 10 10 11 12 12 12 13 13 13 13 14 14 12 12 12 12 13 14 14 13 12 13 12
3 2 7 3 11 11 7 5 6 5 6 11 10 7 16 19 16 16 15 14 12 11 12 11 12 12 10 9 10 12 12 13 13 13 13 14 14 13 12 12 11 10 11 12 12 11 12 10 9
2 4 6 6 9 7 9 8 4 2 12 7 3 6 21 23 19 17 15 14 14 11 11 12 12 11 10 11 10 11 12 13 13 12 13 10 12 11 11 11 9 9 9 9 8 8 8 6 8
2 3 5 4 7 3 6 7 7 8 11 9 10 17 22 21 18 16 16 15 14 14 12 12 12 11 11 11 10 12 11 11 11 11 10 11 11 9 10 9 9 9 8 7 7 5 6 6 4
3 2 11 6 8 3 2 6 4 7 9 9 15 20 19 20 16 14 14 15 15 14 13 13 12 11 11 11 11 10 11 11 11 10 10 11 11 9 8 7 6 5 6 5 4 3 4 5 4
3 8 5 8 6 6 2 5 4 7 6 7 17 19 18 16 14 14 14 14 15 15 14 13 13 11 11 11 10 10 10 10 11 10 9 8 8 6 4 4 4 4 4 3 3 4 5 6 6
4 10 3 9 10 10 9 8 3 10 1 13 19 17 15 14 13 12 14 14 15 15 15 14 13 11 11 11 10 10 10 10 10 9 7 6 5 5 5 4 4 4 4 3 2 4 6 7 9
5 7 5 5 6 9 11 7 7 10 12 15 18 17 14 13 14 13 13 15 15 15 15 14 13 11 11 10 10 10 9 9 8 7 6 5 5 4 4 5 4 3 3 2 3 3 5 7 11
11 8 5 3 6 6 6 11 9 12 14 15 16 15 15 13 14 12 13 15 16 16 16 15 14 13 12 11 11 9 10 10 9 7 6 5 4 3 3 5 4 3 1 2 2 2 4 8 9
8 6 3 4 6 5 6 8 5 8 14 15 15 14 14 14 14 12 13 14 16 16 16 15 14 14 13 11 10 10 10 9 7 6 6 5 4 3 3 4 4 2 1 2 3 4 5 6 7
5 3 1 3 5 4 8 6 5 2 12 16 14 15 15 14 14 14 13 13 16 16 16 15 14 13 12 11 10 9 8 6 6 7 6 6 5 4 3 5 2 2 2 3 3 7 5 7 6
5 5 2 1 5 8 13 6 4 4 12 15 18 16 16 15 16 17 15 14 16 17 17 17 15 13 12 10 9 9 8 7 6 6 6 6 5 4 4 3 2 2 3 3 5 5 4 3 3
2 2 3 4 4 5 9 11 13 5 7 16 16 14 16 17 18 18 17 16 17 17 18 18 17 15 13 12 11 10 8 8 7 6 5 6 5 4 4 4 2 2 3 3 3 4 4 4 3
8 8 4 4 5 5 7 11 7 14 11 15 18 13 17 18 17 18 19 18 18 19 18 18 17 15 15 13 10 9 9 8 8 7 7 6 5 4 3 3 3 2 2 2 2 1 1 2 1
10 11 4 7 6 6 7 13 14 12 16 13 18 18 18 17 17 17 20 21 20 20 21 20 18 17 16 13 12 9 9 6 6 8 9 8 7 6 4 3 4 3 2 1 2 2 3 1 1
11 8 8 6 5 5 5 5 10 16 19 16 18 18 19 20 17 17 22 22 22 21 21 21 20 17 16 17 13 13 12 10 9 8 6 6 8 7 5 4 4 4 3 2 1 2 2 3 2
8 2 8 9 7 7 9 7 6 16 16 23 21 22 20 24 21 20 22 25 23 21 21 21 20 17 17 18 13 14 12 12 9 7 7 8 7 7 8 6 5 4 4 4 3 3 2 3 5
3 5 5 3 4 10 12 8 11 11 23 22 23 23 24 25 24 21 25 23 23 22 21 21 21 18 19 17 16 13 10 9 7 8 9 9 9 9 10 8 7 6 6 5 5 4 4 3 2
13 11 8 8 8 10 4 7 15 6 10 20 23 25 25 24 22 21 19 22 23 24 23 22 23 22 21 18 14 15 14 12 11 12 11 11 10 10 8 9 9 9 7 6 6 6 6 6 5
14 15 11 6 9 5 3 7 3 4 6 14 18 19 22 23 23 23 22 24 24 25 24 23 23 23 23 20 19 16 15 13 13 12 10 13 11 13 12 12 12 11 10 7 7 8 8 9 8
11 9 12 12 9 8 8 9 14 6 8 12 18 18 18 24 23 24 26 27 25 26 26 24 22 23 24 23 20 18 16 15 12 10 10 13 14 13 13 13 14 13 12 12 10 9 10 9 8
11 5 8 9 8 13 10 5 3 13 10 9 16 17 14 19 22 22 22 27 26 26 26 23 22 22 22 21 20 18 17 15 14 12 11 10 10 9 9 10 12 15 14 14 13 10 9 10 10
9 11 9 9 9 8 8 2 5 11 12 8 11 14 15 13 15 18 21 26 26 26 25 24 22 21 22 21 20 18 17 15 13 13 12 11 10 9 9 9 10 11 11 12 13 12 11 11 11
13 14 12 10 16 12 12 10 5 9 11 4 4 4 12 13 15 9 18 22 25 26 25 24 22 21 21 21 21 19 18 16 15 15 13 10 9 9 8 8 8 8 11 12 13 13 13 13 14